[[{"header":{"parameterUnit":"m.s-1","parameterCategory":1,"la1":30.6,"la2":29.2853,"lo1":-89.7004,"lo2":-87.6739,"dy":0.0162,"dx":0.0183,"nx":112,"ny":82,"refTime":"2023-06-13T06:00:00:Z","depth":0,"parameterNumber":2,"parameterNumberName":"U-component_of_WINDS"},"data":[0.0,0.0,0.0,0.0,0.0,0.0,0.0,0.0,0.0,0.0,0.0,0.0,0.0,0.0,0.0,0.0,0.0,0.0,0.0,0.0,0.0,0.0,0.0,0.0,0.0,0.0,0.0,0.0,0.0,0.0,0.0,0.0,0.0,0.0,0.0,0.0,0.0,0.0,0.0,0.0,0.0,0.0,0.0,0.0,0.0,0.0,0.0,0.0,0.0,0.0,0.0,0.0,0.0,0.0,0.0,0.0,0.0,0.0,0.0,0.0,0.0,0.0,0.0,0.0,0.0,0.0,0.0,0.0,0.0,0.0,0.0,0.0,0.0,0.0,0.0,0.0,0.0,0.0,0.0,0.0,0.0,0.0,0.0,0.0,0.0,0.0,0.0,0.0,0.0,0.0,-2.3535,-2.5927,-2.9785,-3.2344,-3.2754,-3.2617,-3.1152,-2.7969,0.0,0.0,0.0,0.0,0.0,0.0,0.0,0.0,0.0,0.0,0.0,0.0,0.0,0.0,0.0,0.0,0.0,0.0,0.0,0.0,0.0,0.0,0.0,0.0,0.0,0.0,0.0,0.0,0.0,0.0,0.0,0.0,0.0,0.0,0.0,0.0,0.0,0.0,0.0,0.0,0.0,0.0,0.0,0.0,0.0,0.0,0.0,0.0,0.0,0.0,0.0,0.0,0.0,0.0,0.0,0.0,0.0,0.0,0.0,0.0,0.0,0.0,0.0,0.0,0.0,0.0,0.0,0.0,0.0,0.0,0.0,0.0,0.0,0.0,0.0,0.0,0.0,0.0,0.0,0.0,0.0,0.0,0.0,0.0,0.0,0.0,0.0,0.0,0.0,0.0,0.0,0.0,0.0,0.0,0.0,0.0,0.0,0.0,0.0,0.0,0.0,0.0,0.0,0.0,-2.4453,-2.8047,-3.0684,-3.2344,-3.2754,-3.1797,-3.0332,-2.832,0.0,0.0,0.0,0.0,0.0,0.0,0.0,0.0,0.0,0.0,0.0,0.0,0.0,0.0,0.0,0.0,0.0,0.0,0.0,0.0,0.0,0.0,0.0,0.0,0.0,0.0,0.0,0.0,0.0,0.0,0.0,0.0,0.0,0.0,0.0,0.0,0.0,0.0,0.0,0.0,0.0,0.0,0.0,0.0,0.0,0.0,0.0,0.0,0.0,0.0,0.0,0.0,0.0,0.0,0.0,0.0,0.0,0.0,0.0,0.0,0.0,0.0,0.0,0.0,0.0,0.0,0.0,0.0,0.0,0.0,0.0,0.0,0.0,0.0,0.0,0.0,0.0,0.0,0.0,0.0,0.0,0.0,0.0,0.0,0.0,0.0,0.0,0.0,0.0,0.0,0.0,0.0,0.0,0.0,0.0,0.0,0.0,0.0,0.0,0.0,0.0,0.0,0.0,-2.4238,-2.6211,-2.9629,-3.1504,-3.2773,-3.3437,-3.2324,-3.0742,-2.875,-2.7598,0.0,0.0,0.0,0.0,0.0,0.0,0.0,0.0,0.0,0.0,0.0,0.0,0.0,0.0,0.0,0.0,0.0,0.0,0.0,0.0,0.0,0.0,0.0,0.0,0.0,0.0,0.0,0.0,0.0,0.0,0.0,0.0,0.0,0.0,0.0,0.0,0.0,0.0,0.0,0.0,0.0,0.0,0.0,0.0,0.0,0.0,0.0,0.0,0.0,0.0,0.0,0.0,0.0,0.0,0.0,0.0,0.0,0.0,0.0,0.0,0.0,0.0,0.0,0.0,0.0,0.0,0.0,0.0,0.0,0.0,0.0,0.0,0.0,0.0,0.0,0.0,0.0,0.0,0.0,0.0,0.0,0.0,0.0,0.0,0.0,0.0,0.0,0.0,0.0,0.0,0.0,0.0,0.0,0.0,0.0,0.0,0.0,0.0,0.0,0.0,0.0,0.0,-2.6016,-2.7812,-3.0723,-3.2187,-3.3262,-3.4004,-3.2812,-3.1172,-2.9199,-2.7285,0.0,0.0,0.0,0.0,0.0,0.0,0.0,0.0,0.0,0.0,0.0,0.0,0.0,0.0,0.0,0.0,0.0,0.0,0.0,0.0,0.0,0.0,0.0,0.0,0.0,0.0,0.0,0.0,0.0,0.0,0.0,0.0,0.0,0.0,0.0,0.0,0.0,0.0,0.0,0.0,0.0,0.0,0.0,0.0,0.0,0.0,0.0,0.0,0.0,0.0,0.0,0.0,0.0,0.0,0.0,0.0,0.0,0.0,0.0,0.0,0.0,0.0,0.0,0.0,0.0,0.0,0.0,0.0,0.0,0.0,0.0,0.0,0.0,0.0,0.0,0.0,0.0,0.0,0.0,0.0,0.0,0.0,0.0,0.0,0.0,0.0,0.0,0.0,0.0,0.0,0.0,0.0,0.0,0.0,0.0,0.0,0.0,0.0,0.0,0.0,0.0,0.0,-2.6593,-2.8574,-3.1191,-3.2617,-3.3574,-3.4023,-3.2519,-3.0976,-2.9665,-2.7168,0.0,0.0,0.0,0.0,0.0,0.0,0.0,0.0,0.0,0.0,0.0,0.0,0.0,0.0,0.0,0.0,0.0,0.0,0.0,0.0,0.0,0.0,0.0,0.0,0.0,0.0,0.0,0.0,0.0,0.0,0.0,0.0,0.0,0.0,0.0,0.0,0.0,0.0,0.0,0.0,0.0,0.0,0.0,0.0,0.0,0.0,0.0,0.0,0.0,0.0,0.0,0.0,0.0,0.0,0.0,0.0,0.0,0.0,0.0,0.0,0.0,0.0,0.0,0.0,0.0,0.0,0.0,0.0,0.0,0.0,0.0,0.0,0.0,0.0,0.0,0.0,0.0,0.0,0.0,0.0,0.0,0.0,0.0,0.0,0.0,0.0,0.0,0.0,0.0,0.0,0.0,0.0,0.0,0.0,0.0,0.0,0.0,0.0,0.0,0.0,0.0,0.0,-2.7383,-2.9434,-3.2031,-3.3711,-3.4726,-3.4883,-3.3809,-3.2207,-3.0098,0.0,0.0,0.0,0.0,0.0,0.0,0.0,0.0,0.0,0.0,0.0,0.0,0.0,0.0,0.0,0.0,0.0,0.0,0.0,0.0,0.0,0.0,0.0,0.0,0.0,0.0,0.0,0.0,0.0,0.0,0.0,0.0,0.0,0.0,0.0,0.0,0.0,0.0,0.0,0.0,0.0,0.0,0.0,0.0,0.0,0.0,0.0,0.0,0.0,0.0,0.0,0.0,0.0,0.0,0.0,0.0,0.0,0.0,0.0,0.0,0.0,0.0,0.0,0.0,0.0,0.0,0.0,0.0,0.0,0.0,0.0,0.0,0.0,0.0,0.0,0.0,0.0,0.0,0.0,0.0,0.0,0.0,0.0,0.0,0.0,0.0,0.0,0.0,0.0,0.0,0.0,0.0,0.0,0.0,0.0,0.0,0.0,0.0,0.0,0.0,0.0,0.0,-2.6152,-2.8105,-3.0273,-3.2734,-3.4551,-3.5586,-3.5586,-3.4297,-3.2656,-3.0742,0.0,0.0,0.0,0.0,0.0,0.0,0.0,0.0,0.0,0.0,0.0,0.0,0.0,0.0,0.0,0.0,0.0,0.0,0.0,0.0,0.0,0.0,0.0,0.0,0.0,0.0,0.0,0.0,0.0,0.0,0.0,0.0,0.0,0.0,0.0,0.0,0.0,0.0,0.0,0.0,0.0,0.0,0.0,0.0,0.0,0.0,0.0,0.0,0.0,0.0,0.0,0.0,0.0,0.0,0.0,0.0,0.0,0.0,0.0,0.0,0.0,0.0,0.0,0.0,0.0,0.0,0.0,0.0,0.0,0.0,0.0,0.0,0.0,0.0,0.0,0.0,0.0,0.0,0.0,0.0,0.0,0.0,0.0,0.0,0.0,0.0,0.0,0.0,0.0,0.0,0.0,0.0,0.0,0.0,0.0,0.0,0.0,0.0,0.0,0.0,0.0,0.0,-2.623,-2.8633,-3.1035,-3.3184,-3.498,-3.6016,-3.6016,-3.3652,-3.1992,0.0,0.0,0.0,0.0,0.0,0.0,0.0,0.0,0.0,0.0,0.0,0.0,0.0,0.0,0.0,0.0,0.0,0.0,0.0,0.0,0.0,0.0,0.0,0.0,0.0,0.0,0.0,0.0,0.0,0.0,0.0,0.0,0.0,0.0,0.0,0.0,0.0,0.0,0.0,0.0,0.0,0.0,0.0,0.0,0.0,0.0,0.0,0.0,0.0,0.0,0.0,0.0,0.0,0.0,0.0,0.0,0.0,0.0,0.0,0.0,0.0,0.0,0.0,0.0,0.0,0.0,0.0,0.0,0.0,0.0,0.0,0.0,0.0,0.0,0.0,0.0,0.0,0.0,0.0,0.0,0.0,0.0,0.0,0.0,0.0,0.0,0.0,0.0,0.0,0.0,0.0,0.0,0.0,0.0,0.0,0.0,0.0,0.0,0.0,0.0,0.0,0.0,0.0,-2.666,-2.9082,-3.1387,-3.3223,-3.498,-3.5898,-3.5605,-3.4023,-3.248,-3.1152,0.0,0.0,0.0,0.0,0.0,0.0,0.0,0.0,0.0,0.0,0.0,0.0,0.0,0.0,0.0,0.0,0.0,0.0,0.0,0.0,0.0,0.0,0.0,0.0,0.0,0.0,0.0,0.0,0.0,0.0,0.0,0.0,0.0,0.0,0.0,0.0,0.0,0.0,0.0,0.0,0.0,0.0,0.0,0.0,0.0,0.0,0.0,0.0,0.0,0.0,0.0,0.0,0.0,0.0,0.0,0.0,0.0,0.0,0.0,0.0,0.0,0.0,0.0,0.0,0.0,0.0,0.0,0.0,0.0,0.0,0.0,0.0,0.0,0.0,0.0,0.0,0.0,0.0,0.0,0.0,0.0,0.0,0.0,0.0,0.0,0.0,0.0,0.0,0.0,0.0,0.0,0.0,0.0,0.0,0.0,0.0,0.0,0.0,0.0,0.0,0.0,0.0,-2.7363,-2.9785,-3.2051,-3.375,-3.5332,-3.6172,-3.5918,-3.4219,-3.2656,-3.1484,0.0,0.0,0.0,0.0,0.0,0.0,0.0,0.0,0.0,0.0,0.0,0.0,0.0,0.0,0.0,0.0,0.0,0.0,0.0,0.0,0.0,0.0,0.0,0.0,0.0,0.0,0.0,0.0,0.0,0.0,0.0,0.0,0.0,0.0,0.0,0.0,0.0,0.0,0.0,0.0,0.0,0.0,0.0,0.0,0.0,0.0,0.0,0.0,0.0,0.0,0.0,0.0,0.0,0.0,0.0,0.0,0.0,0.0,0.0,0.0,0.0,0.0,0.0,0.0,0.0,0.0,0.0,0.0,0.0,0.0,0.0,0.0,0.0,0.0,0.0,0.0,0.0,0.0,0.0,0.0,0.0,0.0,0.0,0.0,0.0,0.0,0.0,0.0,0.0,0.0,0.0,0.0,0.0,0.0,0.0,0.0,0.0,0.0,0.0,0.0,0.0,0.0,-2.8184,-3.0586,-3.2793,-3.4473,-3.5781,-3.6562,-3.6562,-3.4238,-3.2598,-3.2129,0.0,0.0,0.0,0.0,0.0,0.0,0.0,0.0,0.0,0.0,0.0,0.0,0.0,0.0,0.0,0.0,0.0,0.0,0.0,0.0,0.0,0.0,0.0,0.0,0.0,0.0,0.0,0.0,0.0,0.0,0.0,0.0,0.0,0.0,0.0,0.0,0.0,0.0,0.0,0.0,0.0,0.0,0.0,0.0,0.0,0.0,0.0,0.0,0.0,0.0,0.0,0.0,0.0,0.0,0.0,0.0,0.0,0.0,0.0,0.0,-2.4394,-2.3828,0.0,0.0,0.0,0.0,0.0,0.0,0.0,0.0,0.0,0.0,0.0,0.0,0.0,0.0,0.0,0.0,0.0,0.0,0.0,0.0,0.0,0.0,0.0,0.0,0.0,0.0,0.0,0.0,0.0,0.0,0.0,0.0,0.0,0.0,0.0,0.0,0.0,0.0,0.0,0.0,-2.8613,-3.0762,-3.2695,-3.4062,-3.5078,-3.5664,-3.5664,-3.3906,-3.2461,-3.1699,-2.9766,0.0,0.0,0.0,0.0,0.0,0.0,0.0,0.0,0.0,0.0,0.0,0.0,0.0,0.0,0.0,0.0,0.0,0.0,0.0,0.0,0.0,0.0,0.0,0.0,0.0,0.0,0.0,0.0,0.0,0.0,0.0,0.0,0.0,0.0,0.0,0.0,0.0,0.0,0.0,0.0,0.0,0.0,0.0,0.0,0.0,0.0,0.0,0.0,0.0,0.0,0.0,0.0,0.0,0.0,0.0,0.0,0.0,0.0,0.0,-2.707,-2.584,0.0,0.0,0.0,0.0,0.0,0.0,0.0,0.0,0.0,0.0,0.0,0.0,0.0,0.0,0.0,0.0,0.0,0.0,0.0,0.0,0.0,0.0,0.0,0.0,0.0,0.0,0.0,0.0,0.0,0.0,0.0,0.0,0.0,0.0,0.0,0.0,0.0,0.0,0.0,0.0,-2.9668,-3.1562,-3.3418,-3.5137,-3.5723,-3.6094,-3.6289,-3.4141,-3.2598,-3.2168,-3.0117,0.0,0.0,0.0,0.0,0.0,0.0,0.0,0.0,0.0,0.0,0.0,0.0,0.0,0.0,0.0,0.0,0.0,0.0,0.0,0.0,0.0,0.0,0.0,0.0,0.0,0.0,0.0,0.0,0.0,0.0,0.0,0.0,0.0,0.0,0.0,0.0,0.0,0.0,0.0,0.0,0.0,0.0,0.0,0.0,0.0,0.0,0.0,0.0,0.0,0.0,0.0,0.0,0.0,-3.0176,-3.1113,-3.209,-3.2598,-3.3027,-3.3223,-3.0879,-2.9082,-2.7793,-2.7559,0.0,0.0,0.0,0.0,0.0,0.0,0.0,0.0,0.0,0.0,0.0,0.0,0.0,0.0,0.0,0.0,0.0,0.0,0.0,0.0,0.0,0.0,-2.8535,-2.9297,-3.0137,-3.0156,-2.7969,0.0,0.0,0.0,0.0,0.0,0.0,0.0,0.0,0.0,0.0,0.0,-3.0898,-3.2539,-3.4316,-3.6348,-3.6562,-3.6699,-3.7051,-3.459,-3.2949,-3.2812,-3.0566,-2.916,0.0,0.0,0.0,0.0,0.0,0.0,0.0,0.0,0.0,0.0,0.0,0.0,0.0,0.0,0.0,0.0,0.0,0.0,0.0,0.0,0.0,0.0,0.0,0.0,0.0,0.0,0.0,0.0,0.0,0.0,0.0,0.0,-2.4326,-2.3442,0.0,0.0,0.0,0.0,0.0,0.0,0.0,0.0,0.0,0.0,0.0,0.0,0.0,-2.9551,-3.0742,-3.1914,-3.2773,-3.332,-3.4199,-3.4512,-3.4316,-3.5137,-3.5547,-3.5605,-3.5957,0.0,-3.084,-2.9707,0.0,0.0,0.0,0.0,0.0,0.0,0.0,0.0,0.0,0.0,0.0,0.0,0.0,0.0,0.0,0.0,0.0,0.0,0.0,0.0,0.0,0.0,-3.1133,-3.1621,-3.2383,-3.2812,-3.2109,-3.0508,-2.9004,-2.8262,-2.8164,-2.8066,0.0,0.0,0.0,0.0,0.0,0.0,-3.1777,-3.3164,-3.4531,-3.5957,-3.6113,-3.6133,-3.6191,-3.4785,-3.3594,-3.2851,-3.1426,-3.0117,-2.8965,-2.8809,0.0,0.0,0.0,0.0,0.0,0.0,0.0,0.0,0.0,0.0,0.0,0.0,0.0,0.0,0.0,0.0,0.0,0.0,0.0,0.0,0.0,0.0,0.0,0.0,0.0,0.0,0.0,0.0,0.0,-2.4598,-2.4602,-2.3257,-2.429,-2.468,0.0,0.0,0.0,0.0,0.0,0.0,0.0,0.0,0.0,-3.0234,-3.168,-3.2617,-3.2949,-3.4238,-3.5215,-3.5898,-3.6758,-3.7461,-3.8008,-3.8867,-3.9277,-3.9297,-3.9668,-3.8457,-3.6016,-3.3242,-3.1407,-3.0039,0.0,0.0,0.0,0.0,-2.9062,-2.9746,-3.0449,-3.0859,-3.1016,-3.082,0.0,0.0,0.0,0.0,0.0,0.0,0.0,-3.0078,-3.1172,-3.2559,-3.3867,-3.4531,-3.5332,-3.5781,-3.5117,-3.4219,-3.2871,-3.0547,-2.9922,-2.9609,-2.916,-2.8887,0.0,0.0,0.0,-3.1113,-3.2363,-3.3867,-3.5215,-3.6269,-3.6387,-3.6387,-3.6387,-3.4961,-3.3906,-3.3535,-3.209,-3.0879,-3.0059,-2.9785,-2.9238,0.0,0.0,0.0,0.0,0.0,0.0,0.0,0.0,0.0,0.0,0.0,0.0,0.0,0.0,0.0,0.0,0.0,0.0,0.0,0.0,0.0,0.0,0.0,0.0,0.0,0.0,0.0,0.0,-2.5,-2.5547,-2.3647,-2.5391,-2.6035,0.0,0.0,0.0,0.0,0.0,0.0,-2.9824,-3.1152,-3.2402,-3.3574,-3.4961,-3.5703,-3.5723,-3.6797,-3.7773,-3.8613,-3.9141,-3.9961,-4.1035,-4.1777,-4.2129,-4.2129,-4.2129,-4.1582,-4.041,-3.6621,-3.4297,-3.3008,-3.1484,-3.0879,-3.0957,-3.1621,-3.2344,-3.3125,-3.4082,-3.4609,-3.4746,-3.3906,-3.3281,-3.2519,-3.0762,0.0,0.0,0.0,0.0,-3.2637,-3.3926,-3.5137,-3.625,-3.7109,-3.7891,-3.8203,-3.7344,-3.707,-3.6035,-3.2793,-3.1914,-3.1484,-3.082,-3.043,0.0,-3.0078,-3.1074,-3.2187,-3.3164,-3.4512,-3.5723,-3.6582,-3.6562,-3.6504,-3.6504,-3.5117,-3.418,-3.4082,-3.2578,-3.1445,-3.0918,-3.0449,-2.9844,-2.9101,0.0,0.0,0.0,0.0,0.0,0.0,0.0,0.0,0.0,0.0,0.0,0.0,0.0,0.0,0.0,0.0,0.0,0.0,0.0,0.0,0.0,0.0,0.0,0.0,0.0,0.0,0.0,0.0,0.0,-2.4609,-2.7324,0.0,0.0,0.0,0.0,-2.8691,-3.0293,-3.166,-3.2559,-3.3809,-3.4922,-3.582,-3.75,-3.8965,-4.0195,-4.0684,-4.1328,-4.2168,-4.1816,-4.1875,-4.2344,-4.2812,-4.3008,-4.3008,-4.3008,-4.2988,-4.2656,-3.916,-3.6973,-3.5742,-3.4805,-3.4434,-3.4453,-3.4492,-3.4824,-3.5234,-3.5312,-3.5351,-3.5605,-3.7129,-3.707,-3.6094,-3.4336,-3.3535,0.0,0.0,-3.4199,-3.4844,-3.6172,-3.7148,-3.8008,-3.8867,-3.9453,-3.9551,-3.8672,-3.8144,-3.709,-3.4453,-3.3926,-3.3516,-3.2285,0.0,-3.1894,-3.1484,-3.2168,-3.3184,-3.4434,-3.5059,-3.5723,-3.6582,-3.6289,-3.6055,-3.6055,-3.5195,-3.4492,-3.4101,-3.2851,-3.1758,-3.0918,-3.0449,-3.0,-2.9551,-2.9141,0.0,0.0,0.0,0.0,0.0,0.0,0.0,0.0,0.0,0.0,0.0,0.0,0.0,0.0,0.0,0.0,0.0,0.0,0.0,0.0,0.0,0.0,0.0,0.0,0.0,0.0,0.0,0.0,-2.7891,-3.0781,0.0,-3.0215,-3.0742,-3.1484,-3.2187,-3.3066,-3.4297,-3.5996,-3.7051,-3.8262,-3.9687,-4.0859,-4.1562,-4.1738,-4.2187,-4.2558,-4.2851,-4.2969,-4.3262,-4.3711,-4.4141,-4.4336,-4.4316,-4.4043,-4.3926,-4.3808,-4.2285,-4.0566,-3.8769,-3.7344,-3.6777,-3.6816,-3.709,-3.7461,-3.793,-3.8496,-3.8691,-3.8613,-3.8086,-3.7168,-3.6133,-3.5508,-3.5215,-3.5234,-3.5937,-3.6445,-3.7012,-3.8027,-3.8945,-3.9668,-3.998,-4.0391,-4.0566,-3.9961,-3.9492,-3.875,-3.7266,-3.5859,-3.4687,-3.3926,-3.3574,-3.3242,-3.2812,-3.3476,-3.418,-3.4648,-3.5351,-3.5918,-3.623,-3.6113,-3.5918,-3.5644,-3.4805,-3.4121,-3.3691,-3.2715,-3.1914,-3.1328,-3.1133,-3.0703,-2.998,-2.9824,-2.9394,0.0,0.0,0.0,0.0,0.0,0.0,0.0,0.0,0.0,0.0,0.0,0.0,0.0,0.0,0.0,0.0,0.0,0.0,0.0,0.0,0.0,0.0,0.0,0.0,0.0,0.0,-3.1367,-3.0918,-3.3652,-3.5019,-3.3574,-3.3965,-3.4726,-3.5723,-3.6348,-3.748,-3.9336,-4.0117,-4.1035,-4.2187,-4.3066,-4.3379,-4.3086,-4.3379,-4.3594,-4.373,-4.3867,-4.418,-4.4629,-4.5195,-4.5371,-4.5234,-4.5098,-4.4961,-4.4785,-4.4336,-4.332,-4.1875,-4.0273,-3.9668,-3.9687,-3.9824,-3.9961,-4.0137,-4.0586,-4.0742,-4.0527,-3.9219,-3.8223,-3.7519,-3.7383,-3.7324,-3.748,-3.8184,-3.8594,-3.8965,-3.9687,-4.0312,-4.0742,-4.0742,-4.0957,-4.1055,-4.0625,-4.0195,-3.9668,-3.8926,-3.7422,-3.6055,-3.5469,-3.5019,-3.4629,-3.4336,-3.4668,-3.498,-3.5117,-3.5664,-3.6016,-3.6016,-3.5898,-3.5625,-3.5195,-3.4355,-3.3672,-3.3242,-3.2422,-3.1816,-3.1523,-3.1387,-3.1035,-3.0449,-3.0273,-2.9844,-2.9141,0.0,0.0,0.0,0.0,0.0,0.0,0.0,0.0,0.0,0.0,0.0,0.0,0.0,0.0,0.0,0.0,0.0,0.0,0.0,0.0,0.0,0.0,0.0,-2.9082,-3.1289,-3.3105,-3.3555,-3.5898,-3.6816,-3.5137,-3.6504,-3.8008,-3.9258,-4.0137,-4.1172,-4.2422,-4.2891,-4.3125,-4.3164,-4.3984,-4.4433,-4.4433,-4.4433,-4.4648,-4.5058,-4.4629,-4.4668,-4.5137,-4.5937,-4.6094,-4.5742,-4.6133,-4.6074,-4.5664,-4.5234,-4.5058,-4.4941,-4.3633,-4.3125,-4.3066,-4.2617,-4.2207,-4.1777,-4.1367,-4.1211,-4.1133,-4.0703,-4.0547,-4.0469,-4.0059,-3.9941,-4.0019,-4.043,-4.0547,-4.0644,-4.1055,-4.1172,-4.1172,-4.1172,-4.1172,-4.1055,-4.0644,-4.0215,-3.9785,-3.9316,-3.8535,-3.7695,-3.6855,-3.6367,-3.6074,-3.6055,-3.5703,0.0,-3.5996,-3.6035,-3.6016,-3.6016,-3.5664,-3.5234,-3.4726,-3.3926,-3.3242,-3.2793,-3.1973,-3.1504,-3.1504,-3.1113,-3.0898,-3.0898,-3.043,-3.0,-2.9646,0.0,0.0,0.0,0.0,0.0,0.0,0.0,0.0,0.0,0.0,0.0,0.0,0.0,0.0,0.0,0.0,0.0,0.0,0.0,0.0,0.0,0.0,-3.2522,-3.1426,-3.4297,-3.6797,-3.7519,-3.9902,-4.1308,-4.082,-4.1484,-4.209,-4.2441,-4.2695,-4.3125,-4.3808,-4.3965,-4.4316,-4.4941,-4.5195,-4.5332,-4.5332,-4.5332,-4.5527,-4.5957,-4.5527,-4.5859,-4.6855,-4.6484,-4.6406,-4.6582,-4.6387,-4.623,-4.6113,-4.5996,-4.5957,-4.582,-4.4531,-4.4043,-4.3984,-4.3516,-4.3086,-4.2715,-4.2598,-4.2148,-4.1601,-4.1484,-4.125,-4.0976,-4.0859,-4.082,-4.084,-4.0957,-4.0996,-4.1016,-4.1152,-4.1172,-4.1172,-4.1172,-4.1172,-4.1133,-4.1016,-4.0664,-4.0215,-3.9785,-3.9238,-3.8574,-3.7734,-3.748,-3.7305,-3.6992,-3.6582,-3.6367,-3.6484,-3.6211,-3.6016,-3.6016,-3.6211,-3.5762,-3.4355,-3.4023,-3.332,-3.1953,-3.1367,-3.1055,-3.1055,-3.0957,-3.0898,-3.0898,-3.043,-3.0137,0.0,0.0,0.0,0.0,0.0,0.0,0.0,0.0,0.0,0.0,0.0,0.0,0.0,0.0,0.0,0.0,0.0,0.0,0.0,0.0,0.0,0.0,-3.459,-3.6445,-3.623,-3.7832,-3.9531,-4.0918,-4.2422,-4.3418,-4.3613,-4.3848,-4.4141,-4.4512,-4.4355,-4.4453,-4.4902,-4.5098,-4.543,-4.5918,-4.6289,-4.6387,-4.6191,-4.6191,-4.623,-4.6289,-4.6055,-4.6328,-4.7031,-4.6719,-4.6601,-4.666,-4.6601,-4.6465,-4.6308,-4.6308,-4.6308,-4.6211,0.0,0.0,0.0,0.0,-4.3281,-4.3027,-4.2656,-4.2226,-4.1777,-4.1601,-4.1367,-4.1172,-4.1172,-4.1172,-4.1172,-4.1172,-4.1172,-4.1172,-4.1172,-4.1172,-4.1172,-4.1172,-4.1172,-4.1172,-4.1172,-4.084,-4.0449,-4.0195,-3.9805,0.0,-3.8574,-3.8164,-3.7832,-3.7598,-3.7207,-3.6934,-3.6934,-3.6719,-3.6484,-3.6309,-3.6348,-3.5762,-3.4199,-3.375,0.0,0.0,0.0,-3.0898,-3.0898,-3.0898,0.0,0.0,0.0,-3.0488,-3.0488,-3.0234,0.0,0.0,-2.9629,-2.9531,0.0,0.0,0.0,0.0,0.0,0.0,0.0,0.0,0.0,0.0,0.0,0.0,0.0,0.0,0.0,0.0,-3.8125,-4.0781,-4.2129,-4.1699,-4.1875,-4.3574,-4.3906,-4.4141,-4.4512,-4.459,-4.4941,-4.5762,-4.5449,-4.543,-4.5859,0.0,0.0,0.0,0.0,-4.7461,-4.707,-4.7031,-4.6836,-4.6523,-4.6426,-4.6426,-4.6523,-4.6797,-4.6719,-4.6387,-4.6719,-4.6641,-4.6308,-4.6308,-4.6269,-4.6191,-4.582,-4.5449,-4.4961,-4.375,-4.3262,-4.3105,-4.2305,0.0,0.0,-4.1387,-4.1211,-4.1172,-4.1172,-4.1172,-4.1172,-4.1172,-4.1172,-4.1172,-4.1172,-4.1172,-4.1172,-4.1172,-4.1172,-4.1172,-4.1172,-4.0879,-4.0586,-4.0527,-4.0215,-3.9824,-3.9355,-3.8594,-3.8047,-3.8008,-3.7637,-3.7344,-3.7305,-3.7266,-3.707,-3.6641,-3.6289,0.0,-3.418,-3.3418,-3.2578,-3.1582,-3.1133,-3.0898,-3.0898,-3.0898,-3.0898,-3.0898,-3.0898,-3.0898,-3.0898,-3.0898,-3.0898,-3.0879,-3.0078,-2.9922,0.0,0.0,0.0,0.0,0.0,0.0,0.0,0.0,0.0,0.0,0.0,0.0,0.0,0.0,0.0,-3.8476,-4.1191,-4.3535,-4.5195,-4.5586,-4.5332,-4.4375,-4.5176,-4.5703,-4.5449,-4.5742,-4.6152,-4.6641,-4.6601,-4.6758,-4.7187,-4.7285,-4.75,-4.7832,-4.8008,-4.8047,-4.7969,-4.7617,-4.7578,-4.7832,-4.7148,0.0,-4.7812,-4.7207,-4.6875,-4.6797,-4.6543,-4.6367,-4.6308,-4.6308,-4.6113,-4.5781,-4.5703,-4.5625,-4.5469,-4.4863,-4.4433,-4.4062,-4.3516,-4.2891,-4.2246,-4.1816,-4.1445,-4.1172,-4.1172,-4.1172,0.0,-4.1172,-4.1172,-4.1172,-4.1172,-4.1172,-4.1172,-4.1172,-4.1172,-4.1172,-4.1172,-4.1113,-4.0937,-4.0586,-4.0449,-4.0273,-3.9844,-3.9316,-3.8848,-3.8496,-3.8086,-3.7676,-3.7344,-3.7012,-3.6621,-3.6191,-3.6387,-3.5879,-3.4219,-3.4238,-3.3516,-3.1641,-3.1133,-3.0898,-3.0898,-3.0898,-3.0898,-3.0898,-3.0898,-3.0898,-3.0898,-3.0898,-3.0898,-3.0879,-3.0723,-3.0684,0.0,0.0,0.0,0.0,0.0,0.0,0.0,0.0,0.0,0.0,0.0,-3.2949,0.0,0.0,-3.9375,-4.1758,-4.3926,-4.5703,-4.6797,-4.75,-4.7344,-4.584,-4.6426,-4.6777,-4.6348,-4.6699,-4.6933,-4.6933,-4.7129,-4.7246,-4.7246,-4.7461,-4.7676,-4.7891,-4.8105,-4.8105,-4.7891,-4.7891,-4.7891,-4.7891,-4.7461,-4.748,-4.7871,-4.7226,-4.6933,-4.6914,-4.6484,-4.6191,-4.5996,-4.5996,-4.5859,-4.5644,-4.543,-4.5215,-4.5,-4.4805,-4.4433,-4.3984,-4.3555,-4.3105,-4.2676,-4.2246,-4.1836,-4.1523,-4.1738,-4.1504,-4.1211,-4.1426,-4.1328,-4.1172,-4.1172,-4.1172,-4.1172,-4.1172,-4.1172,-4.1172,-4.1172,-4.1172,-4.1113,-4.0898,-4.084,-4.0723,-4.0293,-4.0019,-3.9629,-3.8984,-3.8711,-3.8418,-3.7988,-3.7754,-3.7383,-3.6719,-3.6855,-3.6367,-3.4863,-3.4316,-3.3418,-3.1934,-3.1445,-3.1211,-3.1211,-3.0996,-3.0898,-3.0898,-3.0898,-3.0996,-3.1211,-3.0996,-3.1113,-3.1523,-3.1309,-3.1094,0.0,0.0,0.0,0.0,0.0,0.0,0.0,0.0,-3.1719,-3.3535,-3.5234,-3.6894,-3.8496,-4.0508,-4.2578,-4.457,-4.6172,-4.7324,-4.7773,-4.8418,-4.8437,-4.7305,-4.7422,-4.7441,-4.709,-4.7226,-4.7285,-4.7187,-4.7344,-4.7363,-4.7187,-4.7519,-4.7695,-4.7695,-4.8105,-4.8164,-4.7832,-4.8086,-4.8086,-4.7832,-4.7734,-4.7695,-4.7695,-4.7246,-4.7012,-4.6894,-4.6406,-4.5996,-4.5664,-4.5488,-4.543,-4.5391,-4.5039,-4.4648,-4.4277,-4.4355,-4.4219,-4.3887,-4.3379,-4.3203,-4.3125,-4.2598,-4.2207,-4.1973,-4.2226,-4.1836,-4.1348,-4.1601,-4.1426,-4.1172,-4.1172,-4.1172,-4.1172,-4.1172,-4.1172,-4.1172,-4.1172,-4.1172,-4.1172,-4.1172,-4.1172,-4.1055,-4.0703,-4.0644,-4.0312,-3.9336,-3.9199,-3.9023,-3.8516,-3.8457,-3.8125,-3.7266,-3.7168,-3.6699,-3.5488,-3.4258,-3.3223,-3.2461,-3.2012,-3.1719,-3.1641,-3.1309,-3.1133,-3.1133,-3.1133,-3.1309,-3.1641,-3.1309,-3.1484,-3.2168,-3.1816,-3.1465,-2.7744,-2.6934,0.0,-2.8379,-2.9004,-3.0176,0.0,0.0,-3.541,-3.75,-3.9004,-4.0351,-4.168,-4.3379,-4.5039,-4.6426,-4.7441,-4.8223,-4.8652,-4.8808,-4.8672,-4.8125,-4.7773,-4.7558,-4.7519,-4.6855,-4.6894,-4.7988,-4.7402,-4.7305,-4.8027,-4.8105,-4.8144,-4.8144,-4.8555,-4.8769,-4.8711,-4.8379,-4.8379,-4.8711,-4.832,-4.8144,-4.8125,-4.7695,-4.7285,-4.6875,-4.6094,-4.5723,-4.5625,-4.4863,-4.4551,-4.4531,-4.4492,-4.418,-4.3828,-4.4258,-4.4609,-4.4766,-4.3926,-4.3633,-4.3496,-4.2695,-4.2402,-4.2285,-4.1973,-4.1797,-4.166,-4.1328,-4.1211,-4.1172,-4.1172,-4.1172,-4.1172,-4.1172,-4.1172,-4.1172,-4.1172,-4.1172,-4.1172,-4.1172,-4.1172,-4.1152,-4.1113,-4.1094,-4.0664,-3.9394,-3.9199,-3.8906,-3.8105,-3.7988,-3.7676,-3.6836,-3.6738,-3.6367,-3.5469,-3.4531,-3.3789,-3.332,-3.2891,-3.248,-3.2109,-3.2051,-3.2031,-3.2031,-3.2031,-3.2111,-3.209,-3.2111,-3.207,-3.2229,-3.2129,-3.207,-2.8727,0.0,0.0,0.0,-3.1523,-3.3535,-3.5723,-3.7344,-3.8906,-4.0801,-4.2441,-4.3828,-4.4863,-4.6055,-4.7129,0.0,-4.8144,-4.8281,-4.8457,-4.8047,-4.7578,-4.7148,-4.6504,-4.6582,-4.7832,-4.7617,-4.7637,-4.8164,-4.8105,-4.8086,-4.8203,-4.8203,-4.8203,-4.8203,-4.8379,-4.8476,-4.8476,-4.8555,-4.8672,-4.8867,-4.8672,-4.8457,-4.8183,-4.7773,-4.707,-4.6152,-4.5293,-4.4941,-4.4902,-4.4551,-4.4394,-4.4394,-4.4394,-4.4433,-4.4473,-4.4414,-4.4336,-4.4199,-4.3828,-4.3555,-4.3281,-4.293,-4.2461,-4.207,-4.2148,-4.1816,-4.1445,-4.1523,-4.1367,-4.1172,-4.1172,-4.1172,-4.1172,-4.1172,-4.1172,-4.1172,-4.1172,-4.1172,-4.1172,-4.1172,-4.1172,-4.1172,-4.1172,-4.0957,-4.0527,-3.9726,-3.9609,-3.9375,-3.875,-3.8457,-3.7988,-3.7129,-3.6582,-3.6055,-3.5449,-3.4805,-3.4258,-3.3828,-3.3164,-3.2715,-3.2539,-3.2305,-3.2229,-3.2229,-3.2229,-3.2285,-3.2539,-3.2285,-3.2422,-3.2891,-3.2656,-3.2656,-2.8962,0.0,0.0,-3.1465,-3.4043,-3.6601,-3.7891,-4.0039,-4.2148,-4.3516,-4.4883,-4.6074,-4.6797,-4.7344,-4.7812,-4.8262,-4.8164,-4.8027,-4.8027,-4.7305,-4.6601,-4.6172,-4.5254,-4.5312,-4.6992,-4.7266,-4.7578,-4.8164,-4.8281,-4.8281,-4.8223,-4.8203,-4.8203,-4.8203,-4.832,-4.8379,-4.8379,-4.8691,-4.8867,-4.8867,-4.8867,-4.8633,-4.8183,-4.7519,-4.666,-4.5625,-4.4766,-4.4394,-4.4394,-4.4258,-4.4199,-4.4199,-4.4199,-4.4394,-4.4629,-4.4316,-4.4141,-4.4023,-4.3789,-4.3496,-4.3223,-4.2969,-4.248,-4.2012,-4.2207,-4.1836,-4.1387,-4.1562,-4.1406,-4.1172,-4.1172,-4.1172,-4.1172,-4.1172,-4.1172,-4.1172,-4.1172,-4.1172,-4.1172,-4.1172,-4.1172,-4.1172,-4.1172,-4.0918,-4.0566,-4.0137,-3.9961,-3.9687,-3.9101,-3.8555,-3.7949,-3.7207,-3.6465,-3.5859,-3.543,-3.5078,-3.4648,-3.4101,-3.3496,-3.3086,-3.2969,-3.2676,-3.2519,-3.2519,-3.2519,-3.2656,-3.2969,-3.2656,-3.2832,-3.3418,-3.3105,-3.3125,0.0,0.0,-3.1348,-3.3457,-3.625,-3.8828,-4.0117,-4.2734,-4.5019,-4.5508,-4.5957,-4.6426,-4.6855,-4.6621,-4.6504,-4.6914,-4.7324,-4.7598,-4.7598,-4.6855,-4.6172,-4.5742,-4.4531,-4.3945,0.0,-4.4883,-4.5976,-4.8047,-4.7441,-4.7344,-4.8164,-4.8203,-4.8203,-4.8203,-4.8613,-4.8848,-4.8848,-4.8848,-4.8867,-4.8867,-4.8867,-4.8633,-4.8164,-4.6914,-4.6094,-4.5625,-4.4766,-4.4394,-4.4355,-4.3906,-4.373,-4.373,-4.373,-4.373,-4.375,-4.373,-4.4258,-4.4863,-4.4004,-4.3691,-4.3555,-4.2715,-4.2422,-4.2344,-4.1933,-4.1797,-4.1699,-4.1308,-4.1191,-4.1172,-4.1172,-4.1172,-4.1172,-4.1172,-4.1172,-4.1172,-4.1172,-4.1172,-4.1172,-4.1172,-4.1172,-4.1172,-4.1172,-4.1172,-4.1016,-4.0566,-4.0156,-3.959,-3.8711,-3.7851,-3.7168,-3.6738,-3.6289,-3.5859,-3.543,-3.5391,-3.5,-3.4121,-3.4043,-3.3848,-3.3418,-3.3398,-3.3379,-3.3379,-3.3379,-3.3379,-3.3398,-3.3379,-3.3398,-3.3418,-3.3418,-3.3418,0.0,0.0,-3.4805,-3.6934,-3.9746,-4.2402,-4.3984,-4.5586,-4.668,-4.6543,-4.5723,-4.4805,-4.4082,-4.4062,-4.4219,-4.4355,-4.5469,-4.6211,-4.5918,-4.5879,-4.5195,-4.332,-4.3203,0.0,0.0,0.0,0.0,-4.6836,-4.7207,-4.7617,-4.8183,-4.8476,-4.8633,-4.8633,-4.8789,-4.8867,-4.8867,-4.8867,-4.8867,-4.8848,-4.8281,-4.793,-4.7734,-4.6172,-4.5371,-4.5195,-4.4316,-4.3945,-4.3926,-4.3769,-4.3711,-4.3711,-4.3711,-4.3711,-4.3711,-4.3711,-4.3711,-4.3691,-4.3398,-4.291,-4.2402,-4.2109,-4.1816,-4.1562,-4.1426,-4.1387,-4.1348,-4.1211,-4.1172,-4.1172,-4.1172,-4.1172,-4.1172,-4.1172,-4.1172,-4.1172,-4.1172,-4.1172,-4.1172,-4.1172,-4.1172,-4.1172,-4.1172,-4.0937,-4.0488,-3.9766,-3.9531,-3.9219,-3.8652,-3.7832,-3.7246,-3.7109,-3.6445,-3.5957,-3.582,-3.5547,-3.5273,-3.4961,-3.4394,-3.4004,-3.3867,-3.3574,-3.3418,-3.3418,-3.3418,-3.3418,-3.3418,-3.3418,-3.3418,-3.3418,-3.3418,-3.3418,0.0,-3.498,-3.7519,-3.998,-4.2402,-4.4512,-4.5781,-4.6504,-4.6641,-4.5742,-4.4082,-4.2441,-4.1269,-4.0664,-4.0625,-4.1543,-4.2637,-4.3594,-4.4238,-4.4316,-4.373,-4.2207,-4.2246,-4.2187,0.0,0.0,0.0,-4.5937,-4.6855,-4.7598,-4.8183,-4.8613,-4.8867,-4.8867,-4.8867,-4.8867,-4.8867,-4.8867,-4.8867,-4.8848,-4.7988,-4.75,-4.7305,-4.5742,-4.4941,-4.4766,-4.4023,-4.3711,-4.3711,-4.3711,-4.3711,-4.3711,-4.3711,-4.3711,-4.3691,-4.3535,-4.3203,-4.2851,-4.2851,-4.2383,-4.1777,-4.1621,-4.1387,-4.1172,-4.1172,-4.1172,-4.1172,-4.1172,-4.1172,-4.1172,-4.1172,-4.1172,-4.1172,-4.1172,-4.1172,-4.1172,-4.1172,-4.1172,-4.1172,-4.1172,-4.1172,-4.1172,-4.1172,-4.0684,-4.0039,-3.9316,-3.9082,-3.8769,-3.8184,-3.7637,-3.7187,-3.6875,-3.6348,-3.6141,-3.6636,-3.6423,-3.6202,-3.6108,-3.617,-3.5527,-3.4146,-3.4405,-3.4187,-3.3418,-3.3418,-3.3418,-3.3418,-3.3418,-3.3418,-3.3418,-3.3418,-3.3418,-3.5653,-3.748,-3.9531,-4.2422,-4.4101,-4.5156,-4.5547,-4.5566,-4.5019,-4.3242,-4.1133,-3.9316,0.0,0.0,-3.6113,-3.8594,-3.918,-4.0176,-4.2715,-4.2461,-4.2109,0.0,0.0,0.0,0.0,0.0,0.0,-4.5527,0.0,-4.7266,-4.8164,-4.8613,-4.8867,-4.8867,-4.8867,-4.8867,-4.8867,-4.8867,-4.8867,-4.8848,-4.8008,-4.7383,-4.6914,-4.5664,-4.4863,-4.4433,-4.3945,-4.373,-4.373,-4.3711,-4.3711,-4.3711,-4.3691,-4.3691,-4.3652,-4.3223,-4.2812,-4.2461,-4.2441,-4.2129,-4.1699,-4.1308,-4.1172,-4.1172,-4.1172,-4.1191,-4.1211,-4.1211,-4.123,-4.123,-4.1211,-4.1211,-4.1211,-4.1172,-4.1172,-4.1172,-4.1172,-4.1172,-4.1172,-4.1172,-4.1172,-4.125,-4.1288,-4.0582,-3.9876,-3.9554,-3.9121,-3.8498,-3.7461,-3.7324,-3.6992,-3.6308,-3.6103,-3.6562,-3.7968,-3.8012,-3.7801,-3.7551,-3.9041,-3.826,-3.4551,-3.5913,-3.5811,-3.367,-3.367,-3.367,-3.367,-3.367,-3.367,-3.367,-3.367,-3.367,-3.8201,-4.0351,-4.2656,-4.3789,-4.4785,-4.5449,-4.5234,-4.418,-4.2676,-4.0605,-3.7715,-3.5,0.0,0.0,0.0,-3.6094,-3.8789,0.0,-4.2851,-4.4004,0.0,-4.3047,0.0,-4.4141,-4.3144,-4.4043,0.0,0.0,-4.6055,-4.6641,-4.8125,-4.8613,-4.8867,-4.8867,-4.8867,-4.8867,-4.8867,-4.8867,-4.8867,-4.8848,-4.8301,-4.7832,-4.7383,-4.6426,-4.5742,-4.5312,-4.4551,-4.4219,-4.4199,-4.3848,-4.3711,-4.3672,-4.3359,-4.3437,-4.3652,-4.3223,-4.3008,-4.2871,-4.2539,-4.1953,-4.1308,-4.1211,-4.1172,-4.1172,-4.1172,-4.1387,-4.1641,-4.1641,-4.1875,-4.2031,-4.1719,-4.1641,-4.1562,-4.125,-4.1172,-4.1172,-4.1172,-4.1172,-4.1172,-4.1172,-4.1172,-4.1519,-4.2549,-4.2315,-4.2199,-4.3135,-4.2965,-4.1615,-3.8623,-3.7695,-3.7678,-3.8781,-3.7188,-3.7199,-4.0103,-3.9194,-3.8956,-4.0098,-4.0315,-3.9704,-3.8366,-3.8345,-3.7928,-3.6985,-3.6963,-3.6963,-3.6963,-3.6963,-3.6963,-3.6963,-3.6963,-3.6963,-4.1559,-4.3599,-4.5951,-4.5353,-4.5312,-4.5019,-4.3652,-4.1992,-3.9863,-3.6758,-3.4121,0.0,0.0,0.0,0.0,0.0,0.0,0.0,-4.2148,-4.3516,-4.418,0.0,-4.4805,0.0,-4.4629,-4.5234,-4.5996,0.0,-4.6641,-4.7012,-4.8144,-4.8613,-4.8867,-4.8867,-4.8867,-4.8867,-4.8867,-4.8867,-4.8769,-4.8574,-4.832,-4.7793,-4.7012,-4.6523,-4.5976,-4.5371,-4.4883,-4.457,-4.4375,-4.4121,-4.3789,-4.3418,-4.3379,-4.3379,-4.3379,-4.2949,-4.2793,-4.2695,-4.209,-4.1562,-4.1172,-4.1172,-4.1172,-4.1172,-4.1172,-4.1465,-4.1758,-4.1582,-4.1836,-4.2209,-4.2677,-4.2769,-4.2941,-4.3594,-4.3739,-4.3739,-4.3739,-4.3739,-4.3739,-4.3739,-4.3593,-4.3581,-4.4203,-4.3853,-4.3736,-4.4378,-4.4204,-4.3357,-4.1276,-4.0201,-3.9967,-4.0748,-3.9305,-3.9366,-4.2074,-4.1415,-4.1223,-4.2264,-4.2552,-4.1792,-3.9786,-3.9962,-3.9437,-3.8223,-3.8223,-3.8223,-3.8223,-3.8223,-3.8223,-3.8223,-3.8223,-3.8223,-4.4947,-4.6591,-4.8733,-4.6662,-4.541,-4.3984,-4.1348,-3.9258,-3.6719,-3.2578,0.0,-2.9375,-2.8105,0.0,-2.9394,-3.2793,0.0,-3.7051,-4.1289,-4.2402,-4.3379,-4.5,-4.5351,-4.5586,-4.5976,-4.6055,-4.6562,-4.7676,-4.7754,-4.791,-4.8281,-4.8652,-4.8867,-4.8867,-4.8867,-4.8867,-4.8867,-4.8867,-4.8672,-4.8301,-4.8301,-4.7656,-4.6465,-4.6465,-4.6016,-4.5195,-4.5137,-4.4883,-4.4473,-4.4414,-4.3887,-4.3105,-4.3476,-4.3398,-4.3027,-4.2578,-4.2461,-4.2402,-4.1543,-4.125,-4.125,-4.1191,-4.1172,-4.1172,-4.1172,-4.1504,-4.1876,-4.1757,-4.1974,-4.2682,-4.4175,-4.4558,-4.4988,-4.661,-4.7029,-4.7029,-4.7029,-4.7029,-4.7029,-4.7029,-4.662,-4.6244,-4.613,-4.5656,-4.5182,-4.4983,-4.496,-4.4937,-4.4869,-4.3556,-4.2614,-4.2447,-4.1756,-4.2079,-4.3855,-4.3855,-4.3793,-4.4041,-4.4971,-4.3986,-4.0464,-4.1223,-4.0822,-3.8876,-3.8817,-3.8817,-3.8817,-3.8817,-3.8817,-3.8817,-3.8817,-3.8817,-4.7139,-4.7926,-4.9399,-4.6069,-4.4043,-4.2109,-3.916,-3.6328,0.0,0.0,0.0,-2.7168,-2.5859,-2.709,0.0,-3.2402,0.0,0.0,0.0,0.0,-4.4961,0.0,0.0,0.0,0.0,0.0,0.0,0.0,0.0,-4.8672,-4.873,-4.8808,-4.8867,-4.8867,-4.8867,-4.8867,-4.8867,-4.8867,-4.8828,-4.875,-4.875,-4.8262,-4.7363,-4.7363,-4.6894,-4.6055,-4.5703,-4.5312,-4.4883,-4.4551,-4.3887,-4.3086,-4.3164,-4.3144,-4.3027,-4.2578,-4.2656,-4.2851,-4.1992,-4.1699,-4.1641,-4.1289,-4.1172,-4.1172,-4.1172,-4.1699,-4.2526,-4.373,-4.467,-4.5598,-4.6755,-4.706,-4.7024,-4.6994,-4.7029,-4.7029,-4.7029,-4.7029,-4.7029,-4.7029,-4.6888,-4.7196,-4.8334,-4.838,-4.8558,-4.9247,-4.9298,-4.9125,-4.8682,-4.5482,-4.3642,-4.456,-4.299,-4.2916,-4.5635,-4.4497,-4.4312,-4.5732,-4.5595,-4.4985,-4.3777,-4.3491,-4.3002,-4.215,-4.215,-4.215,-4.215,-4.215,-4.215,-4.215,-4.215,-4.215,-4.9323,-4.9931,-5.1017,-4.653,-4.3555,-4.0801,-3.709,0.0,0.0,0.0,0.0,-2.6094,-2.5234,0.0,0.0,0.0,0.0,0.0,0.0,0.0,0.0,0.0,0.0,0.0,0.0,0.0,0.0,0.0,0.0,-4.8867,-4.8867,-4.8867,-4.8867,-4.8867,-4.8867,-4.8867,-4.8867,-4.8867,-4.875,-4.8516,-4.875,-4.8301,-4.7246,-4.748,-4.7109,-4.6289,-4.5859,-4.543,-4.5,-4.457,-4.375,-4.2754,-4.2988,-4.2812,-4.2383,-4.2187,-4.2226,-4.2324,-4.1699,-4.2128,-4.2997,-4.2774,-4.2713,-4.2713,-4.2713,-4.3834,-4.5251,-4.5729,-4.6345,-4.7192,-4.8548,-4.8875,-4.9096,-4.989,-5.0056,-5.0056,-5.0056,-5.0056,-5.0056,-5.0056,-4.9818,-4.986,-5.0523,-5.0392,-5.0389,-5.0813,-5.087,-5.067,-5.0092,-4.8279,-4.7047,-4.7051,-4.5652,-4.5199,-4.657,-4.5698,-4.5403,-4.624,-4.5799,-4.5221,-4.4644,-4.4091,-4.3539,-4.2986,-4.2986,-4.2986,-4.2986,-4.2986,-4.2986,-4.2986,-4.2986,-4.2986,-5.141,-5.2173,-5.3075,-4.7532,-4.3737,-4.0206,-3.5524,-3.2363,0.0,0.0,-2.543,-2.5605,-2.5156,0.0,0.0,0.0,0.0,0.0,0.0,0.0,0.0,0.0,0.0,0.0,0.0,0.0,0.0,0.0,0.0,-4.8867,-4.8867,-4.8867,-4.8867,-4.8867,-4.8867,-4.8867,-4.8867,-4.8867,-4.8633,-4.8203,-4.8555,-4.8086,-4.6933,-4.7285,-4.6973,-4.6152,-4.582,-4.5371,-4.4863,-4.4531,-4.3613,-4.2461,-4.3376,-4.316,-4.2466,-4.2936,-4.3072,-4.3011,-4.2588,-4.3435,-4.4752,-4.4752,-4.4752,-4.4752,-4.4752,-4.6124,-4.7678,-4.7626,-4.7976,-4.8713,-5.0246,-5.0622,-5.0998,-5.256,-5.2929,-5.2929,-5.2929,-5.2929,-5.2929,-5.2929,-5.2578,-5.2277,-5.2277,-5.1925,-5.1599,-5.1473,-5.1448,-5.1247,-5.067,-5.0494,-5.0092,-4.9213,-4.8134,-4.7431,-4.7244,-4.6803,-4.6476,-4.6476,-4.5849,-4.5271,-4.4819,-4.4267,-4.3765,-4.3338,-4.3212,-4.3162,-4.3162,-4.3037,-4.2986,-4.2986,-4.2986,-4.2986,-5.3397,-5.4413,-5.5242,-4.9068,-4.4915,-4.0834,-3.4868,0.0,0.0,0.0,-2.543,-2.5605,-2.5156,-2.5859,0.0,0.0,0.0,0.0,0.0,0.0,0.0,0.0,0.0,0.0,0.0,0.0,0.0,0.0,0.0,-4.8867,-4.8867,-4.8867,-4.8867,-4.8867,-4.8867,-4.8867,-4.8867,-4.8867,-4.8633,-4.8203,-4.8242,-4.7793,-4.6933,-4.6973,-4.6523,-4.5723,-4.5703,-4.5215,-4.4453,-4.4414,-4.3613,-4.2621,-4.4839,-4.5216,-4.4614,-4.6517,-4.7193,-4.7105,-4.6618,-4.6588,-4.6735,-4.6735,-4.6735,-4.6735,-4.6735,-4.7165,-4.7975,-4.9317,-5.0031,-5.0699,-5.2243,-5.2629,-5.2698,-5.2861,-5.2929,-5.2929,-5.2929,-5.2929,-5.2929,-5.2929,-5.2879,-5.2854,-5.2854,-5.2804,-5.2603,-5.2101,-5.2026,-5.1825,-5.1272,-5.0745,-5.0368,-5.0268,-4.9289,-4.841,-4.7883,-4.7355,-4.7054,-4.7054,-4.6075,-4.5472,-4.5422,-4.4844,-4.4518,-4.4468,-4.3991,-4.374,-4.374,-4.3212,-4.2986,-4.2986,-4.2986,-4.2986,-5.3631,-5.4827,-5.4953,-5.0583,-4.5729,-4.0938,-3.6288,0.0,0.0,-2.6878,-2.6116,-2.5858,-2.6472,-2.6275,-2.6367,0.0,0.0,0.0,0.0,0.0,0.0,0.0,0.0,0.0,0.0,0.0,0.0,0.0,0.0,-4.8867,-4.8867,-4.8867,-4.8867,-4.8867,-4.8867,-4.8867,-4.8867,-4.8867,-4.8769,-4.8594,-4.832,-4.7891,-4.7394,-4.8405,-4.8388,-4.7617,-4.8651,-4.8723,-4.8064,-4.7512,-4.6769,-4.6159,-4.6745,-4.6669,-4.6208,-4.6951,-4.7269,-4.7224,-4.7023,-4.7781,-4.8794,-4.8794,-4.9605,-5.0339,-4.9153,-4.9747,-5.0982,-5.1586,-5.1894,-5.2157,-5.2748,-5.2929,-5.2929,-5.2929,-5.2929,-5.2929,-5.2929,-5.2929,-5.2929,-5.2929,-5.2929,-5.2929,-5.2929,-5.2929,-5.2854,-5.2628,-5.2603,-5.2402,-5.185,-5.1574,-5.1172,-5.0494,-4.9439,-4.8686,-4.8435,-4.7908,-4.7456,-4.7093,-4.6728,-4.6175,-4.5522,-4.5271,-4.497,-4.4644,-4.4091,-4.379,-4.379,-4.3237,-4.2986,-4.2986,-4.2986,-4.2986,-5.2696,-5.4551,-5.5081,-5.1747,-4.69,-4.1835,0.0,0.0,0.0,-2.7744,-2.6907,-2.6524,-2.7458,-2.7173,-2.6714,0.0,0.0,0.0,0.0,0.0,0.0,0.0,0.0,0.0,0.0,0.0,0.0,0.0,-4.9564,-4.9656,-4.894,-4.9564,-4.9656,-4.894,-4.8867,-4.8867,-4.8867,-4.873,-4.8613,-4.8476,-4.8027,-4.7878,-4.8014,-4.9197,-4.9554,-4.9179,-5.0373,-5.0646,-5.0054,-4.9205,-4.8745,-4.8463,-4.8566,-4.8287,-4.7999,-4.8506,-4.8722,-4.8722,-4.8722,-4.9677,-5.0857,-5.0857,-5.1816,-5.2629,-5.1303,-5.1816,-5.2929,-5.2929,-5.2929,-5.2929,-5.2929,-5.2929,-5.2929,-5.2929,-5.2929,-5.2929,-5.2929,-5.2929,-5.2929,-5.2929,-5.2929,-5.2929,-5.2929,-5.2929,-5.2929,-5.2929,-5.2929,-5.2779,-5.2402,-5.2201,-5.1724,-5.077,-4.9816,-4.9188,-4.9038,-4.8485,-4.8008,-4.7631,-4.7456,-4.7004,-4.6225,-4.605,-4.5773,-4.5372,-4.4669,-4.4217,-4.4041,-4.3489,-4.3137,-4.2986,-4.2986,-4.2986,-5.0278,-5.3638,-5.6104,-5.2474,-4.8598,-4.4001,0.0,0.0,0.0,-2.7872,-2.76,-2.7579,-2.76,-2.8588,-2.8693,-2.6735,-2.8117,0.0,0.0,0.0,0.0,0.0,0.0,0.0,0.0,0.0,0.0,0.0,-5.1055,0.0,-4.9032,-5.1055,-5.1326,-4.894,-4.8867,-4.8867,-4.8867,-4.8437,-4.8008,-4.7578,-4.7148,-4.7581,-4.8798,-4.8777,-4.9154,-4.9775,-4.983,-4.9562,-4.9049,-4.8557,-4.8356,-4.8613,-5.0039,-5.0341,-5.0198,-5.2119,-5.2861,-5.2861,-5.2861,-5.2861,-5.2861,-5.2861,-5.2861,-5.2929,-5.2861,-5.2861,-5.2929,-5.2929,-5.2929,-5.2929,-5.2929,-5.2929,-5.2929,-5.2929,-5.2929,-5.2929,-5.2929,-5.2929,-5.2929,-5.2929,-5.2929,-5.2929,-5.2929,-5.2929,-5.2929,-5.2929,-5.2929,-5.2929,-5.2929,-5.2452,-5.19,-5.1322,-5.0745,-5.0167,-4.964,-4.9088,-4.8761,-4.8761,-4.8209,-4.7883,-4.7883,-4.738,-4.7043,-4.7043,-4.6024,-4.5196,-4.4618,-4.4066,-4.3514,-4.2986,-4.2986,-4.2986,-4.6276,-4.8636,-4.9846,-4.8343,-4.5157,-4.1353,-3.7664,0.0,0.0,-3.017,-2.8773,-2.8096,-2.9761,-2.8567,-2.7973,-2.9839,-3.0461,-3.1126,0.0,0.0,0.0,0.0,0.0,0.0,0.0,0.0,0.0,0.0,-5.053,-5.1055,-5.3526,-5.2902,-5.1326,-4.894,-4.8574,-4.9108,-5.0674,-5.0224,-5.071,-5.2089,-5.1273,-5.1073,-5.1498,-5.2407,-5.2405,-5.199,-5.3552,-5.3666,-5.2793,-5.2235,-5.2017,-5.204,-5.2119,-5.2104,-5.205,-5.2629,-5.2929,-5.2929,-5.2929,-5.2929,-5.2929,-5.2929,-5.2929,-5.2929,-5.2929,-5.2929,-5.2929,-5.2929,-5.2929,-5.2929,-5.2929,-5.2929,-5.2929,-5.2929,-5.2929,-5.2929,-5.2929,-5.2929,-5.2929,-5.2929,-5.2929,-5.2929,-5.2929,-5.2929,-5.2929,-5.2929,-5.2929,-5.2929,-5.2929,-5.2452,-5.19,-5.1348,-5.077,-5.0193,-4.964,-4.9439,-4.9163,-4.8786,-4.8234,-4.7757,-4.738,-4.6853,-4.6577,-4.6577,-4.5472,-4.4995,-4.5221,-4.4267,-4.3915,-4.4091,-4.4091,-4.4091,0.0,-4.4719,-4.61,-4.5748,-4.3128,0.0,0.0,0.0,0.0,0.0,0.0,-2.8866,-3.0866,-2.9753,-2.9117,-3.0942,-3.1761,-3.2271,0.0,0.0,0.0,0.0,0.0,0.0,0.0,0.0,0.0,-5.2297,-5.2613,-5.3771,-5.5792,-5.5156,-5.3667,-5.1329,-5.095,-5.124,-5.2173,-5.1788,-5.2148,-5.3298,-5.2578,-5.2403,-5.2822,-5.3561,-5.3688,-5.3253,-5.4663,-5.4863,0.0,-5.3632,-5.3532,-5.3658,-5.313,-5.2929,-5.2929,-5.2929,-5.2929,-5.2929,-5.2929,-5.2929,-5.2929,-5.2929,-5.2929,-5.2929,-5.2929,-5.2929,-5.2929,-5.2929,-5.2929,-5.2929,-5.2929,-5.2929,-5.2929,-5.2929,-5.2929,-5.2929,-5.2929,-5.2929,-5.2929,-5.2929,-5.2929,-5.2929,-5.2929,-5.2929,-5.2929,-5.2929,-5.2929,-5.2929,-5.2929,-5.2628,-5.2201,-5.1649,-5.1071,-5.0519,-4.9941,-4.9715,-4.9364,-4.8812,-4.8435,-4.7983,-4.7456,-4.6903,-4.6627,-4.6627,-4.5723,-4.5347,-4.5497,-4.4568,-4.4292,-4.4618,-4.4618,-4.4618,0.0,0.0,0.0,0.0,0.0,0.0,0.0,0.0,0.0,0.0,0.0,0.0,0.0,-3.1746,-3.1783,-3.0854,-3.2439,-3.3654,0.0,0.0,0.0,0.0,0.0,0.0,0.0,0.0,0.0,-5.2902,-5.67,-5.829,-5.6486,-5.7714,-5.7556,-5.5433,-5.5325,-5.4767,-5.3616,-5.3078,-5.2645,-5.2232,-5.1818,-5.212,-5.3104,-5.3056,-5.3302,-5.3708,-5.3708,-5.3683,-5.3607,-5.313,-5.3206,-5.3607,-5.3105,-5.2929,-5.2929,-5.2929,-5.2929,-5.2929,-5.2929,-5.2929,-5.2929,-5.2929,-5.2929,-5.2929,-5.2929,-5.2929,-5.2929,-5.2929,-5.2929,-5.2929,-5.2929,-5.2929,-5.2929,-5.2929,-5.2929,-5.2929,-5.2929,-5.2929,-5.2929,-5.2929,-5.2929,-5.2929,-5.2929,-5.2929,-5.2929,-5.2929,-5.2929,-5.2929,-5.2929,-5.2904,-5.2653,-5.2101,-5.1548,-5.0996,-5.0419,-4.9891,-4.9364,-4.8862,-4.8761,-4.846,-4.7933,-4.738,-4.7018,-4.7018,-4.6577,-4.605,-4.5497,-4.4995,-4.4744,-4.4744,-4.4744,-4.4744,-3.5403,0.0,-3.7061,-3.7061,-3.6558,0.0,0.0,0.0,0.0,0.0,0.0,0.0,0.0,0.0,-3.2644,-3.5161,-3.5838,-3.6365,0.0,0.0,0.0,0.0,0.0,0.0,0.0,0.0,0.0,-5.7583,-5.7068,-5.8034,-6.0993,-5.9522,-5.8684,-5.9047,-5.8631,-5.7469,-5.5415,-5.4583,-5.4687,-5.582,-5.5282,-5.4992,-5.4791,-5.4369,-5.4035,-5.3708,-5.3708,-5.3482,-5.3105,-5.298,-5.3005,-5.3105,-5.298,-5.2929,-5.2929,-5.2929,-5.2929,-5.2929,-5.2929,-5.2929,-5.2929,-5.2929,-5.2929,-5.2929,-5.2929,-5.2929,-5.2929,-5.2929,-5.2929,-5.2929,-5.2929,-5.2929,-5.2929,-5.2929,-5.2929,-5.2929,-5.2929,-5.2929,-5.2929,-5.2929,-5.2929,-5.2929,-5.2929,-5.2929,-5.2929,-5.2929,-5.2929,-5.2929,-5.2929,-5.2553,-5.2076,-5.1548,-5.0971,-5.0393,-4.9841,-4.9665,-4.954,-4.9414,-4.8586,-4.8058,-4.7908,-4.7004,-4.6502,-4.6502,-4.6376,-4.605,-4.5497,-4.5773,-4.5924,-4.5924,-4.5924,-4.5924,-3.3872,-3.4349,-3.4851,-3.5353,-3.5102,-3.465,0.0,0.0,0.0,0.0,0.0,0.0,0.0,0.0,0.0,0.0,-3.699,0.0,0.0,0.0,0.0,0.0,0.0,0.0,0.0,0.0,-5.7949,-5.9222,-5.9161,-6.0038,-6.2283,-6.0464,-5.9466,-5.9882,-5.8905,-5.7719,-5.6517,-5.5689,-5.5656,-5.6269,-5.5717,-5.5164,-5.4612,-5.431,-5.3858,-5.3356,-5.3356,-5.3181,-5.2929,-5.2929,-5.2929,-5.2929,-5.2929,-5.2929,-5.2929,-5.2929,-5.2929,-5.2929,-5.2929,-5.2929,-5.2929,-5.2929,-5.2929,-5.2929,-5.2929,-5.2929,-5.2929,-5.2929,-5.2929,-5.2929,-5.2929,-5.2929,-5.2929,-5.2929,-5.2929,-5.2929,-5.2929,-5.2929,-5.2929,-5.2929,-5.2929,-5.2929,-5.2929,-5.2929,-5.2929,-5.2929,-5.2929,-5.2929,-5.2929,-5.2678,-5.2377,-5.2076,-5.1297,-5.0695,-5.0393,-4.9891,-4.949,-4.9238,-4.8636,-4.8083,-4.7581,-4.7004,-4.6577,-4.6326,-4.6301,-4.6175,-4.5874,-4.6175,-4.6301,-4.6301,-4.6301,-4.6301,-3.352,-3.4148,-3.5002,-3.5726,-3.5228,-3.46,0.0,0.0,0.0,0.0,0.0,0.0,0.0,0.0,0.0,0.0,0.0,0.0,0.0,0.0,0.0,0.0,0.0,0.0,0.0,-5.9955,-5.9835,-5.9835,-6.1532,-6.237,-6.1893,-6.0663,-5.9684,-5.9131,-5.76,-5.6746,-5.6646,-5.6269,-5.5767,-5.5114,-5.4662,-5.4135,-5.3582,-5.3582,-5.3331,-5.2929,-5.2929,-5.2929,-5.2929,-5.2929,-5.2929,-5.2929,-5.2929,-5.2929,-5.2929,-5.2929,-5.2929,-5.2929,-5.2929,-5.2929,-5.2929,-5.2929,-5.2929,-5.2929,-5.2929,-5.2929,-5.2929,-5.2929,-5.2929,-5.2929,-5.2929,-5.2929,-5.2929,-5.2929,-5.2929,-5.2929,-5.2929,-5.2929,-5.2929,-5.2929,-5.2929,-5.2929,-5.2929,-5.2929,-5.2929,-5.2929,-5.2929,-5.2929,-5.2929,-5.2929,-5.2904,-5.2804,-5.19,-5.1247,-5.1147,-5.0193,-4.9389,-4.8937,-4.8812,-4.8309,-4.7305,-4.7118,-4.6892,-4.6552,-4.6401,-4.6401,-4.6552,-4.6376,-4.6351,-4.6426,-4.6351,-4.6301,-3.4756,-3.5232,-3.5082,-3.3897,-3.3796,-3.4022,0.0,0.0,0.0,0.0,0.0,0.0,0.0,0.0,0.0,0.0,0.0,0.0,0.0,0.0,0.0,0.0,0.0,0.0,0.0,-6.1509,-6.2306,-6.2306,-6.1782,-6.1391,-6.1316,-5.9382,-5.8001,-5.7424,-5.6269,-5.5415,-5.4938,-5.5315,-5.4988,-5.3959,-5.3884,-5.3557,-5.3055,-5.3055,-5.3005,-5.2929,-5.2929,-5.2929,-5.2929,-5.2929,-5.2929,-5.2929,-5.2929,-5.2929,-5.2929,-5.2929,-5.2929,-5.2929,-5.2929,-5.2929,-5.2929,-5.2929,-5.2929,-5.2929,-5.2929,-5.2929,-5.2929,-5.2929,-5.2929,-5.2929,-5.2929,-5.2929,-5.2929,-5.2929,-5.2929,-5.2929,-5.2929,-5.2929,-5.2929,-5.2929,-5.2929,-5.2929,-5.2929,-5.2929,-5.2929,-5.2929,-5.2929,-5.2929,-5.2929,-5.2929,-5.2754,-5.2277,-5.1649,-5.1071,-5.0594,-4.9967,-4.9565,-4.9464,-4.9038,-4.8485,-4.7807,-4.7355,-4.7305,-4.7657,-4.6778,-4.6753,-4.7657,-4.6753,-4.6552,-4.7004,-4.6527,-4.6301,-3.4098,-3.4424,-3.455,-3.4073,-3.46,-3.5152,0.0,0.0,0.0,0.0,0.0,0.0,0.0,0.0,0.0,0.0,0.0,0.0,0.0,0.0,0.0,0.0,0.0,0.0,-6.2144,-6.2295,-6.2395,-6.2395,-6.1341,-6.0588,-6.0286,-5.8453,-5.7173,-5.662,-5.5516,-5.4662,-5.411,-5.4361,-5.421,-5.3708,-5.3406,-5.3155,-5.2929,-5.2929,-5.2929,-5.2929,-5.2929,-5.2929,-5.2929,-5.2929,-5.2929,-5.2929,-5.2929,-5.2929,-5.2929,-5.2929,-5.2929,-5.2929,-5.2929,-5.2929,-5.2929,-5.2929,-5.2929,-5.2929,-5.2929,-5.2929,-5.2929,-5.2929,-5.2929,-5.2929,-5.2929,-5.2929,-5.2929,-5.2929,-5.2929,-5.2929,-5.2929,-5.2929,-5.2929,-5.2929,-5.2929,-5.2929,-5.2929,-5.2929,-5.2929,-5.2929,-5.2929,-5.2929,-5.2929,-5.2929,-5.2829,-5.2578,-5.18,-5.1172,-5.0921,-5.0092,-4.959,-4.959,-4.9088,-4.8661,-4.8385,-4.7857,-4.7657,-4.7908,-4.7431,-4.7405,-4.7908,-4.7405,-4.7305,-4.7556,-4.728,-4.7179,-3.3495,-3.3771,-3.4248,-3.4926,0.0,0.0,0.0,0.0,0.0,0.0,0.0,0.0,0.0,0.0,0.0,0.0,0.0,0.0,0.0,0.0,0.0,-6.1969,-6.1818,-6.2019,-6.3199,-6.2395,-6.1743,-6.1617,-6.0563,-5.9633,-5.8956,-5.7349,-5.6194,-5.5641,-5.4687,-5.3959,-5.3532,-5.3507,-5.3507,-5.3507,-5.313,-5.2929,-5.2929,-5.2929,-5.2929,-5.2929,-5.2929,-5.2929,-5.2929,-5.2929,-5.2929,-5.2929,-5.2929,-5.2929,-5.2929,-5.2929,-5.2929,-5.2929,-5.2929,-5.2929,-5.2929,-5.2929,-5.2929,-5.2929,-5.2929,-5.2929,-5.2929,-5.2929,-5.2929,-5.2929,-5.2929,-5.2929,-5.2929,-5.2929,-5.2929,-5.2929,-5.2929,-5.2929,-5.2929,-5.2929,-5.2929,-5.2929,-5.2929,-5.2929,-5.2929,-5.2929,-5.2929,-5.2929,-5.2929,-5.2929,-5.2929,-5.2929,-5.195,-5.1222,-5.1096,-5.0293,-4.9841,-4.9992,-4.9464,-4.9113,-4.8962,-4.8535,-4.8309,-4.8309,-4.8033,-4.8033,-4.8309,-4.8033,-4.7983,-4.8109,-4.7983,-4.7908,-3.4324,-3.4625,-3.4926,-3.5981,0.0,0.0,0.0,0.0,0.0,0.0,0.0,0.0,0.0,0.0,0.0,0.0,0.0,0.0,0.0,0.0,-6.3149,-6.2797,-6.2747,-6.2546,-6.2169,-6.1592,-6.1014,-6.0487,-5.9433,-5.8353,-5.7273,-5.5641,-5.4486,-5.3909,-5.3331,-5.303,-5.298,-5.298,-5.298,-5.298,-5.2955,-5.2929,-5.2929,-5.2929,-5.2929,-5.2929,-5.2929,-5.2929,-5.2929,-5.2929,-5.2929,-5.2929,-5.2929,-5.2929,-5.2929,-5.2929,-5.2929,-5.2929,-5.2929,-5.2929,-5.2929,-5.2929,-5.2929,-5.2929,-5.2929,-5.2929,-5.2929,-5.2929,-5.2929,-5.2929,-5.2929,-5.2929,-5.2929,-5.2929,-5.2929,-5.2929,-5.2929,-5.2929,-5.2929,-5.2929,-5.2929,-5.2929,-5.2929,-5.2929,-5.2929,-5.2929,-5.2929,-5.2929,-5.2929,-5.2929,-5.2929,-5.2929,-5.195,-5.1071,-5.0519,-5.0393,-5.0594,-5.1122,-5.0619,-5.0067,-4.9565,-4.949,-4.9464,-4.9464,-4.8435,-4.8435,-4.9464,-4.8435,-4.8184,-4.8686,-4.8159,-4.7908,-3.3596,-3.4198,-3.4856,-3.5655,0.0,0.0,0.0,0.0,0.0,0.0,0.0,0.0,0.0,0.0,0.0,0.0,0.0,0.0,0.0,0.0,-6.2948,-6.2395,-6.232,-6.1943,-6.104,-6.0462,-5.991,-5.9357,-5.8303,-5.7323,-5.657,-5.529,-5.4285,-5.3708,-5.3206,-5.2929,-5.2929,-5.2929,-5.2929,-5.2929,-5.2929,-5.2929,-5.2929,-5.2929,-5.2929,-5.2929,-5.2929,-5.2929,-5.2929,-5.2929,-5.2929,-5.2929,-5.2929,-5.2929,-5.2929,-5.2929,-5.2929,-5.2929,-5.2929,-5.2929,-5.2929,-5.2929,-5.2929,-5.2929,-5.2929,-5.2929,-5.2929,-5.2929,-5.2929,-5.2929,-5.2929,-5.2929,-5.2929,-5.2929,-5.2929,-5.2929,-5.2929,-5.2929,-5.2929,-5.2929,-5.2929,-5.2929,-5.2929,-5.2929,-5.2929,-5.2929,-5.2929,-5.2929,-5.2929,-5.2929,-5.2929,-5.2929,-5.2251,-5.1574,-5.0996,-5.0946,-5.1046,-5.1272,-5.1071,-5.087,-5.0645,-5.0645,-5.0645,-5.0645,-5.0218,-5.0042,-5.0117,-4.9665,-4.9414,-4.9289,-4.9063,-4.8962,-3.3111,-3.3746,-3.465,0.0,0.0,0.0,0.0,0.0,0.0,0.0,0.0,0.0,0.0,0.0,0.0,0.0,0.0,0.0,0.0,0.0,-6.2094,-6.1542,-6.1165,-6.0663,-5.9885,-5.9156,-5.8504,-5.7976,-5.7047,-5.6194,-5.5465,-5.4712,-5.4034,-5.3482,-5.3105,-5.2929,-5.2929,-5.2929,-5.2929,-5.2929,-5.2929,-5.2929,-5.2929,-5.2929,-5.2929,-5.2929,-5.2929,-5.2929,-5.2929,-5.2929,-5.2929,-5.2929,-5.2929,-5.2929,-5.2929,-5.2929,-5.2929,-5.2929,-5.2929,-5.2929,-5.2929,-5.2929,-5.2929,-5.2929,-5.2929,-5.2929,-5.2929,-5.2929,-5.2929,-5.2929,-5.2929,-5.2929,-5.2929,-5.2929,-5.2929,-5.2929,-5.2929,-5.2929,-5.2929,-5.2929,-5.2929,-5.2929,-5.2929,-5.2929,-5.2929,-5.2929,-5.2929,-5.2929,-5.2929,-5.2929,-5.2854,-5.2678,-5.2327,-5.195,-5.1574,-5.1548,-5.1624,-5.18,-5.18,-5.1649,-5.1297,-5.1448,-5.1373,-5.1021,-5.0996,-5.082,-5.0419,-5.0243,-5.0067,-4.9841,-4.9665,-4.959,-3.3136,-3.3495,0.0,0.0,0.0,0.0,0.0,0.0,0.0,0.0,0.0,0.0,0.0,0.0,0.0,0.0,0.0,0.0,0.0,-6.1517,-6.0939,-6.0362,-5.9357,-5.8704,-5.8704,-5.7675,-5.6796,-5.6244,-5.5691,-5.4888,-5.3758,-5.3708,-5.3457,-5.2955,-5.2929,-5.2929,-5.2929,-5.2929,-5.2929,-5.2929,-5.2904,-5.2929,-5.2929,-5.2929,-5.2929,-5.2929,-5.2929,-5.2929,-5.2929,-5.2929,-5.2929,-5.2929,-5.2929,-5.2929,-5.2929,-5.2929,-5.2929,-5.2929,-5.2929,-5.2929,-5.2929,-5.2929,-5.2929,-5.2929,-5.2929,-5.2929,-5.2929,-5.2929,-5.2929,-5.2929,-5.2929,-5.2929,-5.2929,-5.2929,-5.2929,-5.2929,-5.2929,-5.2929,-5.2929,-5.2929,-5.2929,-5.2929,-5.2929,-5.2929,-5.2929,-5.2929,-5.2929,-5.2929,-5.2929,-5.2929,-5.2729,-5.2176,-5.2126,-5.2126,-5.2126,-5.2126,-5.2352,-5.2904,-5.2929,-5.2427,-5.1348,-5.1825,-5.1574,-5.0469,-5.0444,-5.0444,-5.0444,-4.9891,-4.9891,-5.0419,-4.9866,-4.9615,-3.3545,0.0,0.0,0.0,0.0,0.0,0.0,0.0,0.0,0.0,0.0,0.0,0.0,0.0,0.0,-5.4963,-5.7976,-6.0362,-6.0763,-6.0337,-5.9784,-5.9257,-5.8227,-5.7374,-5.6997,-5.6294,-5.5641,-5.5089,-5.4913,-5.4486,-5.3733,-5.3708,-5.3457,-5.2955,-5.2929,-5.2929,-5.2929,-5.2553,-5.2352,-5.2352,-5.195,-5.2176,-5.2929,-5.2929,-5.2929,-5.2904,-5.2528,-5.2352,-5.2352,-5.2352,-5.2578,-5.2929,-5.2929,-5.2929,-5.2929,-5.2929,-5.2929,-5.2929,-5.2929,-5.2929,-5.2929,-5.2929,-5.2929,-5.2929,-5.2929,-5.2929,-5.2929,-5.2929,-5.2929,-5.2929,-5.2929,-5.2929,-5.2929,-5.2929,-5.2929,-5.2929,-5.2929,-5.2929,-5.2929,-5.2929,-5.2929,-5.2929,-5.2929,-5.2929,-5.2929,-5.2929,-5.2929,-5.2929,-5.2929,-5.2929,-5.2854,-5.2703,-5.2678,-5.2678,-5.2678,-5.2678,-5.2754,-5.2929,-5.2929,-5.2779,-5.2452,-5.2603,-5.2528,-5.2201,-5.2176,-5.2,-5.1599,-5.1448,-5.1247,-5.1021,-5.0444,-5.0167,0.0,0.0,0.0,0.0,0.0,0.0,0.0,0.0,0.0,0.0,0.0,0.0,0.0,0.0,0.0,-5.544,-5.76,-5.9307,-5.9633,-5.9207,-5.8579,-5.7801,-5.6922,-5.6168,-5.5616,-5.5039,-5.4587,-5.4235,-5.4034,-5.3758,-5.3406,-5.3181,-5.303,-5.2929,-5.2503,-5.2377,-5.2603,-5.2051,-5.1774,-5.1774,-5.1448,-5.1624,-5.2277,-5.2277,-5.2402,-5.2578,-5.2026,-5.1774,-5.18,-5.2026,-5.2302,-5.2628,-5.2854,-5.2929,-5.2929,-5.2929,-5.2929,-5.2929,-5.2929,-5.2929,-5.2879,-5.2678,-5.2754,-5.2879,-5.2678,-5.2754,-5.2929,-5.2929,-5.2929,-5.2929,-5.2929,-5.2929,-5.2929,-5.2929,-5.2929,-5.2929,-5.2929,-5.2929,-5.2929,-5.2929,-5.2929,-5.2929,-5.2929,-5.2929,-5.2929,-5.2929,-5.2929,-5.2929,-5.2929,-5.2929,-5.2929,-5.2929,-5.2929,-5.2929,-5.2929,-5.2929,-5.2929,-5.2929,-5.2929,-5.2929,-5.2929,-5.2729,-5.2603,-5.2603,-5.2377,-5.2226,-5.2101,-5.1875,-5.1724,-5.1599,-5.1021,-5.0645,0.0,0.0,0.0,0.0,0.0,0.0,0.0,0.0,0.0,0.0,0.0,0.0,0.0,0.0,-5.4511,-5.6545,-5.7775,-5.8504,-5.8554,-5.8052,-5.7298,-5.6269,-5.5591,-5.5039,-5.4536,-5.3959,-5.3632,-5.3632,-5.3155,-5.2854,-5.2854,-5.2327,-5.2251,-5.2754,-5.18,-5.1523,-5.2026,-5.1423,-5.1122,-5.1122,-5.1021,-5.0996,-5.1046,-5.1222,-5.1523,-5.1925,-5.1423,-5.1197,-5.1247,-5.1749,-5.1975,-5.2076,-5.2628,-5.2854,-5.2854,-5.2904,-5.2929,-5.2929,-5.2879,-5.2854,-5.2754,-5.2201,-5.2377,-5.2678,-5.2176,-5.2427,-5.2854,-5.2854,-5.2879,-5.2929,-5.2929,-5.2929,-5.2929,-5.2929,-5.2929,-5.2929,-5.2929,-5.2929,-5.2929,-5.2929,-5.2929,-5.2929,-5.2929,-5.2929,-5.2929,-5.2929,-5.2929,-5.2929,-5.2929,-5.2929,-5.2929,-5.2929,-5.2929,-5.2929,-5.2929,-5.2929,-5.2929,-5.2929,-5.2929,-5.2929,-5.2929,-5.2452,-5.2176,-5.2176,-5.1674,-5.1674,-5.2176,-5.1674,-5.1699,-5.2176,-5.1599,-5.1071,0.0,0.0,0.0,0.0,0.0,0.0,0.0,0.0,0.0,0.0,0.0,0.0,0.0,0.0,-5.5189,-5.5666,-5.6319,-5.6897,-5.7349,-5.6545,-5.5842,-5.5591,-5.4687,-5.4009,-5.3909,-5.3406,-5.308,-5.308,-5.2603,-5.2277,-5.2277,-5.1749,-5.1498,-5.1624,-5.1398,-5.1348,-5.1448,-5.0469,-4.9967,-4.9941,-4.9063,-4.8862,-4.9364,-5.067,-5.1096,-5.077,-5.0645,-5.0594,-5.0619,-5.072,-5.1046,-5.1523,-5.2076,-5.2277,-5.2327,-5.2779,-5.2929,-5.2854,-5.2427,-5.2277,-5.2176,-5.1649,-5.1548,-5.1599,-5.1498,-5.185,-5.2277,-5.2277,-5.2603,-5.2929,-5.2929,-5.2929,-5.2929,-5.2929,-5.2929,-5.2929,-5.2929,-5.2929,-5.2929,-5.2929,-5.2929,-5.2929,-5.2929,-5.2929,-5.2929,-5.2929,-5.2929,-5.2929,-5.2929,-5.2929,-5.2929,-5.2929,-5.2929,-5.2929,-5.2929,-5.2929,-5.2929,-5.2929,-5.2929,-5.2929,-5.2929,-5.2804,-5.2754,-5.2754,-5.2628,-5.2628,-5.2754,-5.2628,-5.2628,-5.2729,-5.2176,-5.1875,0.0,0.0,0.0,0.0,0.0,0.0,0.0,0.0,0.0,0.0,0.0,0.0,0.0,0.0,-5.4988,-5.4988,-5.5239,-5.5516,-5.5817,-5.5365,-5.4888,-5.4612,-5.4059,-5.3607,-5.3356,-5.2854,-5.2528,-5.2528,-5.2026,-5.1699,-5.1699,-5.0921,-5.0594,-5.087,-5.0092,-4.9791,-5.0067,-4.9213,-4.8786,-4.8786,-4.8184,-4.8058,-4.841,-4.9565,-4.9766,-4.9213,-4.9213,-4.9364,-4.964,-4.9916,-5.0368,-5.0921,-5.1498,-5.1699,-5.1749,-5.2026,-5.2126,-5.2101,-5.18,-5.1699,-5.1624,-5.1046,-5.1046,-5.1222,-5.0946,-5.1448,-5.2101,-5.2101,-5.2503,-5.2929,-5.2929,-5.2929,-5.2929,-5.2929,-5.2929,-5.2929,-5.2929,-5.2929,-5.2929,-5.2929,-5.2929,-5.2929,-5.2929,-5.2929,-5.2929,-5.2929,-5.2929,-5.2929,-5.2929,-5.2929,-5.2929,-5.2929,-5.2929,-5.2929,-5.2929,-5.2929,-5.2929,-5.2929,-5.2929,-5.2929,-5.2929,-5.2929,-5.2929,-5.2929,-5.2678,-5.2653,-5.2929,-5.2929,-5.2929,-5.2929,-5.2628,-5.2352,0.0,0.0,0.0,0.0,0.0,0.0,0.0,0.0,0.0,0.0,0.0,0.0,0.0,0.0,-5.431,-5.4411,-5.4336,-5.431,-5.4411,-5.4336,-5.411,-5.3632,-5.3482,-5.3256,-5.2829,-5.2277,-5.1925,-5.1825,-5.1297,-5.0946,-5.0845,-4.9866,-4.9515,-4.9967,-4.8636,-4.8109,-4.8485,-4.7933,-4.7581,-4.7481,-4.738,-4.738,-4.7506,-4.7983,-4.8109,-4.7908,-4.8008,-4.8335,-4.8812,-4.9364,-4.9866,-5.0318,-5.0921,-5.1122,-5.1147,-5.1247,-5.1272,-5.1272,-5.1172,-5.1122,-5.1046,-5.0469,-5.0594,-5.0896,-5.0419,-5.0996,-5.1825,-5.1925,-5.2352,-5.2804,-5.2904,-5.2929,-5.2929,-5.2929,-5.2929,-5.2929,-5.2929,-5.2929,-5.2929,-5.2929,-5.2929,-5.2929,-5.2929,-5.2929,-5.2929,-5.2929,-5.2929,-5.2929,-5.2929,-5.2929,-5.2929,-5.2929,-5.2929,-5.2929,-5.2929,-5.2929,-5.2929,-5.2929,-5.2929,-5.2929,-5.2929,-5.2929,-5.2929,-5.2929,-5.2477,-5.2477,-5.2929,-5.2929,-5.2929,-5.2929,-5.2929,-5.2678,0.0,0.0,0.0,0.0,0.0,0.0,0.0,0.0,0.0,0.0,0.0,0.0,0.0,-5.3155,-5.3281,-5.3733,-5.3432,-5.3306,-5.3758,-5.3432,-5.313,-5.303,-5.2603,-5.2302,-5.2226,-5.1724,-5.1172,-5.067,-5.0142,-4.9615,-4.9138,-4.8485,-4.8159,-4.8234,-4.8033,-4.7732,-4.7355,-4.6803,-4.6276,-4.5799,-4.5296,-4.5321,-4.5824,-4.5899,-4.6652,-4.7933,-4.8435,-4.8711,-4.8812,-4.9364,-4.964,-4.9766,-5.0318,-5.0519,-5.0594,-5.1096,-5.1272,-5.1222,-5.072,-5.0519,-5.0444,-4.9891,-4.9766,-4.9816,-4.9715,-5.0142,-5.0745,-5.1247,-5.18,-5.2327,-5.2804,-5.2929,-5.2929,-5.2929,-5.2929,-5.2929,-5.2929,-5.2929,-5.2929,-5.2929,-5.2929,-5.2929,-5.2929,-5.2929,-5.2929,-5.2929,-5.2929,-5.2929,-5.2929,-5.2929,-5.2929,-5.2929,-5.2929,-5.2929,-5.2929,-5.2929,-5.2929,-5.2929,-5.2929,-5.2929,-5.2929,-5.2929,-5.2929,-5.2929,-5.2854,-5.2854,-5.2929,-5.2929,-5.2929,-5.2929,-5.2929,-5.2879,0.0,0.0,0.0,0.0,0.0,0.0,0.0,0.0,0.0,0.0,0.0,0.0,0.0,-5.2929,-5.3005,-5.3231,-5.308,-5.3005,-5.3231,-5.308,-5.2804,-5.2503,-5.2251,-5.1975,-5.1674,-5.1122,-5.0569,-4.9992,-4.9439,-4.8887,-4.8309,-4.7481,-4.7004,-4.7004,-4.6401,-4.5949,-4.5723,-4.5497,-4.5246,-4.4995,-4.4744,-4.492,-4.5497,-4.5497,-4.605,-4.7029,-4.728,-4.7732,-4.8309,-4.856,-4.9012,-4.9615,-4.9866,-4.9967,-4.9992,-5.0243,-5.0343,-5.0293,-5.0042,-4.9967,-4.9916,-4.9665,-4.959,-4.959,-4.959,-5.0218,-5.0946,-5.1222,-5.19,-5.2628,-5.2854,-5.2929,-5.2929,-5.2929,-5.2929,-5.2929,-5.2929,-5.2929,-5.2929,-5.2929,-5.2929,-5.2929,-5.2929,-5.2929,-5.2929,-5.2929,-5.2929,-5.2929,-5.2929,-5.2929,-5.2929,-5.2929,-5.2929,-5.2929,-5.2929,-5.2929,-5.2929,-5.2929,-5.2929,-5.2929,-5.2929,-5.2929,-5.2929,-5.2929,-5.2929,-5.2929,-5.2929,-5.2929,-5.2929,-5.2929,-5.2929,-5.2754,0.0,0.0,0.0,0.0,0.0,0.0,0.0,0.0,0.0,0.0,0.0,0.0,0.0,-5.2729,-5.2879,-5.2729,-5.2829,-5.2929,-5.2929,-5.2804,-5.2578,-5.2151,-5.185,-5.1473,-5.0896,-5.0343,-4.9715,-4.9012,-4.846,-4.7908,-4.733,-4.6276,-4.5748,-4.5874,-4.492,-4.4342,-4.4192,-4.394,-4.394,-4.4192,-4.4066,-4.4367,-4.507,-4.5196,-4.5573,-4.6125,-4.6401,-4.6979,-4.7732,-4.7857,-4.8485,-4.9389,-4.9389,-4.9389,-4.9389,-4.9389,-4.9289,-4.9188,-4.9339,-4.9389,-4.9414,-4.954,-4.959,-4.959,-4.959,-5.0293,-5.1096,-5.1247,-5.1975,-5.2754,-5.2879,-5.2929,-5.2929,-5.2929,-5.2929,-5.2929,-5.2929,-5.2929,-5.2929,-5.2929,-5.2929,-5.2929,-5.2929,-5.2929,-5.2929,-5.2929,-5.2929,-5.2929,-5.2929,-5.2929,-5.2929,-5.2929,-5.2929,-5.2929,-5.2929,-5.2929,-5.2929,-5.2929,-5.2929,-5.2929,-5.2929,-5.2929,-5.2929,-5.2929,-5.2929,-5.2929,-5.2929,-5.2929,-5.2929,-5.2929,-5.2929,-5.2628,0.0,0.0,0.0,0.0,0.0,0.0,0.0,0.0,0.0,0.0,0.0,0.0,0.0,-5.2226,-5.2754,-5.2226,-5.2578,-5.2929,-5.2929,-5.2477,-5.2126,-5.2101,-5.1172,-5.0293,-4.9741,-4.9188,-4.841,-4.733,-4.6753,-4.62,-4.5648,-4.4543,-4.4166,-4.4694,-4.4141,-4.3589,-4.3062,-4.2032,-4.2032,-4.3062,-4.259,-4.2836,-4.3915,-4.4418,-4.4995,-4.5598,-4.6652,-4.7068,-4.7143,-4.7707,-4.8259,-4.8812,-4.8812,-4.8812,-4.8812,-4.8812,-4.846,-4.8083,-4.8611,-4.8812,-4.8912,-4.9414,-4.959,-4.959,-4.959,-4.9992,-5.0569,-5.1122,-5.1699,-5.2277,-5.2779,-5.2929,-5.2929,-5.2929,-5.2929,-5.2929,-5.2929,-5.2929,-5.2929,-5.2929,-5.2929,-5.2929,-5.2929,-5.2929,-5.2929,-5.2929,-5.2929,-5.2929,-5.2929,-5.2929,-5.2929,-5.2929,-5.2929,-5.2929,-5.2929,-5.2929,-5.2929,-5.2929,-5.2929,-5.2929,-5.2929,-5.2929,-5.2929,-5.2929,-5.2929,-5.2929,-5.2929,-5.2929,-5.2929,-5.2929,-5.2929,-5.2628,0.0,0.0,0.0,0.0,0.0,0.0,0.0,0.0,0.0,0.0,0.0,0.0,0.0,0.0,-5.18,-5.1599,-5.1749,-5.2,-5.2352,-5.1925,-5.1574,-5.1574,-5.0569,-4.9665,-4.9113,-4.856,-4.7782,-4.6677,-4.6426,-4.5899,-4.4995,-4.389,-4.3363,-4.3564,-4.2685,-4.2133,-4.1932,-4.1882,-4.2057,-4.2514,-4.2665,-4.3087,-4.3815,-4.4367,-4.4945,-4.5522,-4.6276,-4.6803,-4.7093,-4.733,-4.7732,-4.8209,-4.8209,-4.8209,-4.8259,-4.8636,-4.8636,-4.8535,-4.9113,-4.9289,-4.9339,-4.954,-4.959,-4.9665,-5.0017,-5.0519,-5.1096,-5.1649,-5.2201,-5.2678,-5.2879,-5.2929,-5.2929,-5.2929,-5.2929,-5.2929,-5.2929,-5.2929,-5.2929,-5.2929,-5.2929,-5.2929,-5.2929,-5.2929,-5.2929,-5.2929,-5.2929,-5.2929,-5.2929,-5.2929,-5.2929,-5.2929,-5.2929,-5.2929,-5.2929,-5.2929,-5.2929,-5.2929,-5.2929,-5.2929,-5.2929,-5.2929,-5.2929,-5.2929,-5.2929,-5.2929,-5.2929,-5.2578,-5.2402,-5.2402,-5.2026,-5.1574,0.0,0.0,0.0,0.0,0.0,0.0,0.0,0.0,0.0,0.0,0.0,0.0,0.0,0.0,-5.0268,-5.0645,-5.087,-5.1122,-5.1498,-5.0896,-5.0444,-5.0444,-4.9615,-4.8736,-4.8008,-4.7606,-4.6928,-4.5824,-4.5573,-4.507,-4.4116,-4.3037,-4.2333,-4.2158,-4.1455,-4.11,-4.1275,-4.1329,-4.1659,-4.2213,-4.2333,-4.2811,-4.3539,-4.4292,-4.4844,-4.5221,-4.5799,-4.6351,-4.6853,-4.6853,-4.7179,-4.7657,-4.7657,-4.7657,-4.7682,-4.8083,-4.8109,-4.8058,-4.8786,-4.9038,-4.9088,-4.9464,-4.959,-4.969,-5.0243,-5.082,-5.1398,-5.195,-5.2503,-5.2929,-5.2929,-5.2929,-5.2929,-5.2929,-5.2929,-5.2929,-5.2929,-5.2929,-5.2929,-5.2929,-5.2929,-5.2929,-5.2929,-5.2929,-5.2929,-5.2929,-5.2929,-5.2929,-5.2929,-5.2929,-5.2929,-5.2929,-5.2929,-5.2929,-5.2929,-5.2929,-5.2929,-5.2929,-5.2929,-5.2929,-5.2929,-5.2929,-5.2929,-5.2929,-5.2929,-5.2829,-5.2653,-5.2477,-5.2377,-5.2377,-5.1825,-5.1147,0.0,0.0,0.0,0.0,0.0,0.0,0.0,0.0,0.0,0.0,0.0,0.0,0.0,0.0,-4.8184,-4.9289,-4.9967,-5.0343,-5.0368,-4.9439,-4.8761,-4.8761,-4.8234,-4.7456,-4.6401,-4.6276,-4.5799,-4.4694,-4.4091,-4.3539,-4.2986,-4.1907,-4.1,-4.0501,-4.0501,-4.0752,-4.1225,-4.0249,-4.0526,-4.2187,-4.1605,-4.1932,-4.3011,-4.4091,-4.4593,-4.4644,-4.5221,-4.5773,-4.625,-4.6276,-4.6602,-4.7043,-4.7043,-4.7043,-4.7043,-4.7068,-4.6803,-4.6476,-4.7556,-4.7933,-4.8109,-4.9238,-4.959,-4.969,-5.0268,-5.0845,-5.1398,-5.1975,-5.2528,-5.2929,-5.2929,-5.2929,-5.2929,-5.2929,-5.2929,-5.2929,-5.2929,-5.2929,-5.2929,-5.2929,-5.2929,-5.2929,-5.2929,-5.2929,-5.2929,-5.2929,-5.2929,-5.2929,-5.2929,-5.2929,-5.2929,-5.2929,-5.2929,-5.2929,-5.2929,-5.2929,-5.2929,-5.2929,-5.2929,-5.2929,-5.2929,-5.2929,-5.2929,-5.2929,-5.2904,-5.2628,-5.2101,-5.2628,-5.2879,-5.2829,-5.2277,-5.1448,-3.6405,0.0,0.0,0.0,0.0,0.0,0.0,0.0,0.0,0.0,0.0,0.0,0.0,0.0,-4.625,-4.6577,-4.7732,-4.8736,-4.9163,-4.8611,-4.8309,-4.8711,-4.7581,-4.6627,-4.6326,-4.5573,-4.4794,-4.4091,-4.3514,-4.2961,-4.2464,-4.1329,-4.0501,-3.9948,-3.9923,-3.9998,-4.0149,-4.0249,-4.0727,-4.1555,-4.1806,-4.2308,-4.3011,-4.3714,-4.4041,-4.4066,-4.4618,-4.4945,-4.5121,-4.5547,-4.605,-4.6552,-4.6552,-4.6552,-4.6602,-4.6979,-4.7029,-4.7054,-4.8159,-4.8535,-4.8661,-4.9364,-4.959,-4.9766,-5.0745,-5.1147,-5.1473,-5.2427,-5.2804,-5.2929,-5.2929,-5.2929,-5.2929,-5.2929,-5.2929,-5.2929,-5.2929,-5.2929,-5.2929,-5.2929,-5.2929,-5.2929,-5.2929,-5.2929,-5.2929,-5.2929,-5.2929,-5.2929,-5.2929,-5.2929,-5.2929,-5.2929,-5.2929,-5.2929,-5.2929,-5.2929,-5.2929,-5.2929,-5.2929,-5.2929,-5.2929,-5.2929,-5.2929,-5.2929,-5.2528,-5.2251,-5.2101,-5.185,-5.1523,-5.1096,-5.0544,-5.0117,-3.6985,-3.6757,-3.6505,-3.6983,0.0,0.0,-3.7136,-3.7688,-3.8417,0.0,0.0,0.0,0.0,0.0,0.0,-4.4443,-4.5221,-4.6225,-4.7255,-4.6903,-4.6652,-4.7004,-4.62,-4.5422,-4.497,-4.4317,-4.3614,-4.2836,-4.2484,-4.2057,-4.1505,-4.0651,-4.0023,-3.9697,-3.9697,-3.9697,-3.9697,-4.0023,-4.045,-4.0949,-4.1329,-4.1882,-4.266,-4.3212,-4.3589,-4.3815,-4.4141,-4.4418,-4.4644,-4.4744,-4.5246,-4.5974,-4.5974,-4.61,-4.6351,-4.6677,-4.6803,-4.6954,-4.8033,-4.841,-4.8535,-4.9339,-4.959,-4.9766,-5.0645,-5.0921,-5.1147,-5.2277,-5.2754,-5.2929,-5.2929,-5.2929,-5.2929,-5.2929,-5.2929,-5.2929,-5.2929,-5.2929,-5.2929,-5.2929,-5.2929,-5.2929,-5.2929,-5.2929,-5.2929,-5.2929,-5.2929,-5.2929,-5.2929,-5.2929,-5.2929,-5.2929,-5.2929,-5.2929,-5.2929,-5.2929,-5.2929,-5.2929,-5.2929,-5.2929,-5.2929,-5.2929,-5.2829,-5.2578,-5.2503,-5.2327,-5.2101,-5.1548,-5.0996,-5.0419,-5.0092,-4.9816,-3.7864,-3.7287,-3.6832,-3.7764,-3.7262,0.0,-3.7086,-3.7186,-3.7337,-3.7814,0.0,0.0,0.0,0.0,0.0,-4.2685,-4.271,-4.3288,-4.497,-4.4769,-4.4443,-4.4443,-4.4392,-4.3966,-4.2986,-4.2836,-4.2384,-4.1351,-4.1225,-4.0949,-4.045,-3.9948,-3.9697,-3.9697,-3.9697,-3.9697,-3.9697,-3.9697,-3.9973,-4.0526,-4.0526,-4.1053,-4.2137,-4.2559,-4.3062,-4.3539,-4.3589,-4.389,-4.4317,-4.389,-4.4367,-4.5397,-4.5472,-4.5773,-4.6225,-4.6276,-4.6301,-4.6451,-4.7531,-4.7908,-4.8083,-4.9213,-4.959,-4.969,-5.0243,-5.0419,-5.0645,-5.1774,-5.2452,-5.2854,-5.2904,-5.2929,-5.2929,-5.2929,-5.2929,-5.2929,-5.2929,-5.2929,-5.2929,-5.2929,-5.2929,-5.2929,-5.2929,-5.2929,-5.2929,-5.2929,-5.2929,-5.2929,-5.2929,-5.2929,-5.2929,-5.2929,-5.2929,-5.2929,-5.2929,-5.2929,-5.2929,-5.2929,-5.2929,-5.2929,-5.2929,-5.2879,-5.2603,-5.2126,-5.2528,-5.2503,-5.2026,-5.1448,-5.0921,-5.0419,-5.0343,-5.0092,-3.7965,-3.7839,-3.7739,-3.7939,-3.7839,0.0,-3.7262,-3.7186,-3.7211,0.0,0.0,0.0,0.0,0.0,0.0,-4.0927,-4.1003,-4.158,-4.3237,-4.3363,-4.3288,-4.3288,-4.2911,-4.2615,-4.2389,-4.1932,-4.1526,-4.13,-4.0874,-4.0425,-3.9873,-3.9747,-3.9697,-3.9697,-3.9697,-3.9697,-3.9697,-3.9697,-3.9973,-4.0526,-4.0526,-4.0852,-4.1505,-4.1551,-4.1652,-4.1777,-4.2283,-4.259,-4.266,-4.3011,-4.379,-4.4844,-4.5296,-4.5547,-4.5698,-4.615,-4.6301,-4.6451,-4.7531,-4.7908,-4.8083,-4.9213,-4.959,-4.969,-5.0243,-5.0419,-5.0645,-5.1774,-5.2176,-5.2377,-5.2804,-5.2929,-5.2929,-5.2929,-5.2929,-5.2929,-5.2929,-5.2929,-5.2929,-5.2929,-5.2929,-5.2929,-5.2929,-5.2929,-5.2929,-5.2929,-5.2929,-5.2929,-5.2929,-5.2929,-5.2929,-5.2929,-5.2929,-5.2929,-5.2929,-5.2929,-5.2929,-5.2929,-5.2929,-5.2929,-5.2929,-5.2503,-5.2226,-5.2101,-5.1774,-5.1548,-5.1448,-5.087,-5.0519,-5.0419,-4.9967,-4.9941,-3.8768,-3.8442,-3.8065,-3.8366,-3.8216,0.0,0.0,-3.7588,-3.7513,-3.7236,0.0,0.0,0.0,0.0,0.0,-3.9597,-3.9446,-3.9647,-4.0777,-4.1404,-4.1656,-4.1379,-4.1103,-4.088,-4.0603,-4.0275,-3.9998,-3.9697,-3.9421,-3.927,-3.927,-3.927,-3.9396,-3.9697,-3.9697,-3.9697,-3.9697,-3.9697,-3.9823,-4.0099,-4.0099,-4.04,-4.0874,-4.0874,-4.1025,-4.13,-4.163,-4.1907,-4.2238,-4.2514,-4.3062,-4.389,-4.4719,-4.5246,-4.5547,-4.61,-4.6301,-4.6426,-4.723,-4.7682,-4.8058,-4.8912,-4.9364,-4.964,-4.9916,-5.0193,-5.0544,-5.1096,-5.1674,-5.2176,-5.2452,-5.2729,-5.2929,-5.2929,-5.2929,-5.2929,-5.2929,-5.2929,-5.2929,-5.2929,-5.2929,-5.2929,-5.2929,-5.2929,-5.2929,-5.2929,-5.2929,-5.2929,-5.2929,-5.2929,-5.2929,-5.2929,-5.2929,-5.2929,-5.2929,-5.2929,-5.2929,-5.2929,-5.2929,-5.2804,-5.2528,-5.2251,-5.2101,-5.2101,-5.1825,-5.1825,-5.2101,-5.1523,-5.1122,-5.0845,-5.0569,-5.0594,-3.9697,-3.927,-3.8718,-3.8969,-3.8843,-3.8567,0.0,0.0,0.0,-3.7462,0.0,0.0,0.0,0.0,0.0,0.0,0.0,0.0,0.0,-3.932,0.0,-3.9396,-3.9371,-3.9195,-3.8743,-3.8718,-3.8517,-3.804,-3.8015,-3.8216,-3.8668,-3.8869,-3.9019,-3.9346,-3.9597,-3.9647,-3.9546,-3.9647,-3.9697,-3.9697,-3.9697,-3.9923,-4.035,-4.035,-4.0601,-4.0974,-4.1075,-4.1505,-4.2062,-4.2162,-4.2539,-4.3087,-4.4066,-4.4819,-4.5397,-4.5949,-4.6225,-4.6401,-4.6892,-4.7481,-4.8008,-4.8586,-4.9138,-4.959,-4.959,-4.9916,-5.0268,-5.0393,-5.1147,-5.1975,-5.2076,-5.2528,-5.2929,-5.2929,-5.2929,-5.2929,-5.2929,-5.2929,-5.2929,-5.2929,-5.2929,-5.2929,-5.2929,-5.2929,-5.2929,-5.2929,-5.2929,-5.2929,-5.2929,-5.2929,-5.2929,-5.2929,-5.2929,-5.2929,-5.2929,-5.2929,-5.2929,-5.2929,-5.2929,-5.2729,-5.2277,-5.2151,-5.2101,-5.2101,-5.2101,-5.2377,-5.2929,-5.2477,-5.1975,-5.1448,-5.1322,-5.1348,-4.0275,-4.0676,-4.0699,-3.9823,-4.0275,-4.0523,-3.9094,0.0,-3.8617,-3.804,0.0,-3.799,0.0,0.0,0.0,0.0,0.0,0.0,-3.7437,-3.7487,-3.7713,-3.814,-3.8191,-3.8165,-3.8115,-3.809,-3.8065,-3.8015,-3.8015,-3.804,-3.809,-3.8592,-3.8668,-3.8216,-3.917,-3.9446,-3.902,-3.9446,-3.9697,-3.9697,-3.9697,-3.9722,-3.9798,-3.9798,-3.9823,-3.9898,-4.04,-4.0927,-4.1455,-4.1957,-4.2539,-4.3037,-4.3664,-4.4242,-4.4794,-4.5372,-4.5899,-4.6401,-4.6892,-4.7481,-4.8008,-4.8586,-4.9138,-4.959,-4.959,-4.964,-4.9791,-5.0268,-5.087,-5.1498,-5.1975,-5.2528,-5.2929,-5.2929,-5.2929,-5.2929,-5.2929,-5.2929,-5.2929,-5.2929,-5.2929,-5.2929,-5.2929,-5.2929,-5.2929,-5.2929,-5.2929,-5.2929,-5.2929,-5.2929,-5.2929,-5.2929,-5.2929,-5.2929,-5.2929,-5.2929,-5.2929,-5.2929,-5.2929,-5.2904,-5.2829,-5.2377,-5.2101,-5.2101,-5.2101,-5.2377,-5.2929,-5.2854,-5.2553,-5.2,-5.1498,-5.1548,-3.9973,-4.0902,-4.148,-4.0049,-4.0752,-4.1379,-3.9722,-3.9346,-3.9195,-3.8617,0.0,0.0,0.0,0.0,0.0,0.0,-3.7965,-3.7563,0.0,0.0,-3.6832,-3.7036,-3.7061,-3.7061,-3.7061,-3.7061,-3.7061,-3.7061,-3.7061,-3.7186,-3.7513,-3.7764,-3.7939,-3.8015,-3.8467,-3.8768,-3.8919,-3.9094,-3.922,-3.922,-3.9546,-3.9521,-3.922,-3.9546,-3.9697,-3.9697,-3.9948,-4.035,-4.0902,-4.1455,-4.2007,-4.2615,-4.3112,-4.3865,-4.4694,-4.5271,-4.5824,-4.6401,-4.6892,-4.7481,-4.8058,-4.8962,-4.9414,-4.959,-4.959,-4.959,-4.964,-4.9866,-5.0594,-5.1322,-5.1574,-5.2277,-5.2929,-5.2929,-5.2929,-5.2929,-5.2929,-5.2929,-5.2929,-5.2929,-5.2929,-5.2929,-5.2929,-5.2929,-5.2929,-5.2929,-5.2929,-5.2929,-5.2929,-5.2929,-5.2929,-5.2929,-5.2929,-5.2929,-5.2929,-5.2929,-5.2929,-5.2929,-5.2628,-5.2452,-5.2452,-5.2226,-5.2101,-5.2101,-5.2427,-5.2703,-5.2929,-5.2929,-5.2804,-5.2578,-5.2352,-5.2352,-3.9948,-4.1229,-4.2187,-4.0174,-4.0981,-4.1785,-4.0074,-3.9923,-3.9948,-3.9245,-3.9346,0.0,0.0,0.0,-3.8567,-3.8818,0.0,-3.7487,0.0,-3.696,0.0,0.0,-3.6405,-3.6405,-3.6405,-3.6279,-3.6132,-3.6132,-3.6132,-3.6307,-3.6709,-3.701,-3.7287,-3.7538,-3.7839,-3.814,-3.8417,-3.8567,-3.8642,-3.8642,-3.9195,-3.927,-3.8944,-3.9446,-3.9697,-3.9697,-3.9697,-3.9998,-4.0551,-4.105,-4.1656,-4.2288,-4.2936,-4.379,-4.4669,-4.5095,-4.5698,-4.6401,-4.6892,-4.7581,-4.8284,-4.9113,-4.9464,-4.959,-4.959,-4.959,-4.959,-4.959,-5.0419,-5.1272,-5.1272,-5.2101,-5.2929,-5.2929,-5.2929,-5.2929,-5.2929,-5.2929,-5.2929,-5.2929,-5.2929,-5.2929,-5.2929,-5.2929,-5.2929,-5.2929,-5.2929,-5.2929,-5.2929,-5.2929,-5.2929,-5.2929,-5.2929,-5.2929,-5.2929,-5.2929,-5.2929,-5.2929,-5.2553,-5.2327,-5.2327,-5.2327,-5.2327,-5.2327,-5.2729,-5.2929,-5.2929,-5.2929,-5.2929,-5.2929,-5.2929,-5.2929,-4.0626,-4.2082,-4.3087,-4.0375,-4.0981,-4.1785,-4.0074,-4.0526,-4.0924,-3.9898,-4.0526,-4.0874,-3.9848,-3.9647,-3.9471,-3.8994,-3.8366,0.0,0.0,-3.6782,0.0,-3.6405,-3.6405,-3.6405,-3.6405,-3.5881,-3.5533,-3.5533,-3.5533,-3.5533,-3.5558,-3.6609,-3.6983,-3.648,-3.7437,-3.7764,-3.7236,-3.7764,-3.804,-3.804,-3.8617,-3.8944,-3.8944,-3.9446,-3.9697,-3.9697,-3.9697,-3.9998,-4.0551,-4.105,-4.1656,-4.2313,-4.3338,-4.4116,-4.4618,-4.4644,-4.5347,-4.6401,-4.6892,-4.7832,-4.8761,-4.8786,-4.9163,-4.959,-4.959,-4.959,-4.959,-4.959,-5.0419,-5.1272,-5.1272,-5.2101,-5.2929,-5.2929,-5.2929,-5.2929,-5.2929,-5.2929,-5.2929,-5.2929,-5.2929,-5.2929,-5.2929,-5.2929,-5.2929,-5.2929,-5.2929,-5.2929,-5.2929,-5.2929,-5.2929,-5.2929,-5.2929,-5.2929,-5.2929,-5.2929,-5.2929,-5.2929,-5.2904,-5.2904,-5.2904,-5.2904,-5.2904,-5.2904,-5.2929,-5.2929,-5.2929,-5.2929,-5.2929,-5.2929,-5.2929,-5.2929,-4.3382,-4.4561,-4.5059,-4.3332,-4.3332,-4.3062,-4.0325,-4.0551,-4.0974,-3.9923,-4.0576,-4.0949,-3.9898,-3.9697,-3.9647,-3.9446,-3.8944,-3.8391,0.0,-3.6935,-3.6405,-3.6405,-3.6031,-3.5805,-3.5805,-3.5282,-3.4956,-3.4956,-3.4956,-3.5107,-3.5483,-3.5859,-3.6182,-3.6405,-3.6782,-3.701,-3.7186,-3.7362,-3.7462,-3.7462,-3.8417,-3.8668,-3.8341,-3.927,-3.9697,-3.9697,-3.9697,-3.9998,-4.0551,-4.105,-4.1656,-4.2313,-4.3363,-4.4141,-4.4669,-4.5045,-4.5673,-4.6426,-4.733,-4.8134,-4.8837,-4.9188,-4.9439,-4.959,-4.959,-4.959,-4.959,-4.959,-5.0419,-5.1272,-5.1272,-5.2101,-5.2929,-5.2929,-5.2929,-5.2929,-5.2929,-5.2929,-5.2929,-5.2929,-5.2929,-5.2929,-5.2929,-5.2929,-5.2929,-5.2929,-5.2929,-5.2929,-5.2929,-5.2929,-5.2929,-5.2929,-5.2929,-5.2929,-5.2929,-5.2929,-5.2929,-5.2929,-5.2929,-5.2929,-5.2929,-5.2929,-5.2929,-5.2929,-5.2929,-5.2929,-5.2929,-5.2929,-5.2929,-5.2929,-5.2929,-5.2929,-4.4398,-4.5374,-4.5961,-4.4597,-4.4428,-4.3915,-4.1178,-4.1279,-4.1555,-4.0249,-4.0701,-4.1075,-4.04,-3.9948,-3.9747,-3.9948,-3.9195,-3.8291,0.0,-3.6857,-3.6405,-3.6405,-3.6056,-3.5755,-3.5508,-3.5006,-3.465,-3.4449,-3.4424,-3.4575,-3.4906,-3.5282,-3.5658,-3.6056,-3.6304,-3.6581,-3.6885,-3.6933,-3.6933,-3.6958,-3.8015,-3.8366,-3.804,-3.917,-3.9697,-3.9697,-3.9697,-3.9998,-4.0551,-4.105,-4.1781,-4.2615,-4.3664,-4.4443,-4.497,-4.5347,-4.5974,-4.6677,-4.7179,-4.7958,-4.8786,-4.8937,-4.9264,-4.959,-4.959,-4.959,-4.964,-4.9841,-5.0569,-5.1322,-5.1523,-5.2251,-5.2929,-5.2929,-5.2929,-5.2929,-5.2929,-5.2929,-5.2929,-5.2929,-5.2929,-5.2929,-5.2929,-5.2929,-5.2929,-5.2929,-5.2929,-5.2929,-5.2929,-5.2929,-5.2929,-5.2929,-5.2929,-5.2929,-5.2929,-5.2929,-5.2929,-5.2929,-5.2929,-5.2929,-5.2929,-5.2929,-5.3206,-5.3783,-5.3231,-5.3206,-5.3808,-5.3206,-5.2929,-5.2929,-5.2929,-5.2929]},{"header":{"parameterUnit":"m.s-1","parameterCategory":1,"la1":30.6,"la2":29.2853,"lo1":-89.7004,"lo2":-87.6739,"dy":0.0162,"dx":0.0183,"nx":112,"ny":82,"refTime":"2023-06-13T06:00:00:Z","depth":0,"parameterNumber":3,"parameterNumberName":"V-component_of_WINDS"},"data":[0.0,0.0,0.0,0.0,0.0,0.0,0.0,0.0,0.0,0.0,0.0,0.0,0.0,0.0,0.0,0.0,0.0,0.0,0.0,0.0,0.0,0.0,0.0,0.0,0.0,0.0,0.0,0.0,0.0,0.0,0.0,0.0,0.0,0.0,0.0,0.0,0.0,0.0,0.0,0.0,0.0,0.0,0.0,0.0,0.0,0.0,0.0,0.0,0.0,0.0,0.0,0.0,0.0,0.0,0.0,0.0,0.0,0.0,0.0,0.0,0.0,0.0,0.0,0.0,0.0,0.0,0.0,0.0,0.0,0.0,0.0,0.0,0.0,0.0,0.0,0.0,0.0,0.0,0.0,0.0,0.0,0.0,0.0,0.0,0.0,0.0,0.0,0.0,0.0,0.0,-4.0764,-4.5021,-5.1589,-5.6021,-5.6731,-5.6494,-5.3957,-4.8443,0.0,0.0,0.0,0.0,0.0,0.0,0.0,0.0,0.0,0.0,0.0,0.0,0.0,0.0,0.0,0.0,0.0,0.0,0.0,0.0,0.0,0.0,0.0,0.0,0.0,0.0,0.0,0.0,0.0,0.0,0.0,0.0,0.0,0.0,0.0,0.0,0.0,0.0,0.0,0.0,0.0,0.0,0.0,0.0,0.0,0.0,0.0,0.0,0.0,0.0,0.0,0.0,0.0,0.0,0.0,0.0,0.0,0.0,0.0,0.0,0.0,0.0,0.0,0.0,0.0,0.0,0.0,0.0,0.0,0.0,0.0,0.0,0.0,0.0,0.0,0.0,0.0,0.0,0.0,0.0,0.0,0.0,0.0,0.0,0.0,0.0,0.0,0.0,0.0,0.0,0.0,0.0,0.0,0.0,0.0,0.0,0.0,0.0,0.0,0.0,0.0,0.0,0.0,0.0,-4.2354,-4.8578,-5.3145,-5.6021,-5.6731,-5.5074,-5.2536,-4.9052,0.0,0.0,0.0,0.0,0.0,0.0,0.0,0.0,0.0,0.0,0.0,0.0,0.0,0.0,0.0,0.0,0.0,0.0,0.0,0.0,0.0,0.0,0.0,0.0,0.0,0.0,0.0,0.0,0.0,0.0,0.0,0.0,0.0,0.0,0.0,0.0,0.0,0.0,0.0,0.0,0.0,0.0,0.0,0.0,0.0,0.0,0.0,0.0,0.0,0.0,0.0,0.0,0.0,0.0,0.0,0.0,0.0,0.0,0.0,0.0,0.0,0.0,0.0,0.0,0.0,0.0,0.0,0.0,0.0,0.0,0.0,0.0,0.0,0.0,0.0,0.0,0.0,0.0,0.0,0.0,0.0,0.0,0.0,0.0,0.0,0.0,0.0,0.0,0.0,0.0,0.0,0.0,0.0,0.0,0.0,0.0,0.0,0.0,0.0,0.0,0.0,0.0,0.0,-4.1982,-4.5399,-5.1319,-5.4566,-5.6765,-5.7915,-5.5987,-5.3247,-4.9796,-4.78,0.0,0.0,0.0,0.0,0.0,0.0,0.0,0.0,0.0,0.0,0.0,0.0,0.0,0.0,0.0,0.0,0.0,0.0,0.0,0.0,0.0,0.0,0.0,0.0,0.0,0.0,0.0,0.0,0.0,0.0,0.0,0.0,0.0,0.0,0.0,0.0,0.0,0.0,0.0,0.0,0.0,0.0,0.0,0.0,0.0,0.0,0.0,0.0,0.0,0.0,0.0,0.0,0.0,0.0,0.0,0.0,0.0,0.0,0.0,0.0,0.0,0.0,0.0,0.0,0.0,0.0,0.0,0.0,0.0,0.0,0.0,0.0,0.0,0.0,0.0,0.0,0.0,0.0,0.0,0.0,0.0,0.0,0.0,0.0,0.0,0.0,0.0,0.0,0.0,0.0,0.0,0.0,0.0,0.0,0.0,0.0,0.0,0.0,0.0,0.0,0.0,0.0,-4.506,-4.8173,-5.3213,-5.575,-5.7611,-5.8896,-5.6833,-5.3991,-5.0574,-4.7259,0.0,0.0,0.0,0.0,0.0,0.0,0.0,0.0,0.0,0.0,0.0,0.0,0.0,0.0,0.0,0.0,0.0,0.0,0.0,0.0,0.0,0.0,0.0,0.0,0.0,0.0,0.0,0.0,0.0,0.0,0.0,0.0,0.0,0.0,0.0,0.0,0.0,0.0,0.0,0.0,0.0,0.0,0.0,0.0,0.0,0.0,0.0,0.0,0.0,0.0,0.0,0.0,0.0,0.0,0.0,0.0,0.0,0.0,0.0,0.0,0.0,0.0,0.0,0.0,0.0,0.0,0.0,0.0,0.0,0.0,0.0,0.0,0.0,0.0,0.0,0.0,0.0,0.0,0.0,0.0,0.0,0.0,0.0,0.0,0.0,0.0,0.0,0.0,0.0,0.0,0.0,0.0,0.0,0.0,0.0,0.0,0.0,0.0,0.0,0.0,0.0,0.0,-4.5945,-4.9492,-5.4025,-5.6494,-5.8152,-5.893,-5.6325,-5.3653,-5.1252,-4.7056,0.0,0.0,0.0,0.0,0.0,0.0,0.0,0.0,0.0,0.0,0.0,0.0,0.0,0.0,0.0,0.0,0.0,0.0,0.0,0.0,0.0,0.0,0.0,0.0,0.0,0.0,0.0,0.0,0.0,0.0,0.0,0.0,0.0,0.0,0.0,0.0,0.0,0.0,0.0,0.0,0.0,0.0,0.0,0.0,0.0,0.0,0.0,0.0,0.0,0.0,0.0,0.0,0.0,0.0,0.0,0.0,0.0,0.0,0.0,0.0,0.0,0.0,0.0,0.0,0.0,0.0,0.0,0.0,0.0,0.0,0.0,0.0,0.0,0.0,0.0,0.0,0.0,0.0,0.0,0.0,0.0,0.0,0.0,0.0,0.0,0.0,0.0,0.0,0.0,0.0,0.0,0.0,0.0,0.0,0.0,0.0,0.0,0.0,0.0,0.0,0.0,0.0,-4.7428,-5.098,-5.548,-5.8389,-6.0148,-6.0419,-5.8558,-5.5784,-5.2131,0.0,0.0,0.0,0.0,0.0,0.0,0.0,0.0,0.0,0.0,0.0,0.0,0.0,0.0,0.0,0.0,0.0,0.0,0.0,0.0,0.0,0.0,0.0,0.0,0.0,0.0,0.0,0.0,0.0,0.0,0.0,0.0,0.0,0.0,0.0,0.0,0.0,0.0,0.0,0.0,0.0,0.0,0.0,0.0,0.0,0.0,0.0,0.0,0.0,0.0,0.0,0.0,0.0,0.0,0.0,0.0,0.0,0.0,0.0,0.0,0.0,0.0,0.0,0.0,0.0,0.0,0.0,0.0,0.0,0.0,0.0,0.0,0.0,0.0,0.0,0.0,0.0,0.0,0.0,0.0,0.0,0.0,0.0,0.0,0.0,0.0,0.0,0.0,0.0,0.0,0.0,0.0,0.0,0.0,0.0,0.0,0.0,0.0,0.0,0.0,0.0,0.0,-4.5297,-4.868,-5.2435,-5.6697,-5.9844,-6.1637,-6.1637,-5.9404,-5.6562,-5.3247,0.0,0.0,0.0,0.0,0.0,0.0,0.0,0.0,0.0,0.0,0.0,0.0,0.0,0.0,0.0,0.0,0.0,0.0,0.0,0.0,0.0,0.0,0.0,0.0,0.0,0.0,0.0,0.0,0.0,0.0,0.0,0.0,0.0,0.0,0.0,0.0,0.0,0.0,0.0,0.0,0.0,0.0,0.0,0.0,0.0,0.0,0.0,0.0,0.0,0.0,0.0,0.0,0.0,0.0,0.0,0.0,0.0,0.0,0.0,0.0,0.0,0.0,0.0,0.0,0.0,0.0,0.0,0.0,0.0,0.0,0.0,0.0,0.0,0.0,0.0,0.0,0.0,0.0,0.0,0.0,0.0,0.0,0.0,0.0,0.0,0.0,0.0,0.0,0.0,0.0,0.0,0.0,0.0,0.0,0.0,0.0,0.0,0.0,0.0,0.0,0.0,0.0,-4.5432,-4.9593,-5.3754,-5.7476,-6.0588,-6.2381,-6.2381,-5.8287,-5.5412,0.0,0.0,0.0,0.0,0.0,0.0,0.0,0.0,0.0,0.0,0.0,0.0,0.0,0.0,0.0,0.0,0.0,0.0,0.0,0.0,0.0,0.0,0.0,0.0,0.0,0.0,0.0,0.0,0.0,0.0,0.0,0.0,0.0,0.0,0.0,0.0,0.0,0.0,0.0,0.0,0.0,0.0,0.0,0.0,0.0,0.0,0.0,0.0,0.0,0.0,0.0,0.0,0.0,0.0,0.0,0.0,0.0,0.0,0.0,0.0,0.0,0.0,0.0,0.0,0.0,0.0,0.0,0.0,0.0,0.0,0.0,0.0,0.0,0.0,0.0,0.0,0.0,0.0,0.0,0.0,0.0,0.0,0.0,0.0,0.0,0.0,0.0,0.0,0.0,0.0,0.0,0.0,0.0,0.0,0.0,0.0,0.0,0.0,0.0,0.0,0.0,0.0,0.0,-4.6177,-5.0371,-5.4363,-5.7543,-6.0588,-6.2178,-6.167,-5.893,-5.6258,-5.3957,0.0,0.0,0.0,0.0,0.0,0.0,0.0,0.0,0.0,0.0,0.0,0.0,0.0,0.0,0.0,0.0,0.0,0.0,0.0,0.0,0.0,0.0,0.0,0.0,0.0,0.0,0.0,0.0,0.0,0.0,0.0,0.0,0.0,0.0,0.0,0.0,0.0,0.0,0.0,0.0,0.0,0.0,0.0,0.0,0.0,0.0,0.0,0.0,0.0,0.0,0.0,0.0,0.0,0.0,0.0,0.0,0.0,0.0,0.0,0.0,0.0,0.0,0.0,0.0,0.0,0.0,0.0,0.0,0.0,0.0,0.0,0.0,0.0,0.0,0.0,0.0,0.0,0.0,0.0,0.0,0.0,0.0,0.0,0.0,0.0,0.0,0.0,0.0,0.0,0.0,0.0,0.0,0.0,0.0,0.0,0.0,0.0,0.0,0.0,0.0,0.0,0.0,-4.7394,-5.1589,-5.5513,-5.8457,-6.1197,-6.2651,-6.2212,-5.9268,-5.6562,-5.4532,0.0,0.0,0.0,0.0,0.0,0.0,0.0,0.0,0.0,0.0,0.0,0.0,0.0,0.0,0.0,0.0,0.0,0.0,0.0,0.0,0.0,0.0,0.0,0.0,0.0,0.0,0.0,0.0,0.0,0.0,0.0,0.0,0.0,0.0,0.0,0.0,0.0,0.0,0.0,0.0,0.0,0.0,0.0,0.0,0.0,0.0,0.0,0.0,0.0,0.0,0.0,0.0,0.0,0.0,0.0,0.0,0.0,0.0,0.0,0.0,0.0,0.0,0.0,0.0,0.0,0.0,0.0,0.0,0.0,0.0,0.0,0.0,0.0,0.0,0.0,0.0,0.0,0.0,0.0,0.0,0.0,0.0,0.0,0.0,0.0,0.0,0.0,0.0,0.0,0.0,0.0,0.0,0.0,0.0,0.0,0.0,0.0,0.0,0.0,0.0,0.0,0.0,-4.8815,-5.2976,-5.6799,-5.9708,-6.1975,-6.3328,-6.3328,-5.9302,-5.6461,-5.5649,0.0,0.0,0.0,0.0,0.0,0.0,0.0,0.0,0.0,0.0,0.0,0.0,0.0,0.0,0.0,0.0,0.0,0.0,0.0,0.0,0.0,0.0,0.0,0.0,0.0,0.0,0.0,0.0,0.0,0.0,0.0,0.0,0.0,0.0,0.0,0.0,0.0,0.0,0.0,0.0,0.0,0.0,0.0,0.0,0.0,0.0,0.0,0.0,0.0,0.0,0.0,0.0,0.0,0.0,0.0,0.0,0.0,0.0,0.0,0.0,-4.2252,-4.1271,0.0,0.0,0.0,0.0,0.0,0.0,0.0,0.0,0.0,0.0,0.0,0.0,0.0,0.0,0.0,0.0,0.0,0.0,0.0,0.0,0.0,0.0,0.0,0.0,0.0,0.0,0.0,0.0,0.0,0.0,0.0,0.0,0.0,0.0,0.0,0.0,0.0,0.0,0.0,0.0,-4.956,-5.3281,-5.663,-5.8998,-6.0757,-6.1772,-6.1772,-5.8727,-5.6224,-5.4905,-5.1555,0.0,0.0,0.0,0.0,0.0,0.0,0.0,0.0,0.0,0.0,0.0,0.0,0.0,0.0,0.0,0.0,0.0,0.0,0.0,0.0,0.0,0.0,0.0,0.0,0.0,0.0,0.0,0.0,0.0,0.0,0.0,0.0,0.0,0.0,0.0,0.0,0.0,0.0,0.0,0.0,0.0,0.0,0.0,0.0,0.0,0.0,0.0,0.0,0.0,0.0,0.0,0.0,0.0,0.0,0.0,0.0,0.0,0.0,0.0,-4.6887,-4.4756,0.0,0.0,0.0,0.0,0.0,0.0,0.0,0.0,0.0,0.0,0.0,0.0,0.0,0.0,0.0,0.0,0.0,0.0,0.0,0.0,0.0,0.0,0.0,0.0,0.0,0.0,0.0,0.0,0.0,0.0,0.0,0.0,0.0,0.0,0.0,0.0,0.0,0.0,0.0,0.0,-5.1386,-5.4668,-5.7881,-6.0858,-6.1873,-6.2516,-6.2854,-5.9133,-5.6461,-5.5716,-5.2164,0.0,0.0,0.0,0.0,0.0,0.0,0.0,0.0,0.0,0.0,0.0,0.0,0.0,0.0,0.0,0.0,0.0,0.0,0.0,0.0,0.0,0.0,0.0,0.0,0.0,0.0,0.0,0.0,0.0,0.0,0.0,0.0,0.0,0.0,0.0,0.0,0.0,0.0,0.0,0.0,0.0,0.0,0.0,0.0,0.0,0.0,0.0,0.0,0.0,0.0,0.0,0.0,0.0,-5.2266,-5.389,-5.5581,-5.6461,-5.7205,-5.7543,-5.3484,-5.0371,-4.8139,-4.7733,0.0,0.0,0.0,0.0,0.0,0.0,0.0,0.0,0.0,0.0,0.0,0.0,0.0,0.0,0.0,0.0,0.0,0.0,0.0,0.0,0.0,0.0,-4.9424,-5.0744,-5.2198,-5.2232,-4.8443,0.0,0.0,0.0,0.0,0.0,0.0,0.0,0.0,0.0,0.0,0.0,-5.3518,-5.6359,-5.9438,-6.2956,-6.3328,-6.3565,-6.4174,-5.9911,-5.707,-5.6833,-5.2942,-5.0507,0.0,0.0,0.0,0.0,0.0,0.0,0.0,0.0,0.0,0.0,0.0,0.0,0.0,0.0,0.0,0.0,0.0,0.0,0.0,0.0,0.0,0.0,0.0,0.0,0.0,0.0,0.0,0.0,0.0,0.0,0.0,0.0,-4.1298,-4.0095,0.0,0.0,0.0,0.0,0.0,0.0,0.0,0.0,0.0,0.0,0.0,0.0,0.0,-5.1183,-5.3247,-5.5277,-5.6765,-5.7712,-5.9235,-5.9776,-5.9438,-6.0858,-6.1569,-6.167,-6.2279,0.0,-5.3416,-5.1454,0.0,0.0,0.0,0.0,0.0,0.0,0.0,0.0,0.0,0.0,0.0,0.0,0.0,0.0,0.0,0.0,0.0,0.0,0.0,0.0,0.0,0.0,-5.3923,-5.4769,-5.6089,-5.6833,-5.5615,-5.2841,-5.0236,-4.8951,-4.8781,-4.8612,0.0,0.0,0.0,0.0,0.0,0.0,-5.504,-5.7442,-5.981,-6.2279,-6.255,-6.2584,-6.2685,-6.025,-5.8186,-5.69,-5.4431,-5.2164,-5.0168,-4.9898,0.0,0.0,0.0,0.0,0.0,0.0,0.0,0.0,0.0,0.0,0.0,0.0,0.0,0.0,0.0,0.0,0.0,0.0,0.0,0.0,0.0,0.0,0.0,0.0,0.0,0.0,0.0,0.0,0.0,-4.1863,-4.2719,-4.0383,-4.2178,-4.2855,0.0,0.0,0.0,0.0,0.0,0.0,0.0,0.0,0.0,-5.2367,-5.4871,-5.6494,-5.707,-5.9302,-6.0994,-6.2178,-6.3666,-6.4884,-6.5831,-6.732,-6.803,-6.8064,-6.8707,-6.6609,-6.2381,-5.7577,-5.4261,-5.2029,0.0,0.0,0.0,0.0,-5.0338,-5.1522,-5.2739,-5.345,-5.3721,-5.3382,0.0,0.0,0.0,0.0,0.0,0.0,0.0,-5.2097,-5.3991,-5.6393,-5.866,-5.981,-6.1197,-6.1975,-6.0825,-5.9268,-5.6934,-5.2909,-5.1826,-5.1285,-5.0507,-5.0033,0.0,0.0,0.0,-5.389,-5.6055,-5.866,-6.0994,-6.2821,-6.3024,-6.3024,-6.3024,-6.0554,-5.8727,-5.8084,-5.5581,-5.3484,-5.2063,-5.1589,-5.0642,0.0,0.0,0.0,0.0,0.0,0.0,0.0,0.0,0.0,0.0,0.0,0.0,0.0,0.0,0.0,0.0,0.0,0.0,0.0,0.0,0.0,0.0,0.0,0.0,0.0,0.0,0.0,0.0,-4.3301,-4.4248,-4.106,-4.3978,-4.5094,0.0,0.0,0.0,0.0,0.0,0.0,-5.1657,-5.3957,-5.6122,-5.8152,-6.0554,-6.1839,-6.1873,-6.3734,-6.5425,-6.688,-6.7793,-6.9214,-7.1075,-7.236,-7.2969,-7.2969,-7.2969,-7.2022,-6.9992,-6.3429,-5.9404,-5.7171,-5.4532,-5.3484,-5.3619,-5.4769,-5.6021,-5.7374,-5.9032,-5.9945,-6.0182,-5.8727,-5.7645,-5.6325,-5.3281,0.0,0.0,0.0,0.0,-5.6528,-5.8761,-6.0858,-6.2787,-6.4275,-6.5628,-6.617,-6.4681,-6.4208,-6.2415,-5.6799,-5.5277,-5.4532,-5.3382,-5.2706,0.0,-5.2097,-5.3822,-5.575,-5.7442,-5.9776,-6.1873,-6.3362,-6.3328,-6.3226,-6.3226,-6.0825,-5.9201,-5.9032,-5.6427,-5.4465,-5.3551,-5.2739,-5.1691,-5.0405,0.0,0.0,0.0,0.0,0.0,0.0,0.0,0.0,0.0,0.0,0.0,0.0,0.0,0.0,0.0,0.0,0.0,0.0,0.0,0.0,0.0,0.0,0.0,0.0,0.0,0.0,0.0,0.0,0.0,-4.2625,-4.7327,0.0,0.0,0.0,0.0,-4.9695,-5.2469,-5.4837,-5.6393,-5.8558,-6.0486,-6.2042,-6.4952,-6.7489,-6.962,-7.0466,-7.1582,-7.3037,-7.2428,-7.2529,-7.3341,-7.4153,-7.4492,-7.4492,-7.4492,-7.4458,-7.3883,-6.7827,-6.4038,-6.1907,-6.0283,-5.9641,-5.9674,-5.9742,-6.0317,-6.1028,-6.1163,-6.1231,-6.167,-6.4309,-6.4208,-6.2516,-5.9471,-5.8084,0.0,0.0,-5.9235,-6.0351,-6.2651,-6.4343,-6.5831,-6.732,-6.8335,-6.8504,-6.6981,-6.6068,-6.4241,-5.9674,-5.8761,-5.8051,-5.5919,0.0,-5.5243,-5.4532,-5.5716,-5.7476,-5.9641,-6.0723,-6.1873,-6.3362,-6.2854,-6.2448,-6.2448,-6.096,-5.9742,-5.9066,-5.69,-5.5006,-5.3551,-5.2739,-5.1961,-5.1183,-5.0473,0.0,0.0,0.0,0.0,0.0,0.0,0.0,0.0,0.0,0.0,0.0,0.0,0.0,0.0,0.0,0.0,0.0,0.0,0.0,0.0,0.0,0.0,0.0,0.0,0.0,0.0,0.0,0.0,-4.8308,-5.3315,0.0,-5.2334,-5.3247,-5.4532,-5.575,-5.7273,-5.9404,-6.2347,-6.4174,-6.6271,-6.8741,-7.077,-7.1988,-7.2293,-7.3071,-7.3713,-7.4221,-7.4424,-7.4931,-7.5709,-7.6454,-7.6792,-7.6758,-7.6284,-7.6082,-7.5879,-7.324,-7.0263,-6.7151,-6.4681,-6.37,-6.3768,-6.4241,-6.4884,-6.5696,-6.6677,-6.7015,-6.688,-6.5967,-6.4377,-6.2584,-6.1501,-6.0994,-6.1028,-6.2245,-6.3125,-6.4106,-6.5865,-6.7455,-6.8707,-6.9248,-6.9958,-7.0263,-6.9214,-6.8402,-6.7117,-6.4546,-6.211,-6.008,-5.8761,-5.8152,-5.7577,-5.6833,-5.7983,-5.9201,-6.0013,-6.1231,-6.2212,-6.2753,-6.255,-6.2212,-6.1738,-6.0283,-5.9099,-5.8355,-5.6664,-5.5277,-5.4262,-5.3923,-5.3179,-5.1928,-5.1657,-5.0913,0.0,0.0,0.0,0.0,0.0,0.0,0.0,0.0,0.0,0.0,0.0,0.0,0.0,0.0,0.0,0.0,0.0,0.0,0.0,0.0,0.0,0.0,0.0,0.0,0.0,0.0,-5.4329,-5.3551,-5.8287,-6.0655,-5.8152,-5.8829,-6.0148,-6.1873,-6.2956,-6.4918,-6.8132,-6.9485,-7.1075,-7.3071,-7.4593,-7.5134,-7.4627,-7.5134,-7.5506,-7.5743,-7.598,-7.6521,-7.7299,-7.828,-7.8585,-7.8348,-7.8111,-7.7874,-7.757,-7.6792,-7.5033,-7.2529,-6.9755,-6.8707,-6.8741,-6.8977,-6.9214,-6.9519,-7.0297,-7.0567,-7.0195,-6.7929,-6.6203,-6.4986,-6.4749,-6.4647,-6.4918,-6.6136,-6.6846,-6.7489,-6.8741,-6.9823,-7.0567,-7.0567,-7.0939,-7.1109,-7.0364,-6.962,-6.8707,-6.7421,-6.4816,-6.2448,-6.1434,-6.0655,-5.9979,-5.9471,-6.0047,-6.0588,-6.0825,-6.1772,-6.2381,-6.2381,-6.2178,-6.1704,-6.096,-5.9505,-5.8321,-5.7577,-5.6156,-5.5108,-5.46,-5.4363,-5.3754,-5.2739,-5.2435,-5.1691,-5.0473,0.0,0.0,0.0,0.0,0.0,0.0,0.0,0.0,0.0,0.0,0.0,0.0,0.0,0.0,0.0,0.0,0.0,0.0,0.0,0.0,0.0,0.0,0.0,-5.0371,-5.4194,-5.734,-5.8118,-6.2178,-6.3768,-6.0858,-6.3226,-6.5831,-6.7996,-6.9519,-7.1312,-7.3477,-7.4289,-7.4695,-7.4762,-7.6183,-7.6961,-7.6961,-7.6961,-7.7333,-7.8044,-7.7299,-7.7367,-7.8179,-7.9566,-7.9837,-7.9228,-7.9904,-7.9803,-7.9092,-7.8348,-7.8044,-7.7841,-7.5574,-7.4695,-7.4593,-7.3815,-7.3105,-7.236,-7.165,-7.1379,-7.1244,-7.05,-7.0229,-7.0094,-6.9383,-6.918,-6.9316,-7.0026,-7.0229,-7.0398,-7.1109,-7.1312,-7.1312,-7.1312,-7.1312,-7.1109,-7.0398,-6.9654,-6.891,-6.8098,-6.6745,-6.529,-6.3835,-6.299,-6.2482,-6.2448,-6.1839,0.0,-6.2347,-6.2415,-6.2381,-6.2381,-6.1772,-6.1028,-6.0148,-5.8761,-5.7577,-5.6799,-5.5378,-5.4566,-5.4566,-5.389,-5.3518,-5.3518,-5.2706,-5.1961,-5.1219,0.0,0.0,0.0,0.0,0.0,0.0,0.0,0.0,0.0,0.0,0.0,0.0,0.0,0.0,0.0,0.0,0.0,0.0,0.0,0.0,0.0,0.0,-5.6188,-5.4431,-5.9404,-6.3734,-6.4986,-6.9113,-7.1548,-7.0703,-7.1853,-7.2902,-7.351,-7.395,-7.4695,-7.5879,-7.6149,-7.6758,-7.7841,-7.828,-7.8517,-7.8517,-7.8517,-7.8855,-7.96,-7.8855,-7.9431,-8.1156,-8.0513,-8.0378,-8.0682,-8.0344,-8.0073,-7.987,-7.9667,-7.96,-7.9363,-7.713,-7.6284,-7.6183,-7.5371,-7.4627,-7.3984,-7.3781,-7.3003,-7.2056,-7.1853,-7.1447,-7.0973,-7.077,-7.0703,-7.0737,-7.0939,-7.1007,-7.1041,-7.1278,-7.1312,-7.1312,-7.1312,-7.1312,-7.1244,-7.1041,-7.0432,-6.9654,-6.891,-6.7963,-6.6812,-6.5358,-6.4918,-6.4613,-6.4072,-6.3362,-6.299,-6.3193,-6.2719,-6.2381,-6.2381,-6.2719,-6.1941,-5.9505,-5.893,-5.7712,-5.5344,-5.4329,-5.3788,-5.3788,-5.3619,-5.3518,-5.3518,-5.2706,-5.2198,0.0,0.0,0.0,0.0,0.0,0.0,0.0,0.0,0.0,0.0,0.0,0.0,0.0,0.0,0.0,0.0,0.0,0.0,0.0,0.0,0.0,0.0,-5.9911,-6.3125,-6.2753,-6.5527,-6.847,-7.0872,-7.3477,-7.5202,-7.554,-7.5946,-7.6454,-7.7096,-7.6826,-7.6995,-7.7773,-7.8111,-7.8686,-7.9532,-8.0175,-8.0344,-8.0006,-8.0006,-8.0073,-8.0175,-7.9769,-8.0242,-8.146,-8.0919,-8.0716,-8.0818,-8.0716,-8.0479,-8.0209,-8.0209,-8.0209,-8.004,0.0,0.0,0.0,0.0,-7.4965,-7.4525,-7.3883,-7.3138,-7.236,-7.2056,-7.165,-7.1312,-7.1312,-7.1312,-7.1312,-7.1312,-7.1312,-7.1312,-7.1312,-7.1312,-7.1312,-7.1312,-7.1312,-7.1312,-7.1312,-7.0737,-7.006,-6.962,-6.8944,0.0,-6.6812,-6.6102,-6.5527,-6.5121,-6.4444,-6.3971,-6.3971,-6.3599,-6.3193,-6.2888,-6.2956,-6.1941,-5.9235,-5.8457,0.0,0.0,0.0,-5.3518,-5.3518,-5.3518,0.0,0.0,0.0,-5.2807,-5.2807,-5.2367,0.0,0.0,-5.1319,-5.115,0.0,0.0,0.0,0.0,0.0,0.0,0.0,0.0,0.0,0.0,0.0,0.0,0.0,0.0,0.0,0.0,-6.6034,-7.0635,-7.2969,-7.2225,-7.2529,-7.5473,-7.6048,-7.6454,-7.7096,-7.7232,-7.7841,-7.9261,-7.872,-7.8686,-7.9431,0.0,0.0,0.0,0.0,-8.2205,-8.1528,-8.146,-8.1122,-8.0581,-8.0412,-8.0412,-8.0581,-8.1054,-8.0919,-8.0344,-8.0919,-8.0784,-8.0209,-8.0209,-8.0141,-8.0006,-7.9363,-7.872,-7.7874,-7.5777,-7.4931,-7.4661,-7.3274,0.0,0.0,-7.1684,-7.1379,-7.1312,-7.1312,-7.1312,-7.1312,-7.1312,-7.1312,-7.1312,-7.1312,-7.1312,-7.1312,-7.1312,-7.1312,-7.1312,-7.1312,-7.0804,-7.0297,-7.0195,-6.9654,-6.8977,-6.8166,-6.6846,-6.5899,-6.5831,-6.5189,-6.4681,-6.4613,-6.4546,-6.4208,-6.3463,-6.2854,0.0,-5.9201,-5.7881,-5.6427,-5.4702,-5.3923,-5.3518,-5.3518,-5.3518,-5.3518,-5.3518,-5.3518,-5.3518,-5.3518,-5.3518,-5.3518,-5.3484,-5.2097,-5.1826,0.0,0.0,0.0,0.0,0.0,0.0,0.0,0.0,0.0,0.0,0.0,0.0,0.0,0.0,0.0,-6.6643,-7.1345,-7.5405,-7.828,-7.8957,-7.8517,-7.686,-7.8247,-7.916,-7.872,-7.9228,-7.9938,-8.0784,-8.0716,-8.0987,-8.1731,-8.19,-8.2272,-8.2847,-8.3152,-8.3219,-8.3084,-8.2475,-8.2408,-8.2847,-8.1663,0.0,-8.2813,-8.1765,-8.119,-8.1054,-8.0615,-8.031,-8.0209,-8.0209,-7.987,-7.9295,-7.916,-7.9025,-7.8754,-7.7705,-7.6961,-7.6318,-7.5371,-7.4289,-7.3172,-7.2428,-7.1785,-7.1312,-7.1312,-7.1312,0.0,-7.1312,-7.1312,-7.1312,-7.1312,-7.1312,-7.1312,-7.1312,-7.1312,-7.1312,-7.1312,-7.121,-7.0906,-7.0297,-7.006,-6.9755,-6.9011,-6.8098,-6.7286,-6.6677,-6.5967,-6.5256,-6.4681,-6.4106,-6.3429,-6.2685,-6.3024,-6.2144,-5.9268,-5.9302,-5.8051,-5.4803,-5.3923,-5.3518,-5.3518,-5.3518,-5.3518,-5.3518,-5.3518,-5.3518,-5.3518,-5.3518,-5.3518,-5.3484,-5.3213,-5.3145,0.0,0.0,0.0,0.0,0.0,0.0,0.0,0.0,0.0,0.0,0.0,-5.707,0.0,0.0,-6.8199,-7.2326,-7.6082,-7.916,-8.1054,-8.2272,-8.2002,-7.9397,-8.0412,-8.1021,-8.0276,-8.0885,-8.1291,-8.1291,-8.1629,-8.1832,-8.1832,-8.2205,-8.2577,-8.2949,-8.3321,-8.3321,-8.2949,-8.2949,-8.2949,-8.2949,-8.2205,-8.2238,-8.2915,-8.1799,-8.1291,-8.1257,-8.0513,-8.0006,-7.9667,-7.9667,-7.9431,-7.9058,-7.8686,-7.8314,-7.7942,-7.7604,-7.6961,-7.6183,-7.5439,-7.4661,-7.3916,-7.3172,-7.2462,-7.1921,-7.2293,-7.1887,-7.1379,-7.1751,-7.1582,-7.1312,-7.1312,-7.1312,-7.1312,-7.1312,-7.1312,-7.1312,-7.1312,-7.1312,-7.121,-7.0838,-7.0737,-7.0534,-6.9789,-6.9316,-6.8639,-6.7523,-6.7049,-6.6542,-6.5797,-6.5392,-6.4749,-6.3599,-6.3835,-6.299,-6.0385,-5.9438,-5.7881,-5.531,-5.4465,-5.4059,-5.4059,-5.3687,-5.3518,-5.3518,-5.3518,-5.3687,-5.4059,-5.3687,-5.389,-5.46,-5.4228,-5.3856,0.0,0.0,0.0,0.0,0.0,0.0,0.0,0.0,-5.4938,-5.8084,-6.1028,-6.3903,-6.6677,-7.0161,-7.3747,-7.7198,-7.9972,-8.1968,-8.2746,-8.3862,-8.3896,-8.1934,-8.2137,-8.2171,-8.1562,-8.1799,-8.19,-8.1731,-8.2002,-8.2035,-8.1731,-8.2306,-8.2611,-8.2611,-8.3321,-8.3422,-8.2847,-8.3287,-8.3287,-8.2847,-8.2678,-8.2611,-8.2611,-8.1832,-8.1426,-8.1224,-8.0378,-7.9667,-7.9092,-7.8788,-7.8686,-7.8619,-7.801,-7.7333,-7.669,-7.6826,-7.6589,-7.6014,-7.5134,-7.483,-7.4695,-7.3781,-7.3105,-7.2699,-7.3138,-7.2462,-7.1616,-7.2056,-7.1751,-7.1312,-7.1312,-7.1312,-7.1312,-7.1312,-7.1312,-7.1312,-7.1312,-7.1312,-7.1312,-7.1312,-7.1312,-7.1109,-7.05,-7.0398,-6.9823,-6.8132,-6.7895,-6.759,-6.6711,-6.6609,-6.6034,-6.4546,-6.4377,-6.3565,-6.1467,-5.9336,-5.7543,-5.6224,-5.5446,-5.4938,-5.4803,-5.4228,-5.3923,-5.3923,-5.3923,-5.4228,-5.4803,-5.4228,-5.4532,-5.5716,-5.5108,-5.4499,-4.6173,-4.665,0.0,-4.9154,-5.0236,-5.2266,0.0,0.0,-6.1332,-6.4952,-6.7557,-6.9891,-7.2191,-7.5134,-7.801,-8.0412,-8.2171,-8.3524,-8.4268,-8.4539,-8.4302,-8.3355,-8.2746,-8.2374,-8.2306,-8.1156,-8.1224,-8.3118,-8.2103,-8.1934,-8.3186,-8.3321,-8.3389,-8.3389,-8.4099,-8.4471,-8.437,-8.3795,-8.3795,-8.437,-8.3693,-8.3389,-8.3355,-8.2611,-8.19,-8.119,-7.9837,-7.9194,-7.9025,-7.7705,-7.7164,-7.713,-7.7063,-7.6521,-7.5912,-7.6657,-7.7266,-7.7536,-7.6082,-7.5574,-7.5337,-7.395,-7.3443,-7.324,-7.2699,-7.2394,-7.2157,-7.1582,-7.1379,-7.1312,-7.1312,-7.1312,-7.1312,-7.1312,-7.1312,-7.1312,-7.1312,-7.1312,-7.1312,-7.1312,-7.1312,-7.1278,-7.121,-7.1176,-7.0432,-6.8233,-6.7895,-6.7387,-6.6,-6.5797,-6.5256,-6.3802,-6.3632,-6.299,-6.1434,-5.981,-5.8524,-5.7712,-5.6968,-5.6258,-5.5615,-5.5513,-5.548,-5.548,-5.548,-5.5478,-5.5581,-5.5478,-5.5547,-5.5681,-5.5649,-5.5547,-4.8406,0.0,0.0,0.0,-5.46,-5.8084,-6.1873,-6.4681,-6.7387,-7.0669,-7.351,-7.5912,-7.7705,-7.9769,-8.1629,0.0,-8.3389,-8.3625,-8.393,-8.3219,-8.2408,-8.1663,-8.0547,-8.0682,-8.2847,-8.2475,-8.2509,-8.3422,-8.3321,-8.3287,-8.349,-8.349,-8.349,-8.349,-8.3795,-8.3964,-8.3964,-8.4099,-8.4302,-8.464,-8.4302,-8.393,-8.3456,-8.2746,-8.1528,-7.9938,-7.845,-7.7841,-7.7773,-7.7164,-7.6893,-7.6893,-7.6893,-7.6961,-7.7029,-7.6927,-7.6792,-7.6555,-7.5912,-7.5439,-7.4965,-7.4356,-7.3544,-7.2868,-7.3003,-7.2428,-7.1785,-7.1921,-7.165,-7.1312,-7.1312,-7.1312,-7.1312,-7.1312,-7.1312,-7.1312,-7.1312,-7.1312,-7.1312,-7.1312,-7.1312,-7.1312,-7.1312,-7.0939,-7.0195,-6.8808,-6.8605,-6.8199,-6.7117,-6.6609,-6.5797,-6.4309,-6.3362,-6.2448,-6.14,-6.0283,-5.9336,-5.8592,-5.7442,-5.6664,-5.6359,-5.5953,-5.5681,-5.5681,-5.5681,-5.5919,-5.6359,-5.5919,-5.6156,-5.6968,-5.6562,-5.6562,-4.9538,0.0,0.0,-5.4499,-5.8964,-6.3396,-6.5628,-6.935,-7.3003,-7.5371,-7.7739,-7.9803,-8.1054,-8.2002,-8.2813,-8.3592,-8.3422,-8.3186,-8.3186,-8.1934,-8.0716,-7.9972,-7.8382,-7.8483,-8.1393,-8.1866,-8.2408,-8.3422,-8.3625,-8.3625,-8.3524,-8.349,-8.349,-8.349,-8.3693,-8.3795,-8.3795,-8.4336,-8.464,-8.464,-8.464,-8.4234,-8.3456,-8.2306,-8.0818,-7.9025,-7.7536,-7.6893,-7.6893,-7.6657,-7.6555,-7.6555,-7.6555,-7.6893,-7.7299,-7.6758,-7.6454,-7.6251,-7.5845,-7.5337,-7.4864,-7.4424,-7.3578,-7.2766,-7.3105,-7.2462,-7.1684,-7.1988,-7.1718,-7.1312,-7.1312,-7.1312,-7.1312,-7.1312,-7.1312,-7.1312,-7.1312,-7.1312,-7.1312,-7.1312,-7.1312,-7.1312,-7.1312,-7.0872,-7.0263,-6.9519,-6.9214,-6.8741,-6.7726,-6.6779,-6.573,-6.4444,-6.3159,-6.211,-6.1366,-6.0757,-6.0013,-5.9066,-5.8017,-5.7306,-5.7103,-5.6596,-5.6325,-5.6325,-5.6325,-5.6562,-5.7103,-5.6562,-5.6867,-5.7881,-5.734,-5.7374,0.0,0.0,-5.4296,-5.7949,-6.2787,-6.7252,-6.9485,-7.4018,-7.7976,-7.8822,-7.96,-8.0412,-8.1156,-8.075,-8.0547,-8.1257,-8.1968,-8.2441,-8.2441,-8.1156,-7.9972,-7.9228,-7.713,-7.6115,0.0,-7.7739,-7.9634,-8.3219,-8.2171,-8.2002,-8.3422,-8.349,-8.349,-8.349,-8.42,-8.4606,-8.4606,-8.4606,-8.464,-8.464,-8.464,-8.4234,-8.3422,-8.1257,-7.9837,-7.9025,-7.7536,-7.6893,-7.6826,-7.6048,-7.5743,-7.5743,-7.5743,-7.5743,-7.5777,-7.5743,-7.6657,-7.7705,-7.6217,-7.5676,-7.5439,-7.3984,-7.3477,-7.3341,-7.2631,-7.2394,-7.2225,-7.1548,-7.1345,-7.1312,-7.1312,-7.1312,-7.1312,-7.1312,-7.1312,-7.1312,-7.1312,-7.1312,-7.1312,-7.1312,-7.1312,-7.1312,-7.1312,-7.1312,-7.1041,-7.0263,-6.9553,-6.8571,-6.7049,-6.5561,-6.4377,-6.3632,-6.2854,-6.211,-6.1366,-6.1298,-6.0622,-5.9099,-5.8964,-5.8626,-5.7881,-5.7848,-5.7814,-5.7814,-5.7814,-5.7814,-5.7848,-5.7814,-5.7848,-5.7881,-5.7881,-5.7881,0.0,0.0,-6.0283,-6.3971,-6.8842,-7.3443,-7.6183,-7.8957,-8.0851,-8.0615,-7.9194,-7.7604,-7.6352,-7.6318,-7.6589,-7.6826,-7.8754,-8.004,-7.9532,-7.9464,-7.828,-7.5033,-7.483,0.0,0.0,0.0,0.0,-8.1122,-8.1765,-8.2475,-8.3456,-8.3964,-8.4234,-8.4234,-8.4505,-8.464,-8.464,-8.464,-8.464,-8.4606,-8.3625,-8.3016,-8.2678,-7.9972,-7.8585,-7.828,-7.6758,-7.6115,-7.6082,-7.5811,-7.5709,-7.5709,-7.5709,-7.5709,-7.5709,-7.5709,-7.5709,-7.5676,-7.5168,-7.4322,-7.3443,-7.2935,-7.2428,-7.1988,-7.1751,-7.1684,-7.1616,-7.1379,-7.1312,-7.1312,-7.1312,-7.1312,-7.1312,-7.1312,-7.1312,-7.1312,-7.1312,-7.1312,-7.1312,-7.1312,-7.1312,-7.1312,-7.1312,-7.0906,-7.0128,-6.8876,-6.847,-6.7929,-6.6948,-6.5527,-6.4512,-6.4275,-6.3125,-6.2279,-6.2042,-6.1569,-6.1095,-6.0554,-5.9573,-5.8896,-5.866,-5.8152,-5.7881,-5.7881,-5.7881,-5.7881,-5.7881,-5.7881,-5.7881,-5.7881,-5.7881,-5.7881,0.0,-6.0588,-6.4986,-6.9248,-7.3443,-7.7096,-7.9295,-8.0547,-8.0784,-7.9228,-7.6352,-7.351,-7.1481,-7.0432,-7.0364,-7.1954,-7.3849,-7.5506,-7.6623,-7.6758,-7.5743,-7.3105,-7.3172,-7.3071,0.0,0.0,0.0,-7.9566,-8.1156,-8.2441,-8.3456,-8.42,-8.464,-8.464,-8.464,-8.464,-8.464,-8.464,-8.464,-8.4606,-8.3118,-8.2272,-8.1934,-7.9228,-7.7841,-7.7536,-7.6251,-7.5709,-7.5709,-7.5709,-7.5709,-7.5709,-7.5709,-7.5709,-7.5676,-7.5405,-7.483,-7.4221,-7.4221,-7.3409,-7.236,-7.209,-7.1684,-7.1312,-7.1312,-7.1312,-7.1312,-7.1312,-7.1312,-7.1312,-7.1312,-7.1312,-7.1312,-7.1312,-7.1312,-7.1312,-7.1312,-7.1312,-7.1312,-7.1312,-7.1312,-7.1312,-7.1312,-7.0466,-6.935,-6.8098,-6.7692,-6.7151,-6.6136,-6.5189,-6.441,-6.3869,-6.2956,-6.2127,-6.1428,-6.0918,-6.0549,-6.0242,-5.8879,-5.8402,-5.8994,-5.8119,-5.7749,-5.7881,-5.7881,-5.7881,-5.7881,-5.7881,-5.7881,-5.7881,-5.7881,-5.7881,-6.0829,-6.4918,-6.847,-7.3477,-7.6386,-7.8213,-7.8889,-7.8923,-7.7976,-7.4897,-7.1244,-6.8098,0.0,0.0,-6.255,-6.6846,-6.7861,-6.9586,-7.3984,-7.3544,-7.2935,0.0,0.0,0.0,0.0,0.0,0.0,-7.8855,0.0,-8.1866,-8.3422,-8.42,-8.464,-8.464,-8.464,-8.464,-8.464,-8.464,-8.464,-8.4606,-8.3152,-8.2069,-8.1257,-7.9092,-7.7705,-7.6961,-7.6115,-7.5743,-7.5743,-7.5709,-7.5709,-7.5709,-7.5676,-7.5676,-7.5608,-7.4864,-7.4153,-7.3544,-7.351,-7.2969,-7.2225,-7.1548,-7.1312,-7.1312,-7.1312,-7.1345,-7.1379,-7.1379,-7.1413,-7.1413,-7.1379,-7.1379,-7.1379,-7.1312,-7.1312,-7.1312,-7.1312,-7.1312,-7.1312,-7.1312,-7.1312,-7.1267,-7.1154,-6.9938,-6.8721,-6.7824,-6.7082,-6.6179,-6.4884,-6.4647,-6.4072,-6.2572,-6.2375,-6.1608,-5.9597,-5.9523,-5.9194,-5.838,-5.7205,-5.7261,-5.8803,-5.7752,-5.7309,-5.7735,-5.7735,-5.7735,-5.7735,-5.7735,-5.7735,-5.7735,-5.7735,-5.7735,-6.5177,-6.9891,-7.3883,-7.5845,-7.757,-7.872,-7.8348,-7.6521,-7.3916,-7.0331,-6.5324,-6.0622,0.0,0.0,0.0,-6.2516,-6.7184,0.0,-7.4221,-7.6217,0.0,-7.4559,0.0,-7.6454,-7.4728,-7.6284,0.0,0.0,-7.9769,-8.0784,-8.3355,-8.42,-8.464,-8.464,-8.464,-8.464,-8.464,-8.464,-8.464,-8.4606,-8.3659,-8.2847,-8.2069,-8.0412,-7.9228,-7.8483,-7.7164,-7.6589,-7.6555,-7.5946,-7.5709,-7.5642,-7.51,-7.5236,-7.5608,-7.4864,-7.4492,-7.4255,-7.368,-7.2665,-7.1548,-7.1379,-7.1312,-7.1312,-7.1312,-7.1684,-7.2124,-7.2124,-7.2529,-7.28,-7.2259,-7.2124,-7.1988,-7.1447,-7.1312,-7.1312,-7.1312,-7.1312,-7.1312,-7.1312,-7.1312,-7.0838,-6.9264,-6.8214,-6.7043,-6.5325,-6.4453,-6.4544,-6.6061,-6.529,-6.4125,-6.2822,-6.2508,-6.1454,-5.9176,-5.9781,-5.9844,-5.8754,-5.7845,-5.7366,-5.7284,-5.645,-5.5836,-5.5482,-5.545,-5.545,-5.545,-5.545,-5.545,-5.545,-5.545,-5.545,-6.9681,-7.3648,-7.6475,-7.7963,-7.8483,-7.7976,-7.5608,-7.2732,-6.9045,-6.3666,-5.9099,0.0,0.0,0.0,0.0,0.0,0.0,0.0,-7.3003,-7.5371,-7.6521,0.0,-7.7604,0.0,-7.7299,-7.8348,-7.9667,0.0,-8.0784,-8.1426,-8.3389,-8.42,-8.464,-8.464,-8.464,-8.464,-8.464,-8.464,-8.4471,-8.4133,-8.3693,-8.278,-8.1426,-8.0581,-7.9634,-7.8585,-7.7739,-7.7198,-7.686,-7.642,-7.5845,-7.5202,-7.5134,-7.5134,-7.5134,-7.439,-7.4119,-7.395,-7.2902,-7.1988,-7.1312,-7.1312,-7.1312,-7.1312,-7.1312,-7.1819,-7.2326,-7.2022,-7.2462,-7.2742,-7.1379,-7.1004,-7.0764,-6.9765,-6.949,-6.949,-6.949,-6.949,-6.949,-6.949,-6.9258,-6.8573,-6.71,-6.6255,-6.53,-6.3822,-6.3276,-6.3529,-6.4947,-6.387,-6.2585,-6.1564,-6.1107,-6.0043,-5.8177,-5.86,-5.8735,-5.8039,-5.6855,-5.635,-5.6689,-5.551,-5.4781,-5.4589,-5.4589,-5.4589,-5.4589,-5.4589,-5.4589,-5.4589,-5.4589,-5.4589,-7.407,-7.6591,-7.7424,-7.9415,-7.8653,-7.6183,-7.1616,-6.7996,-6.3599,-5.6427,0.0,-5.0879,-4.868,0.0,-5.0913,-5.6799,0.0,-6.4174,-7.1515,-7.3443,-7.5134,-7.7942,-7.8551,-7.8957,-7.9634,-7.9769,-8.0648,-8.2577,-8.2712,-8.2983,-8.3625,-8.4268,-8.464,-8.464,-8.464,-8.464,-8.464,-8.464,-8.4302,-8.3659,-8.3659,-8.2543,-8.0479,-8.0479,-7.9701,-7.828,-7.8179,-7.7739,-7.7029,-7.6927,-7.6014,-7.4661,-7.5303,-7.5168,-7.4525,-7.3747,-7.3544,-7.3443,-7.1954,-7.1447,-7.1447,-7.1345,-7.1312,-7.1312,-7.1312,-7.1887,-7.2349,-7.1423,-7.1794,-7.1921,-6.9676,-6.9107,-6.8781,-6.7502,-6.7164,-6.7164,-6.7164,-6.7164,-6.7164,-6.7164,-6.6735,-6.6044,-6.5121,-6.4452,-6.3783,-6.2773,-6.2597,-6.2565,-6.247,-6.1631,-6.0718,-5.9784,-5.922,-5.8318,-5.6896,-5.6896,-5.6943,-5.6752,-5.5164,-5.4805,-5.6208,-5.458,-5.3806,-5.4126,-5.4168,-5.4168,-5.4168,-5.4168,-5.4168,-5.4168,-5.4168,-5.4168,-7.7492,-7.8979,-7.8482,-7.8405,-7.6284,-7.2935,-6.7827,-6.2922,0.0,0.0,0.0,-4.7056,-4.479,-4.6921,0.0,-5.6122,0.0,0.0,0.0,0.0,-7.7874,0.0,0.0,0.0,0.0,0.0,0.0,0.0,0.0,-8.4302,-8.4403,-8.4539,-8.464,-8.464,-8.464,-8.464,-8.464,-8.464,-8.4573,-8.4437,-8.4437,-8.3592,-8.2035,-8.2035,-8.1224,-7.9769,-7.916,-7.8483,-7.7739,-7.7164,-7.6014,-7.4627,-7.4762,-7.4728,-7.4525,-7.3747,-7.3883,-7.4221,-7.2732,-7.2225,-7.2124,-7.1515,-7.1312,-7.1312,-7.1312,-7.2225,-7.292,-7.1013,-7.1488,-7.192,-6.9154,-6.8473,-6.8261,-6.7427,-6.7164,-6.7164,-6.7164,-6.7164,-6.7164,-6.7164,-6.7119,-6.6472,-6.458,-6.4203,-6.3282,-6.095,-6.0607,-6.0395,-5.9849,-6.0908,-6.1043,-5.9402,-5.9443,-5.853,-5.5731,-5.6445,-5.659,-5.5601,-5.47,-5.4089,-5.3819,-5.2993,-5.2282,-5.1819,-5.1819,-5.1819,-5.1819,-5.1819,-5.1819,-5.1819,-5.1819,-5.1819,-7.7235,-7.8376,-7.7814,-7.8404,-7.5439,-7.0669,-6.4241,0.0,0.0,0.0,0.0,-4.5196,-4.3707,0.0,0.0,0.0,0.0,0.0,0.0,0.0,0.0,0.0,0.0,0.0,0.0,0.0,0.0,0.0,0.0,-8.464,-8.464,-8.464,-8.464,-8.464,-8.464,-8.464,-8.464,-8.464,-8.4437,-8.4031,-8.4437,-8.3659,-8.1832,-8.2238,-8.1596,-8.0175,-7.9431,-7.8686,-7.7942,-7.7198,-7.5777,-7.4052,-7.4458,-7.4153,-7.3409,-7.3071,-7.3138,-7.3308,-7.2225,-7.1341,-7.0684,-7.0316,-7.0216,-7.0216,-7.0216,-7.049,-7.0519,-6.9089,-6.9524,-6.9801,-6.7282,-6.6658,-6.6349,-6.5313,-6.5087,-6.5087,-6.5087,-6.5087,-6.5087,-6.5087,-6.4777,-6.4251,-6.3232,-6.2787,-6.2086,-6.0826,-6.0625,-6.0386,-5.9697,-6.0425,-6.0353,-5.8756,-5.817,-5.7334,-5.587,-5.5932,-5.5819,-5.5229,-5.4581,-5.3892,-5.3204,-5.2546,-5.1887,-5.1229,-5.1229,-5.1229,-5.1229,-5.1229,-5.1229,-5.1229,-5.1229,-5.1229,-7.5861,-7.6807,-7.6329,-7.7755,-7.4066,-6.8257,-6.1221,-5.6055,0.0,0.0,-4.4045,-4.435,-4.3572,0.0,0.0,0.0,0.0,0.0,0.0,0.0,0.0,0.0,0.0,0.0,0.0,0.0,0.0,0.0,0.0,-8.464,-8.464,-8.464,-8.464,-8.464,-8.464,-8.464,-8.464,-8.464,-8.4234,-8.349,-8.4099,-8.3287,-8.1291,-8.19,-8.1359,-7.9938,-7.9363,-7.8585,-7.7705,-7.713,-7.554,-7.3544,-7.4006,-7.3272,-7.1913,-7.1634,-7.1506,-7.1406,-7.0703,-6.968,-6.8748,-6.8748,-6.8748,-6.8748,-6.8748,-6.8543,-6.8092,-6.7078,-6.726,-6.7356,-6.5187,-6.4648,-6.4401,-6.3337,-6.3079,-6.3079,-6.3079,-6.3079,-6.3079,-6.3079,-6.266,-6.2301,-6.2301,-6.1882,-6.1493,-6.1343,-6.1313,-6.1074,-6.0386,-6.0176,-5.9697,-5.865,-5.7363,-5.6526,-5.6428,-5.5777,-5.5388,-5.5388,-5.464,-5.3952,-5.3414,-5.2755,-5.2157,-5.1648,-5.1498,-5.1439,-5.1439,-5.1289,-5.1229,-5.1229,-5.1229,-5.1229,-7.486,-7.5237,-7.4485,-7.4841,-7.0502,-6.4718,-5.9342,0.0,0.0,0.0,-4.4045,-4.435,-4.3572,-4.479,0.0,0.0,0.0,0.0,0.0,0.0,0.0,0.0,0.0,0.0,0.0,0.0,0.0,0.0,0.0,-8.464,-8.464,-8.464,-8.464,-8.464,-8.464,-8.464,-8.464,-8.464,-8.4234,-8.349,-8.3558,-8.278,-8.1291,-8.1359,-8.0581,-7.9194,-7.916,-7.8314,-7.6995,-7.6927,-7.554,-7.3452,-7.2992,-7.1837,-7.0369,-6.9126,-6.8666,-6.8538,-6.7829,-6.747,-6.7368,-6.7368,-6.7368,-6.7368,-6.7368,-6.7831,-6.7883,-6.5893,-6.5794,-6.5923,-6.38,-6.3279,-6.3222,-6.3137,-6.3079,-6.3079,-6.3079,-6.3079,-6.3079,-6.3079,-6.3019,-6.2989,-6.2989,-6.2929,-6.269,-6.2091,-6.2002,-6.1762,-6.1104,-6.0475,-6.0027,-5.9907,-5.874,-5.7693,-5.7064,-5.6436,-5.6077,-5.6077,-5.491,-5.4192,-5.4132,-5.3443,-5.3054,-5.2995,-5.2426,-5.2127,-5.2127,-5.1498,-5.1229,-5.1229,-5.1229,-5.1229,-7.1495,-7.3089,-7.3091,-7.3256,-6.9089,-6.3493,-5.7932,0.0,0.0,-4.4186,-4.4006,-4.4339,-4.3518,-4.4275,-4.5669,0.0,0.0,0.0,0.0,0.0,0.0,0.0,0.0,0.0,0.0,0.0,0.0,0.0,0.0,-8.464,-8.464,-8.464,-8.464,-8.464,-8.464,-8.464,-8.464,-8.464,-8.4471,-8.4167,-8.3693,-8.2949,-8.1882,-8.056,-7.9155,-7.7703,-7.6366,-7.5206,-7.4189,-7.3337,-7.219,-7.0909,-7.029,-6.9353,-6.8345,-6.7837,-6.7663,-6.7599,-6.7311,-6.6679,-6.5941,-6.5941,-6.5382,-6.4868,-6.5674,-6.5569,-6.4961,-6.4132,-6.4084,-6.4122,-6.3282,-6.3079,-6.3079,-6.3079,-6.3079,-6.3079,-6.3079,-6.3079,-6.3079,-6.3079,-6.3079,-6.3079,-6.3079,-6.3079,-6.2989,-6.272,-6.269,-6.245,-6.1792,-6.1463,-6.0984,-6.0176,-5.8919,-5.8022,-5.7723,-5.7094,-5.6555,-5.6248,-5.5688,-5.5029,-5.4251,-5.3952,-5.3593,-5.3204,-5.2546,-5.2187,-5.2187,-5.1528,-5.1229,-5.1229,-5.1229,-5.1229,-6.6545,-6.9509,-7.0978,-7.0897,-6.6825,-6.1588,0.0,0.0,0.0,-4.3971,-4.3802,-4.4035,-4.3413,-4.3591,-4.424,0.0,0.0,0.0,0.0,0.0,0.0,0.0,0.0,0.0,0.0,0.0,0.0,0.0,-8.4143,-8.4089,-8.4553,-8.4143,-8.4089,-8.4553,-8.464,-8.464,-8.464,-8.4403,-8.42,-8.3964,-8.3186,-8.2098,-8.0703,-7.9115,-7.7226,-7.5189,-7.3637,-7.2499,-7.1817,-7.0599,-6.9777,-6.9212,-6.8087,-6.7229,-6.6522,-6.6154,-6.5994,-6.5994,-6.5994,-6.5328,-6.4512,-6.4512,-6.3845,-6.3279,-6.4209,-6.3845,-6.3079,-6.3079,-6.3079,-6.3079,-6.3079,-6.3079,-6.3079,-6.3079,-6.3079,-6.3079,-6.3079,-6.3079,-6.3079,-6.3079,-6.3079,-6.3079,-6.3079,-6.3079,-6.3079,-6.3079,-6.3079,-6.2899,-6.245,-6.2211,-6.1642,-6.0505,-5.9368,-5.862,-5.8441,-5.7782,-5.7214,-5.6765,-5.6555,-5.6017,-5.5089,-5.488,-5.4551,-5.4072,-5.3234,-5.2695,-5.2486,-5.1828,-5.1409,-5.1229,-5.1229,-5.1229,-6.0052,-6.4065,-6.7908,-6.7315,-6.2907,-5.8259,0.0,0.0,0.0,-4.3751,-4.3323,-4.329,-4.3323,-4.2583,-4.2841,-4.5274,-4.6221,0.0,0.0,0.0,0.0,0.0,0.0,0.0,0.0,0.0,0.0,0.0,-8.311,0.0,-8.45,-8.311,-8.2942,-8.4553,-8.464,-8.464,-8.464,-8.3896,-8.3152,-8.2408,-8.1663,-7.9779,-7.6967,-7.6934,-7.4972,-7.1583,-7.1497,-7.1112,-7.0375,-6.967,-6.9381,-6.9106,-6.7011,-6.5754,-6.4978,-6.3649,-6.3137,-6.3137,-6.3137,-6.3137,-6.3137,-6.3137,-6.3137,-6.3079,-6.3137,-6.3137,-6.3079,-6.3079,-6.3079,-6.3079,-6.3079,-6.3079,-6.3079,-6.3079,-6.3079,-6.3079,-6.3079,-6.3079,-6.3079,-6.3079,-6.3079,-6.3079,-6.3079,-6.3079,-6.3079,-6.3079,-6.3079,-6.3079,-6.3079,-6.251,-6.1852,-6.1164,-6.0475,-5.9787,-5.9159,-5.8501,-5.8112,-5.8112,-5.7453,-5.7064,-5.7064,-5.6466,-5.6188,-5.6188,-5.485,-5.3862,-5.3174,-5.2516,-5.1858,-5.1229,-5.1229,-5.1229,-5.5149,-5.7962,-5.9801,-5.9168,-5.677,-5.3892,-5.09,0.0,0.0,-4.2103,-4.2458,-4.2956,-4.1723,-4.316,-4.4658,-4.5082,-4.6683,-4.8857,0.0,0.0,0.0,0.0,0.0,0.0,0.0,0.0,0.0,0.0,-8.3476,-8.311,-8.1447,-8.1853,-8.2942,-8.4553,-8.4133,-8.3369,-8.2289,-8.1557,-8.0565,-7.926,-7.8019,-7.6981,-7.5991,-7.3983,-7.1964,-6.9941,-6.8852,-6.777,-6.6667,-6.5963,-6.5687,-6.557,-6.4505,-6.3914,-6.3706,-6.3279,-6.3079,-6.3079,-6.3079,-6.3079,-6.3079,-6.3079,-6.3079,-6.3079,-6.3079,-6.3079,-6.3079,-6.3079,-6.3079,-6.3079,-6.3079,-6.3079,-6.3079,-6.3079,-6.3079,-6.3079,-6.3079,-6.3079,-6.3079,-6.3079,-6.3079,-6.3079,-6.3079,-6.3079,-6.3079,-6.3079,-6.3079,-6.3079,-6.3079,-6.251,-6.1852,-6.1194,-6.0505,-5.9817,-5.9159,-5.8919,-5.859,-5.8141,-5.7483,-5.6915,-5.6466,-5.5837,-5.5508,-5.5508,-5.4192,-5.3623,-5.3892,-5.2755,-5.2336,-5.2546,-5.2546,-5.2546,0.0,-5.3294,-5.494,-5.4521,-5.2786,0.0,0.0,0.0,0.0,0.0,0.0,-4.2395,-4.0961,-4.259,-4.4201,-4.4189,-4.5571,-4.7732,0.0,0.0,0.0,0.0,0.0,0.0,0.0,0.0,0.0,-8.2288,-8.1993,-8.1239,-7.9864,-7.9878,-8.0698,-8.2343,-8.1935,-8.1015,-7.9578,-7.8803,-7.7861,-7.665,-7.5438,-7.432,-7.3206,-7.1401,-6.934,-6.7249,-6.6311,-6.5383,0.0,-6.3917,-6.3797,-6.3947,-6.3318,-6.3079,-6.3079,-6.3079,-6.3079,-6.3079,-6.3079,-6.3079,-6.3079,-6.3079,-6.3079,-6.3079,-6.3079,-6.3079,-6.3079,-6.3079,-6.3079,-6.3079,-6.3079,-6.3079,-6.3079,-6.3079,-6.3079,-6.3079,-6.3079,-6.3079,-6.3079,-6.3079,-6.3079,-6.3079,-6.3079,-6.3079,-6.3079,-6.3079,-6.3079,-6.3079,-6.3079,-6.272,-6.2211,-6.1553,-6.0864,-6.0206,-5.9518,-5.9249,-5.883,-5.8171,-5.7723,-5.7184,-5.6555,-5.5897,-5.5568,-5.5568,-5.4491,-5.4042,-5.4221,-5.3114,-5.2785,-5.3174,-5.3174,-5.3174,0.0,0.0,0.0,0.0,0.0,0.0,0.0,0.0,0.0,0.0,0.0,0.0,0.0,-4.1372,-4.2178,-4.2958,-4.3639,-4.5898,0.0,0.0,0.0,0.0,0.0,0.0,0.0,0.0,0.0,-8.1853,-7.9125,-7.8059,-7.9374,-7.7465,-7.6901,-7.8254,-7.8283,-7.7672,-7.6571,-7.5803,-7.501,-7.425,-7.349,-7.1737,-6.905,-6.8989,-6.7161,-6.4006,-6.4006,-6.3977,-6.3887,-6.3318,-6.3408,-6.3887,-6.3288,-6.3079,-6.3079,-6.3079,-6.3079,-6.3079,-6.3079,-6.3079,-6.3079,-6.3079,-6.3079,-6.3079,-6.3079,-6.3079,-6.3079,-6.3079,-6.3079,-6.3079,-6.3079,-6.3079,-6.3079,-6.3079,-6.3079,-6.3079,-6.3079,-6.3079,-6.3079,-6.3079,-6.3079,-6.3079,-6.3079,-6.3079,-6.3079,-6.3079,-6.3079,-6.3079,-6.3079,-6.3049,-6.275,-6.2091,-6.1433,-6.0775,-6.0086,-5.9458,-5.883,-5.8231,-5.8112,-5.7752,-5.7124,-5.6466,-5.6158,-5.6158,-5.5508,-5.488,-5.4221,-5.3623,-5.3324,-5.3324,-5.3324,-5.3324,-4.2192,0.0,-4.4167,-4.4167,-4.3569,0.0,0.0,0.0,0.0,0.0,0.0,0.0,0.0,0.0,-4.4216,-4.4006,-4.5563,-4.7822,0.0,0.0,0.0,0.0,0.0,0.0,0.0,0.0,0.0,-7.8534,-7.8909,-7.825,-7.6166,-7.6184,-7.5451,-7.3571,-7.3053,-7.3227,-7.421,-7.293,-7.143,-6.955,-6.8879,-6.7909,-6.6763,-6.6249,-6.5259,-6.4006,-6.4006,-6.3737,-6.3288,-6.3139,-6.3169,-6.3288,-6.3139,-6.3079,-6.3079,-6.3079,-6.3079,-6.3079,-6.3079,-6.3079,-6.3079,-6.3079,-6.3079,-6.3079,-6.3079,-6.3079,-6.3079,-6.3079,-6.3079,-6.3079,-6.3079,-6.3079,-6.3079,-6.3079,-6.3079,-6.3079,-6.3079,-6.3079,-6.3079,-6.3079,-6.3079,-6.3079,-6.3079,-6.3079,-6.3079,-6.3079,-6.3079,-6.3079,-6.3079,-6.263,-6.2061,-6.1433,-6.0745,-6.0057,-5.9398,-5.9189,-5.9039,-5.889,-5.7902,-5.7274,-5.7094,-5.6017,-5.5418,-5.5418,-5.5269,-5.488,-5.4221,-5.4551,-5.473,-5.473,-5.473,-5.473,-4.0367,-4.0935,-4.1534,-4.2132,-4.1833,-4.1294,0.0,0.0,0.0,0.0,0.0,0.0,0.0,0.0,0.0,0.0,-4.6295,0.0,0.0,0.0,0.0,0.0,0.0,0.0,0.0,0.0,-7.8313,-7.7354,-7.745,-7.6673,-7.4556,-7.4334,-7.3434,-7.1523,-7.0201,-7.0019,-7.0893,-6.9854,-6.8577,-6.7059,-6.64,-6.5742,-6.5084,-6.4725,-6.4186,-6.3588,-6.3588,-6.3378,-6.3079,-6.3079,-6.3079,-6.3079,-6.3079,-6.3079,-6.3079,-6.3079,-6.3079,-6.3079,-6.3079,-6.3079,-6.3079,-6.3079,-6.3079,-6.3079,-6.3079,-6.3079,-6.3079,-6.3079,-6.3079,-6.3079,-6.3079,-6.3079,-6.3079,-6.3079,-6.3079,-6.3079,-6.3079,-6.3079,-6.3079,-6.3079,-6.3079,-6.3079,-6.3079,-6.3079,-6.3079,-6.3079,-6.3079,-6.3079,-6.3079,-6.278,-6.2421,-6.2061,-6.1134,-6.0416,-6.0057,-5.9458,-5.8979,-5.868,-5.7962,-5.7304,-5.6705,-5.6017,-5.5508,-5.5209,-5.5179,-5.5029,-5.467,-5.5029,-5.5179,-5.5179,-5.5179,-5.5179,-3.9948,-4.0696,-4.1713,-4.2482,-4.1983,-4.1235,0.0,0.0,0.0,0.0,0.0,0.0,0.0,0.0,0.0,0.0,0.0,0.0,0.0,0.0,0.0,0.0,0.0,0.0,0.0,-7.7085,-7.6931,-7.6931,-7.548,-7.433,-7.3762,-7.2295,-7.1128,-7.047,-6.8645,-6.7627,-6.7508,-6.7059,-6.646,-6.5682,-6.5144,-6.4515,-6.3857,-6.3857,-6.3558,-6.3079,-6.3079,-6.3079,-6.3079,-6.3079,-6.3079,-6.3079,-6.3079,-6.3079,-6.3079,-6.3079,-6.3079,-6.3079,-6.3079,-6.3079,-6.3079,-6.3079,-6.3079,-6.3079,-6.3079,-6.3079,-6.3079,-6.3079,-6.3079,-6.3079,-6.3079,-6.3079,-6.3079,-6.3079,-6.3079,-6.3079,-6.3079,-6.3079,-6.3079,-6.3079,-6.3079,-6.3079,-6.3079,-6.3079,-6.3079,-6.3079,-6.3079,-6.3079,-6.3079,-6.3079,-6.3049,-6.2929,-6.1852,-6.1074,-6.0954,-5.9817,-5.886,-5.8321,-5.8171,-5.7573,-5.6376,-5.6278,-5.6008,-5.5478,-5.5299,-5.5299,-5.5478,-5.5269,-5.5239,-5.5329,-5.5239,-5.5179,-4.1512,-4.2081,-4.1901,-4.0397,-4.0277,-4.0546,0.0,0.0,0.0,0.0,0.0,0.0,0.0,0.0,0.0,0.0,0.0,0.0,0.0,0.0,0.0,0.0,0.0,0.0,0.0,-7.4285,-7.5248,-7.5248,-7.3956,-7.3163,-7.3073,-7.0769,-6.9123,-6.8435,-6.7059,-6.6041,-6.5473,-6.5922,-6.5533,-6.4306,-6.4216,-6.3827,-6.3228,-6.3228,-6.3169,-6.3079,-6.3079,-6.3079,-6.3079,-6.3079,-6.3079,-6.3079,-6.3079,-6.3079,-6.3079,-6.3079,-6.3079,-6.3079,-6.3079,-6.3079,-6.3079,-6.3079,-6.3079,-6.3079,-6.3079,-6.3079,-6.3079,-6.3079,-6.3079,-6.3079,-6.3079,-6.3079,-6.3079,-6.3079,-6.3079,-6.3079,-6.3079,-6.3079,-6.3079,-6.3079,-6.3079,-6.3079,-6.3079,-6.3079,-6.3079,-6.3079,-6.3079,-6.3079,-6.3079,-6.3079,-6.2869,-6.2301,-6.1553,-6.0864,-6.0296,-5.9548,-5.9069,-5.8949,-5.8441,-5.7782,-5.6974,-5.6436,-5.6376,-5.6795,-5.5748,-5.5718,-5.6795,-5.5718,-5.5478,-5.6017,-5.5448,-5.5179,-4.0636,-4.1025,-4.1175,-4.0606,-4.1235,-4.1893,0.0,0.0,0.0,0.0,0.0,0.0,0.0,0.0,0.0,0.0,0.0,0.0,0.0,0.0,0.0,0.0,0.0,0.0,-7.4061,-7.424,-7.436,-7.436,-7.3103,-7.2206,-7.1846,-6.9662,-6.8136,-6.7478,-6.6161,-6.5144,-6.4485,-6.4784,-6.4605,-6.4006,-6.3647,-6.3348,-6.3079,-6.3079,-6.3079,-6.3079,-6.3079,-6.3079,-6.3079,-6.3079,-6.3079,-6.3079,-6.3079,-6.3079,-6.3079,-6.3079,-6.3079,-6.3079,-6.3079,-6.3079,-6.3079,-6.3079,-6.3079,-6.3079,-6.3079,-6.3079,-6.3079,-6.3079,-6.3079,-6.3079,-6.3079,-6.3079,-6.3079,-6.3079,-6.3079,-6.3079,-6.3079,-6.3079,-6.3079,-6.3079,-6.3079,-6.3079,-6.3079,-6.3079,-6.3079,-6.3079,-6.3079,-6.3079,-6.3079,-6.3079,-6.2959,-6.266,-6.1732,-6.0984,-6.0685,-5.9697,-5.9099,-5.9099,-5.8501,-5.7992,-5.7663,-5.7034,-5.6795,-5.7094,-5.6526,-5.6496,-5.7094,-5.6496,-5.6376,-5.6675,-5.6346,-5.6226,-3.9918,-4.0247,-4.0816,-4.1624,0.0,0.0,0.0,0.0,0.0,0.0,0.0,0.0,0.0,0.0,0.0,0.0,0.0,0.0,0.0,0.0,0.0,-7.3851,-7.3672,-7.3911,-7.5318,-7.436,-7.3582,-7.3432,-7.2176,-7.1068,-7.026,-6.8345,-6.6969,-6.6311,-6.5173,-6.4306,-6.3797,-6.3767,-6.3767,-6.3767,-6.3318,-6.3079,-6.3079,-6.3079,-6.3079,-6.3079,-6.3079,-6.3079,-6.3079,-6.3079,-6.3079,-6.3079,-6.3079,-6.3079,-6.3079,-6.3079,-6.3079,-6.3079,-6.3079,-6.3079,-6.3079,-6.3079,-6.3079,-6.3079,-6.3079,-6.3079,-6.3079,-6.3079,-6.3079,-6.3079,-6.3079,-6.3079,-6.3079,-6.3079,-6.3079,-6.3079,-6.3079,-6.3079,-6.3079,-6.3079,-6.3079,-6.3079,-6.3079,-6.3079,-6.3079,-6.3079,-6.3079,-6.3079,-6.3079,-6.3079,-6.3079,-6.3079,-6.1912,-6.1044,-6.0894,-5.9937,-5.9398,-5.9578,-5.8949,-5.853,-5.8351,-5.7842,-5.7573,-5.7573,-5.7244,-5.7244,-5.7573,-5.7244,-5.7184,-5.7334,-5.7184,-5.7094,-4.0905,-4.1265,-4.1624,-4.288,0.0,0.0,0.0,0.0,0.0,0.0,0.0,0.0,0.0,0.0,0.0,0.0,0.0,0.0,0.0,0.0,-7.5258,-7.4839,-7.4779,-7.454,-7.4091,-7.3402,-7.2714,-7.2086,-7.0829,-6.9542,-6.8256,-6.6311,-6.4934,-6.4246,-6.3558,-6.3199,-6.3139,-6.3139,-6.3139,-6.3139,-6.3109,-6.3079,-6.3079,-6.3079,-6.3079,-6.3079,-6.3079,-6.3079,-6.3079,-6.3079,-6.3079,-6.3079,-6.3079,-6.3079,-6.3079,-6.3079,-6.3079,-6.3079,-6.3079,-6.3079,-6.3079,-6.3079,-6.3079,-6.3079,-6.3079,-6.3079,-6.3079,-6.3079,-6.3079,-6.3079,-6.3079,-6.3079,-6.3079,-6.3079,-6.3079,-6.3079,-6.3079,-6.3079,-6.3079,-6.3079,-6.3079,-6.3079,-6.3079,-6.3079,-6.3079,-6.3079,-6.3079,-6.3079,-6.3079,-6.3079,-6.3079,-6.3079,-6.1912,-6.0864,-6.0206,-6.0057,-6.0296,-6.0924,-6.0326,-5.9668,-5.9069,-5.8979,-5.8949,-5.8949,-5.7723,-5.7723,-5.8949,-5.7723,-5.7423,-5.8022,-5.7393,-5.7094,-4.0038,-4.0756,-4.1632,-4.2491,0.0,0.0,0.0,0.0,0.0,0.0,0.0,0.0,0.0,0.0,0.0,0.0,0.0,0.0,0.0,0.0,-7.5018,-7.436,-7.427,-7.3821,-7.2744,-7.2056,-7.1398,-7.0739,-6.9482,-6.8315,-6.7418,-6.5892,-6.4695,-6.4006,-6.3408,-6.3079,-6.3079,-6.3079,-6.3079,-6.3079,-6.3079,-6.3079,-6.3079,-6.3079,-6.3079,-6.3079,-6.3079,-6.3079,-6.3079,-6.3079,-6.3079,-6.3079,-6.3079,-6.3079,-6.3079,-6.3079,-6.3079,-6.3079,-6.3079,-6.3079,-6.3079,-6.3079,-6.3079,-6.3079,-6.3079,-6.3079,-6.3079,-6.3079,-6.3079,-6.3079,-6.3079,-6.3079,-6.3079,-6.3079,-6.3079,-6.3079,-6.3079,-6.3079,-6.3079,-6.3079,-6.3079,-6.3079,-6.3079,-6.3079,-6.3079,-6.3079,-6.3079,-6.3079,-6.3079,-6.3079,-6.3079,-6.3079,-6.2271,-6.1463,-6.0775,-6.0715,-6.0835,-6.1104,-6.0864,-6.0625,-6.0356,-6.0356,-6.0356,-6.0356,-5.9847,-5.9638,-5.9727,-5.9189,-5.889,-5.874,-5.8471,-5.8351,-3.9373,-4.0217,-4.1294,0.0,0.0,0.0,0.0,0.0,0.0,0.0,0.0,0.0,0.0,0.0,0.0,0.0,0.0,0.0,0.0,0.0,-7.4001,-7.3343,-7.2894,-7.2295,-7.1368,-7.05,-6.9722,-6.9093,-6.7986,-6.6969,-6.6101,-6.5203,-6.4395,-6.3737,-6.3288,-6.3079,-6.3079,-6.3079,-6.3079,-6.3079,-6.3079,-6.3079,-6.3079,-6.3079,-6.3079,-6.3079,-6.3079,-6.3079,-6.3079,-6.3079,-6.3079,-6.3079,-6.3079,-6.3079,-6.3079,-6.3079,-6.3079,-6.3079,-6.3079,-6.3079,-6.3079,-6.3079,-6.3079,-6.3079,-6.3079,-6.3079,-6.3079,-6.3079,-6.3079,-6.3079,-6.3079,-6.3079,-6.3079,-6.3079,-6.3079,-6.3079,-6.3079,-6.3079,-6.3079,-6.3079,-6.3079,-6.3079,-6.3079,-6.3079,-6.3079,-6.3079,-6.3079,-6.3079,-6.3079,-6.3079,-6.2989,-6.278,-6.2361,-6.1912,-6.1463,-6.1433,-6.1523,-6.1732,-6.1732,-6.1553,-6.1134,-6.1313,-6.1224,-6.0805,-6.0775,-6.0565,-6.0086,-5.9877,-5.9668,-5.9398,-5.9189,-5.9099,-3.9403,-3.9918,0.0,0.0,0.0,0.0,0.0,0.0,0.0,0.0,0.0,0.0,0.0,0.0,0.0,0.0,0.0,0.0,0.0,-7.3313,-7.2624,-7.1936,-7.0739,-6.9961,-6.9961,-6.8734,-6.7687,-6.7029,-6.637,-6.5413,-6.4066,-6.4006,-6.3707,-6.3109,-6.3079,-6.3079,-6.3079,-6.3079,-6.3079,-6.3079,-6.3049,-6.3079,-6.3079,-6.3079,-6.3079,-6.3079,-6.3079,-6.3079,-6.3079,-6.3079,-6.3079,-6.3079,-6.3079,-6.3079,-6.3079,-6.3079,-6.3079,-6.3079,-6.3079,-6.3079,-6.3079,-6.3079,-6.3079,-6.3079,-6.3079,-6.3079,-6.3079,-6.3079,-6.3079,-6.3079,-6.3079,-6.3079,-6.3079,-6.3079,-6.3079,-6.3079,-6.3079,-6.3079,-6.3079,-6.3079,-6.3079,-6.3079,-6.3079,-6.3079,-6.3079,-6.3079,-6.3079,-6.3079,-6.3079,-6.3079,-6.2839,-6.2181,-6.2121,-6.2121,-6.2121,-6.2121,-6.2391,-6.3049,-6.3079,-6.248,-6.1194,-6.1762,-6.1463,-6.0146,-6.0116,-6.0116,-6.0116,-5.9458,-5.9458,-6.0086,-5.9428,-5.9129,-3.9978,0.0,0.0,0.0,0.0,0.0,0.0,0.0,0.0,0.0,0.0,0.0,0.0,0.0,0.0,-6.5503,-6.9093,-7.1936,-7.2415,-7.1906,-7.1248,-7.062,-6.9393,-6.8375,-6.7926,-6.7089,-6.6311,-6.5652,-6.5443,-6.4934,-6.4036,-6.4006,-6.3707,-6.3109,-6.3079,-6.3079,-6.3079,-6.263,-6.2391,-6.2391,-6.1912,-6.2181,-6.3079,-6.3079,-6.3079,-6.3049,-6.26,-6.2391,-6.2391,-6.2391,-6.266,-6.3079,-6.3079,-6.3079,-6.3079,-6.3079,-6.3079,-6.3079,-6.3079,-6.3079,-6.3079,-6.3079,-6.3079,-6.3079,-6.3079,-6.3079,-6.3079,-6.3079,-6.3079,-6.3079,-6.3079,-6.3079,-6.3079,-6.3079,-6.3079,-6.3079,-6.3079,-6.3079,-6.3079,-6.3079,-6.3079,-6.3079,-6.3079,-6.3079,-6.3079,-6.3079,-6.3079,-6.3079,-6.3079,-6.3079,-6.2989,-6.281,-6.278,-6.278,-6.278,-6.278,-6.2869,-6.3079,-6.3079,-6.2899,-6.251,-6.269,-6.26,-6.2211,-6.2181,-6.1972,-6.1493,-6.1313,-6.1074,-6.0805,-6.0116,-5.9787,0.0,0.0,0.0,0.0,0.0,0.0,0.0,0.0,0.0,0.0,0.0,0.0,0.0,0.0,0.0,-6.6071,-6.8645,-7.0679,-7.1068,-7.056,-6.9812,-6.8884,-6.7837,-6.6939,-6.6281,-6.5592,-6.5054,-6.4635,-6.4395,-6.4066,-6.3647,-6.3378,-6.3199,-6.3079,-6.257,-6.2421,-6.269,-6.2032,-6.1702,-6.1702,-6.1313,-6.1523,-6.2301,-6.2301,-6.245,-6.266,-6.2002,-6.1702,-6.1732,-6.2002,-6.2331,-6.272,-6.2989,-6.3079,-6.3079,-6.3079,-6.3079,-6.3079,-6.3079,-6.3079,-6.3019,-6.278,-6.2869,-6.3019,-6.278,-6.2869,-6.3079,-6.3079,-6.3079,-6.3079,-6.3079,-6.3079,-6.3079,-6.3079,-6.3079,-6.3079,-6.3079,-6.3079,-6.3079,-6.3079,-6.3079,-6.3079,-6.3079,-6.3079,-6.3079,-6.3079,-6.3079,-6.3079,-6.3079,-6.3079,-6.3079,-6.3079,-6.3079,-6.3079,-6.3079,-6.3079,-6.3079,-6.3079,-6.3079,-6.3079,-6.3079,-6.2839,-6.269,-6.269,-6.2421,-6.2241,-6.2091,-6.1822,-6.1642,-6.1493,-6.0805,-6.0356,0.0,0.0,0.0,0.0,0.0,0.0,0.0,0.0,0.0,0.0,0.0,0.0,0.0,0.0,-6.4964,-6.7388,-6.8854,-6.9722,-6.9782,-6.9183,-6.8286,-6.7059,-6.6251,-6.5592,-6.4994,-6.4306,-6.3917,-6.3917,-6.3348,-6.2989,-6.2989,-6.2361,-6.2271,-6.2869,-6.1732,-6.1403,-6.2002,-6.1283,-6.0924,-6.0924,-6.0805,-6.0775,-6.0835,-6.1044,-6.1403,-6.1882,-6.1283,-6.1014,-6.1074,-6.1672,-6.1942,-6.2061,-6.272,-6.2989,-6.2989,-6.3049,-6.3079,-6.3079,-6.3019,-6.2989,-6.2869,-6.2211,-6.2421,-6.278,-6.2181,-6.248,-6.2989,-6.2989,-6.3019,-6.3079,-6.3079,-6.3079,-6.3079,-6.3079,-6.3079,-6.3079,-6.3079,-6.3079,-6.3079,-6.3079,-6.3079,-6.3079,-6.3079,-6.3079,-6.3079,-6.3079,-6.3079,-6.3079,-6.3079,-6.3079,-6.3079,-6.3079,-6.3079,-6.3079,-6.3079,-6.3079,-6.3079,-6.3079,-6.3079,-6.3079,-6.3079,-6.251,-6.2181,-6.2181,-6.1583,-6.1583,-6.2181,-6.1583,-6.1613,-6.2181,-6.1493,-6.0864,0.0,0.0,0.0,0.0,0.0,0.0,0.0,0.0,0.0,0.0,0.0,0.0,0.0,0.0,-6.5772,-6.634,-6.7119,-6.7807,-6.8345,-6.7388,-6.655,-6.6251,-6.5173,-6.4366,-6.4246,-6.3647,-6.3258,-6.3258,-6.269,-6.2301,-6.2301,-6.1672,-6.1373,-6.1523,-6.1253,-6.1194,-6.1313,-6.0146,-5.9548,-5.9518,-5.8471,-5.8231,-5.883,-6.0386,-6.0894,-6.0505,-6.0356,-6.0296,-6.0326,-6.0446,-6.0835,-6.1403,-6.2061,-6.2301,-6.2361,-6.2899,-6.3079,-6.2989,-6.248,-6.2301,-6.2181,-6.1553,-6.1433,-6.1493,-6.1373,-6.1792,-6.2301,-6.2301,-6.269,-6.3079,-6.3079,-6.3079,-6.3079,-6.3079,-6.3079,-6.3079,-6.3079,-6.3079,-6.3079,-6.3079,-6.3079,-6.3079,-6.3079,-6.3079,-6.3079,-6.3079,-6.3079,-6.3079,-6.3079,-6.3079,-6.3079,-6.3079,-6.3079,-6.3079,-6.3079,-6.3079,-6.3079,-6.3079,-6.3079,-6.3079,-6.3079,-6.2929,-6.2869,-6.2869,-6.272,-6.272,-6.2869,-6.272,-6.272,-6.2839,-6.2181,-6.1822,0.0,0.0,0.0,0.0,0.0,0.0,0.0,0.0,0.0,0.0,0.0,0.0,0.0,0.0,-6.5533,-6.5533,-6.5832,-6.6161,-6.652,-6.5981,-6.5413,-6.5084,-6.4425,-6.3887,-6.3588,-6.2989,-6.26,-6.26,-6.2002,-6.1613,-6.1613,-6.0685,-6.0296,-6.0625,-5.9697,-5.9338,-5.9668,-5.865,-5.8141,-5.8141,-5.7423,-5.7274,-5.7693,-5.9069,-5.9308,-5.865,-5.865,-5.883,-5.9159,-5.9488,-6.0027,-6.0685,-6.1373,-6.1613,-6.1672,-6.2002,-6.2121,-6.2091,-6.1732,-6.1613,-6.1523,-6.0835,-6.0835,-6.1044,-6.0715,-6.1313,-6.2091,-6.2091,-6.257,-6.3079,-6.3079,-6.3079,-6.3079,-6.3079,-6.3079,-6.3079,-6.3079,-6.3079,-6.3079,-6.3079,-6.3079,-6.3079,-6.3079,-6.3079,-6.3079,-6.3079,-6.3079,-6.3079,-6.3079,-6.3079,-6.3079,-6.3079,-6.3079,-6.3079,-6.3079,-6.3079,-6.3079,-6.3079,-6.3079,-6.3079,-6.3079,-6.3079,-6.3079,-6.3079,-6.278,-6.275,-6.3079,-6.3079,-6.3079,-6.3079,-6.272,-6.2391,0.0,0.0,0.0,0.0,0.0,0.0,0.0,0.0,0.0,0.0,0.0,0.0,0.0,0.0,-6.4725,-6.4844,-6.4755,-6.4725,-6.4844,-6.4755,-6.4485,-6.3917,-6.3737,-6.3468,-6.2959,-6.2301,-6.1882,-6.1762,-6.1134,-6.0715,-6.0595,-5.9428,-5.9009,-5.9548,-5.7962,-5.7334,-5.7782,-5.7124,-5.6705,-5.6585,-5.6466,-5.6466,-5.6615,-5.7184,-5.7334,-5.7094,-5.7214,-5.7603,-5.8171,-5.883,-5.9428,-5.9967,-6.0685,-6.0924,-6.0954,-6.1074,-6.1104,-6.1104,-6.0984,-6.0924,-6.0835,-6.0146,-6.0296,-6.0655,-6.0086,-6.0775,-6.1762,-6.1882,-6.2391,-6.2929,-6.3049,-6.3079,-6.3079,-6.3079,-6.3079,-6.3079,-6.3079,-6.3079,-6.3079,-6.3079,-6.3079,-6.3079,-6.3079,-6.3079,-6.3079,-6.3079,-6.3079,-6.3079,-6.3079,-6.3079,-6.3079,-6.3079,-6.3079,-6.3079,-6.3079,-6.3079,-6.3079,-6.3079,-6.3079,-6.3079,-6.3079,-6.3079,-6.3079,-6.3079,-6.254,-6.254,-6.3079,-6.3079,-6.3079,-6.3079,-6.3079,-6.278,0.0,0.0,0.0,0.0,0.0,0.0,0.0,0.0,0.0,0.0,0.0,0.0,0.0,-6.3348,-6.3498,-6.4036,-6.3677,-6.3528,-6.4066,-6.3677,-6.3318,-6.3199,-6.269,-6.2331,-6.2241,-6.1642,-6.0984,-6.0386,-5.9757,-5.9129,-5.856,-5.7782,-5.7393,-5.7483,-5.7244,-5.6885,-5.6436,-5.5777,-5.5149,-5.4581,-5.3982,-5.4012,-5.461,-5.47,-5.5598,-5.7124,-5.7723,-5.8052,-5.8171,-5.883,-5.9159,-5.9308,-5.9967,-6.0206,-6.0296,-6.0894,-6.1104,-6.1044,-6.0446,-6.0206,-6.0116,-5.9458,-5.9308,-5.9368,-5.9249,-5.9757,-6.0475,-6.1074,-6.1732,-6.2361,-6.2929,-6.3079,-6.3079,-6.3079,-6.3079,-6.3079,-6.3079,-6.3079,-6.3079,-6.3079,-6.3079,-6.3079,-6.3079,-6.3079,-6.3079,-6.3079,-6.3079,-6.3079,-6.3079,-6.3079,-6.3079,-6.3079,-6.3079,-6.3079,-6.3079,-6.3079,-6.3079,-6.3079,-6.3079,-6.3079,-6.3079,-6.3079,-6.3079,-6.3079,-6.2989,-6.2989,-6.3079,-6.3079,-6.3079,-6.3079,-6.3079,-6.3019,0.0,0.0,0.0,0.0,0.0,0.0,0.0,0.0,0.0,0.0,0.0,0.0,0.0,-6.3079,-6.3169,-6.3438,-6.3258,-6.3169,-6.3438,-6.3258,-6.2929,-6.257,-6.2271,-6.1942,-6.1583,-6.0924,-6.0266,-5.9578,-5.8919,-5.8261,-5.7573,-5.6585,-5.6017,-5.6017,-5.5299,-5.476,-5.4491,-5.4221,-5.3922,-5.3623,-5.3324,-5.3533,-5.4221,-5.4221,-5.488,-5.6047,-5.6346,-5.6885,-5.7573,-5.7872,-5.8411,-5.9129,-5.9428,-5.9548,-5.9578,-5.9877,-5.9997,-5.9937,-5.9638,-5.9548,-5.9488,-5.9189,-5.9099,-5.9099,-5.9099,-5.9847,-6.0715,-6.1044,-6.1852,-6.272,-6.2989,-6.3079,-6.3079,-6.3079,-6.3079,-6.3079,-6.3079,-6.3079,-6.3079,-6.3079,-6.3079,-6.3079,-6.3079,-6.3079,-6.3079,-6.3079,-6.3079,-6.3079,-6.3079,-6.3079,-6.3079,-6.3079,-6.3079,-6.3079,-6.3079,-6.3079,-6.3079,-6.3079,-6.3079,-6.3079,-6.3079,-6.3079,-6.3079,-6.3079,-6.3079,-6.3079,-6.3079,-6.3079,-6.3079,-6.3079,-6.3079,-6.2869,0.0,0.0,0.0,0.0,0.0,0.0,0.0,0.0,0.0,0.0,0.0,0.0,0.0,-6.2839,-6.3019,-6.2839,-6.2959,-6.3079,-6.3079,-6.2929,-6.266,-6.2151,-6.1792,-6.1343,-6.0655,-5.9997,-5.9249,-5.8411,-5.7752,-5.7094,-5.6406,-5.5149,-5.4521,-5.467,-5.3533,-5.2845,-5.2665,-5.2366,-5.2366,-5.2665,-5.2516,-5.2875,-5.3713,-5.3862,-5.4311,-5.497,-5.5299,-5.5987,-5.6885,-5.7034,-5.7782,-5.886,-5.886,-5.886,-5.886,-5.886,-5.874,-5.862,-5.88,-5.886,-5.889,-5.9039,-5.9099,-5.9099,-5.9099,-5.9937,-6.0894,-6.1074,-6.1942,-6.2869,-6.3019,-6.3079,-6.3079,-6.3079,-6.3079,-6.3079,-6.3079,-6.3079,-6.3079,-6.3079,-6.3079,-6.3079,-6.3079,-6.3079,-6.3079,-6.3079,-6.3079,-6.3079,-6.3079,-6.3079,-6.3079,-6.3079,-6.3079,-6.3079,-6.3079,-6.3079,-6.3079,-6.3079,-6.3079,-6.3079,-6.3079,-6.3079,-6.3079,-6.3079,-6.3079,-6.3079,-6.3079,-6.3079,-6.3079,-6.3079,-6.3079,-6.272,0.0,0.0,0.0,0.0,0.0,0.0,0.0,0.0,0.0,0.0,0.0,0.0,0.0,-6.2241,-6.2869,-6.2241,-6.266,-6.3079,-6.3079,-6.254,-6.2121,-6.2091,-6.0984,-5.9937,-5.9279,-5.862,-5.7693,-5.6406,-5.5718,-5.5059,-5.4401,-5.3084,-5.2636,-5.3264,-5.2606,-5.1947,-5.1319,-5.0092,-5.0092,-5.1319,-5.0644,-5.105,-5.2336,-5.2935,-5.3623,-5.4341,-5.5598,-5.6218,-5.6308,-5.6855,-5.7513,-5.8171,-5.8171,-5.8171,-5.8171,-5.8171,-5.7752,-5.7304,-5.7932,-5.8171,-5.8291,-5.889,-5.9099,-5.9099,-5.9099,-5.9578,-6.0266,-6.0924,-6.1613,-6.2301,-6.2899,-6.3079,-6.3079,-6.3079,-6.3079,-6.3079,-6.3079,-6.3079,-6.3079,-6.3079,-6.3079,-6.3079,-6.3079,-6.3079,-6.3079,-6.3079,-6.3079,-6.3079,-6.3079,-6.3079,-6.3079,-6.3079,-6.3079,-6.3079,-6.3079,-6.3079,-6.3079,-6.3079,-6.3079,-6.3079,-6.3079,-6.3079,-6.3079,-6.3079,-6.3079,-6.3079,-6.3079,-6.3079,-6.3079,-6.3079,-6.3079,-6.272,0.0,0.0,0.0,0.0,0.0,0.0,0.0,0.0,0.0,0.0,0.0,0.0,0.0,0.0,-6.1732,-6.1493,-6.1672,-6.1972,-6.2391,-6.1882,-6.1463,-6.1463,-6.0266,-5.9189,-5.853,-5.7872,-5.6944,-5.5628,-5.5329,-5.47,-5.3623,-5.2306,-5.1678,-5.1917,-5.087,-5.0212,-4.9972,-4.9912,-5.0122,-5.0554,-5.0734,-5.1349,-5.2217,-5.2875,-5.3563,-5.4251,-5.5149,-5.5777,-5.6248,-5.6406,-5.6885,-5.7453,-5.7453,-5.7453,-5.7513,-5.7962,-5.7962,-5.7842,-5.853,-5.874,-5.88,-5.9039,-5.9099,-5.9189,-5.9608,-6.0206,-6.0894,-6.1553,-6.2211,-6.278,-6.3019,-6.3079,-6.3079,-6.3079,-6.3079,-6.3079,-6.3079,-6.3079,-6.3079,-6.3079,-6.3079,-6.3079,-6.3079,-6.3079,-6.3079,-6.3079,-6.3079,-6.3079,-6.3079,-6.3079,-6.3079,-6.3079,-6.3079,-6.3079,-6.3079,-6.3079,-6.3079,-6.3079,-6.3079,-6.3079,-6.3079,-6.3079,-6.3079,-6.3079,-6.3079,-6.3079,-6.3079,-6.266,-6.245,-6.245,-6.2002,-6.1463,0.0,0.0,0.0,0.0,0.0,0.0,0.0,0.0,0.0,0.0,0.0,0.0,0.0,0.0,-5.9907,-6.0356,-6.0625,-6.0924,-6.1373,-6.0655,-6.0116,-6.0116,-5.9129,-5.8082,-5.7214,-5.6735,-5.5927,-5.461,-5.4311,-5.3713,-5.2576,-5.1289,-5.0451,-5.0242,-4.9404,-4.909,-4.9299,-4.9254,-4.9538,-5.0196,-5.0451,-5.102,-5.1887,-5.2785,-5.3443,-5.3892,-5.4581,-5.5239,-5.5837,-5.5837,-5.6226,-5.6795,-5.6795,-5.6795,-5.6825,-5.7304,-5.7334,-5.7274,-5.8141,-5.8441,-5.8501,-5.8949,-5.9099,-5.9219,-5.9877,-6.0565,-6.1253,-6.1912,-6.257,-6.3079,-6.3079,-6.3079,-6.3079,-6.3079,-6.3079,-6.3079,-6.3079,-6.3079,-6.3079,-6.3079,-6.3079,-6.3079,-6.3079,-6.3079,-6.3079,-6.3079,-6.3079,-6.3079,-6.3079,-6.3079,-6.3079,-6.3079,-6.3079,-6.3079,-6.3079,-6.3079,-6.3079,-6.3079,-6.3079,-6.3079,-6.3079,-6.3079,-6.3079,-6.3079,-6.3079,-6.2959,-6.275,-6.254,-6.2421,-6.2421,-6.1762,-6.0954,0.0,0.0,0.0,0.0,0.0,0.0,0.0,0.0,0.0,0.0,0.0,0.0,0.0,0.0,-5.7423,-5.874,-5.9548,-5.9997,-6.0027,-5.8919,-5.8112,-5.8112,-5.7483,-5.6555,-5.5299,-5.5149,-5.4581,-5.3264,-5.2546,-5.1887,-5.1229,-4.9942,-4.897,-4.8267,-4.8267,-4.8566,-4.9239,-4.7967,-4.8297,-5.0166,-4.9583,-4.9972,-5.1259,-5.2546,-5.3144,-5.3204,-5.3892,-5.4551,-5.5119,-5.5149,-5.5538,-5.6188,-5.6188,-5.6188,-5.6188,-5.6218,-5.5777,-5.5388,-5.6675,-5.7124,-5.7334,-5.868,-5.9099,-5.9219,-5.9907,-6.0595,-6.1253,-6.1942,-6.26,-6.3079,-6.3079,-6.3079,-6.3079,-6.3079,-6.3079,-6.3079,-6.3079,-6.3079,-6.3079,-6.3079,-6.3079,-6.3079,-6.3079,-6.3079,-6.3079,-6.3079,-6.3079,-6.3079,-6.3079,-6.3079,-6.3079,-6.3079,-6.3079,-6.3079,-6.3079,-6.3079,-6.3079,-6.3079,-6.3079,-6.3079,-6.3079,-6.3079,-6.3079,-6.3079,-6.3049,-6.272,-6.2091,-6.272,-6.3019,-6.2959,-6.2301,-6.1313,-4.329,0.0,0.0,0.0,0.0,0.0,0.0,0.0,0.0,0.0,0.0,0.0,0.0,0.0,-5.5119,-5.5508,-5.6885,-5.8082,-5.859,-5.7932,-5.7573,-5.8052,-5.6705,-5.5568,-5.5209,-5.4311,-5.3384,-5.2546,-5.1858,-5.1199,-5.0495,-4.9254,-4.8267,-4.7608,-4.7578,-4.7668,-4.7848,-4.7967,-4.8536,-4.9523,-4.9823,-5.0421,-5.1259,-5.2097,-5.2486,-5.2516,-5.3174,-5.3563,-5.3773,-5.4281,-5.488,-5.5478,-5.5478,-5.5478,-5.5538,-5.5987,-5.6047,-5.6077,-5.7393,-5.7842,-5.7992,-5.883,-5.9099,-5.9308,-6.0475,-6.0954,-6.1343,-6.248,-6.2929,-6.3079,-6.3079,-6.3079,-6.3079,-6.3079,-6.3079,-6.3079,-6.3079,-6.3079,-6.3079,-6.3079,-6.3079,-6.3079,-6.3079,-6.3079,-6.3079,-6.3079,-6.3079,-6.3079,-6.3079,-6.3079,-6.3079,-6.3079,-6.3079,-6.3079,-6.3079,-6.3079,-6.3079,-6.3079,-6.3079,-6.3079,-6.3079,-6.3079,-6.3079,-6.3079,-6.26,-6.2271,-6.2091,-6.1792,-6.1403,-6.0894,-6.0236,-5.9727,-4.4077,-4.3708,-4.3409,-4.3977,0.0,0.0,-4.4257,-4.4915,-4.5783,0.0,0.0,0.0,0.0,0.0,0.0,-5.2965,-5.3892,-5.5089,-5.6316,-5.5897,-5.5598,-5.6017,-5.5059,-5.4132,-5.3593,-5.2815,-5.1977,-5.105,-5.0631,-5.0122,-4.9464,-4.8446,-4.7698,-4.7309,-4.7309,-4.7309,-4.7309,-4.7698,-4.8207,-4.891,-4.9254,-4.9912,-5.084,-5.1498,-5.1947,-5.2217,-5.2606,-5.2935,-5.3204,-5.3324,-5.3922,-5.479,-5.479,-5.494,-5.5239,-5.5628,-5.5777,-5.5957,-5.7244,-5.7693,-5.7842,-5.88,-5.9099,-5.9308,-6.0356,-6.0685,-6.0954,-6.2301,-6.2869,-6.3079,-6.3079,-6.3079,-6.3079,-6.3079,-6.3079,-6.3079,-6.3079,-6.3079,-6.3079,-6.3079,-6.3079,-6.3079,-6.3079,-6.3079,-6.3079,-6.3079,-6.3079,-6.3079,-6.3079,-6.3079,-6.3079,-6.3079,-6.3079,-6.3079,-6.3079,-6.3079,-6.3079,-6.3079,-6.3079,-6.3079,-6.3079,-6.3079,-6.2959,-6.266,-6.257,-6.2361,-6.2091,-6.1433,-6.0775,-6.0086,-5.9697,-5.9368,-4.5125,-4.4436,-4.3798,-4.5005,-4.4407,0.0,-4.4197,-4.4317,-4.4496,-4.5065,0.0,0.0,0.0,0.0,0.0,-5.087,-5.09,-5.1588,-5.3593,-5.3354,-5.2965,-5.2965,-5.2905,-5.2396,-5.1229,-5.105,-5.0511,-4.9389,-4.9239,-4.891,-4.8207,-4.7608,-4.7309,-4.7309,-4.7309,-4.7309,-4.7309,-4.7309,-4.7638,-4.8297,-4.8297,-4.8925,-5.0106,-5.072,-5.1319,-5.1887,-5.1947,-5.2306,-5.2815,-5.2306,-5.2875,-5.4102,-5.4192,-5.4551,-5.5089,-5.5149,-5.5179,-5.5359,-5.6645,-5.7094,-5.7304,-5.865,-5.9099,-5.9219,-5.9877,-6.0086,-6.0356,-6.1702,-6.251,-6.2989,-6.3049,-6.3079,-6.3079,-6.3079,-6.3079,-6.3079,-6.3079,-6.3079,-6.3079,-6.3079,-6.3079,-6.3079,-6.3079,-6.3079,-6.3079,-6.3079,-6.3079,-6.3079,-6.3079,-6.3079,-6.3079,-6.3079,-6.3079,-6.3079,-6.3079,-6.3079,-6.3079,-6.3079,-6.3079,-6.3079,-6.3079,-6.3019,-6.269,-6.2121,-6.26,-6.257,-6.2002,-6.1313,-6.0685,-6.0086,-5.9997,-5.9697,-4.5244,-4.5095,-4.4975,-4.5214,-4.5095,0.0,-4.4407,-4.4317,-4.4347,0.0,0.0,0.0,0.0,0.0,0.0,-4.8775,-4.8865,-4.9553,-5.1528,-5.1678,-5.1588,-5.1588,-5.1139,-5.0674,-5.0405,-4.9972,-4.9599,-4.9329,-4.882,-4.8177,-4.7519,-4.7369,-4.7309,-4.7309,-4.7309,-4.7309,-4.7309,-4.7309,-4.7638,-4.8297,-4.8297,-4.8686,-4.9464,-4.9629,-4.9748,-4.9898,-5.0391,-5.0644,-5.084,-5.1259,-5.2187,-5.3443,-5.3982,-5.4281,-5.4461,-5.4999,-5.5179,-5.5359,-5.6645,-5.7094,-5.7304,-5.865,-5.9099,-5.9219,-5.9877,-6.0086,-6.0356,-6.1702,-6.2181,-6.2421,-6.2929,-6.3079,-6.3079,-6.3079,-6.3079,-6.3079,-6.3079,-6.3079,-6.3079,-6.3079,-6.3079,-6.3079,-6.3079,-6.3079,-6.3079,-6.3079,-6.3079,-6.3079,-6.3079,-6.3079,-6.3079,-6.3079,-6.3079,-6.3079,-6.3079,-6.3079,-6.3079,-6.3079,-6.3079,-6.3079,-6.3079,-6.257,-6.2241,-6.2091,-6.1702,-6.1433,-6.1313,-6.0625,-6.0206,-6.0086,-5.9548,-5.9518,-4.6202,-4.5813,-4.5364,-4.5723,-4.5544,0.0,0.0,-4.4796,-4.4706,-4.4377,0.0,0.0,0.0,0.0,0.0,-4.7189,-4.701,-4.7249,-4.8596,-4.9344,-4.9643,-4.9314,-4.8985,-4.8611,-4.8282,-4.7997,-4.7668,-4.7309,-4.698,-4.68,-4.68,-4.68,-4.695,-4.7309,-4.7309,-4.7309,-4.7309,-4.7309,-4.7459,-4.7788,-4.7788,-4.8147,-4.882,-4.882,-4.9,-4.9329,-4.9613,-4.9942,-5.0226,-5.0554,-5.1319,-5.2306,-5.3294,-5.3922,-5.4281,-5.494,-5.5179,-5.5329,-5.6286,-5.6825,-5.7274,-5.8291,-5.883,-5.9159,-5.9488,-5.9817,-6.0236,-6.0894,-6.1583,-6.2181,-6.251,-6.2839,-6.3079,-6.3079,-6.3079,-6.3079,-6.3079,-6.3079,-6.3079,-6.3079,-6.3079,-6.3079,-6.3079,-6.3079,-6.3079,-6.3079,-6.3079,-6.3079,-6.3079,-6.3079,-6.3079,-6.3079,-6.3079,-6.3079,-6.3079,-6.3079,-6.3079,-6.3079,-6.3079,-6.2929,-6.26,-6.2271,-6.2091,-6.2091,-6.1762,-6.1762,-6.2091,-6.1403,-6.0924,-6.0595,-6.0266,-6.0296,-4.7309,-4.68,-4.6142,-4.6441,-4.6292,-4.5963,0.0,0.0,0.0,-4.4646,0.0,0.0,0.0,0.0,0.0,0.0,0.0,0.0,0.0,-4.686,0.0,-4.695,-4.692,-4.6711,-4.6172,-4.6142,-4.5903,-4.5334,-4.5304,-4.5544,-4.6082,-4.6219,-4.6501,-4.689,-4.7189,-4.7249,-4.713,-4.7249,-4.7309,-4.7309,-4.7309,-4.7578,-4.8087,-4.8087,-4.8386,-4.894,-4.906,-4.9464,-5.0016,-5.0136,-5.0584,-5.1349,-5.2516,-5.3414,-5.4102,-5.476,-5.5089,-5.5299,-5.6008,-5.6585,-5.7214,-5.7902,-5.856,-5.9099,-5.9099,-5.9488,-5.9907,-6.0057,-6.0954,-6.1942,-6.2061,-6.26,-6.3079,-6.3079,-6.3079,-6.3079,-6.3079,-6.3079,-6.3079,-6.3079,-6.3079,-6.3079,-6.3079,-6.3079,-6.3079,-6.3079,-6.3079,-6.3079,-6.3079,-6.3079,-6.3079,-6.3079,-6.3079,-6.3079,-6.3079,-6.3079,-6.3079,-6.3079,-6.3079,-6.2839,-6.2301,-6.2151,-6.2091,-6.2091,-6.2091,-6.2421,-6.3079,-6.254,-6.1942,-6.1313,-6.1164,-6.1194,-4.7997,-4.8476,-4.861,-4.7459,-4.7997,-4.8401,-4.6591,0.0,-4.6022,-4.5334,0.0,-4.5274,0.0,0.0,0.0,0.0,0.0,0.0,-4.4616,-4.4676,-4.4945,-4.5454,-4.5514,-4.5484,-4.5424,-4.5394,-4.5364,-4.5304,-4.5304,-4.5334,-4.5394,-4.5992,-4.6082,-4.5544,-4.6681,-4.701,-4.6399,-4.701,-4.7309,-4.7309,-4.7309,-4.7339,-4.7429,-4.7429,-4.7459,-4.7549,-4.8147,-4.8775,-4.9404,-5.0002,-5.0584,-5.1289,-5.2037,-5.2725,-5.3384,-5.4072,-5.47,-5.5299,-5.6008,-5.6585,-5.7214,-5.7902,-5.856,-5.9099,-5.9099,-5.9159,-5.9338,-5.9907,-6.0625,-6.1373,-6.1942,-6.26,-6.3079,-6.3079,-6.3079,-6.3079,-6.3079,-6.3079,-6.3079,-6.3079,-6.3079,-6.3079,-6.3079,-6.3079,-6.3079,-6.3079,-6.3079,-6.3079,-6.3079,-6.3079,-6.3079,-6.3079,-6.3079,-6.3079,-6.3079,-6.3079,-6.3079,-6.3079,-6.3079,-6.3049,-6.2959,-6.2421,-6.2091,-6.2091,-6.2091,-6.2421,-6.3079,-6.2989,-6.263,-6.1972,-6.1373,-6.1433,-4.7638,-4.8745,-4.9434,-4.7728,-4.8566,-4.9314,-4.7339,-4.689,-4.6711,-4.6022,0.0,0.0,0.0,0.0,0.0,0.0,-4.5244,-4.4766,0.0,0.0,-4.3798,-4.4137,-4.4167,-4.4167,-4.4167,-4.4167,-4.4167,-4.4167,-4.4167,-4.4317,-4.4706,-4.5005,-4.5214,-4.5304,-4.5843,-4.6202,-4.6279,-4.6591,-4.6741,-4.6741,-4.713,-4.71,-4.6741,-4.713,-4.7309,-4.7309,-4.7608,-4.8087,-4.8745,-4.9404,-5.0062,-5.0674,-5.1379,-5.2276,-5.3264,-5.3952,-5.461,-5.5299,-5.6008,-5.6585,-5.7274,-5.8351,-5.889,-5.9099,-5.9099,-5.9099,-5.9159,-5.9428,-6.0296,-6.1164,-6.1463,-6.2301,-6.3079,-6.3079,-6.3079,-6.3079,-6.3079,-6.3079,-6.3079,-6.3079,-6.3079,-6.3079,-6.3079,-6.3079,-6.3079,-6.3079,-6.3079,-6.3079,-6.3079,-6.3079,-6.3079,-6.3079,-6.3079,-6.3079,-6.3079,-6.3079,-6.3079,-6.3079,-6.272,-6.251,-6.251,-6.2241,-6.2091,-6.2091,-6.248,-6.281,-6.3079,-6.3079,-6.2929,-6.266,-6.2391,-6.2391,-4.7608,-4.9134,-5.0166,-4.7878,-4.8731,-4.9687,-4.7758,-4.7578,-4.7608,-4.677,-4.689,0.0,0.0,0.0,-4.5963,-4.6262,0.0,-4.4676,0.0,-4.4047,0.0,0.0,-4.329,-4.329,-4.329,-4.314,-4.306,-4.306,-4.306,-4.3269,-4.3748,-4.4107,-4.4436,-4.4736,-4.5095,-4.5454,-4.5783,-4.5963,-4.6052,-4.6052,-4.6711,-4.68,-4.6309,-4.701,-4.7309,-4.7309,-4.7309,-4.7668,-4.8327,-4.903,-4.9643,-5.0285,-5.1169,-5.2187,-5.3234,-5.3743,-5.4461,-5.5299,-5.6008,-5.6705,-5.7543,-5.853,-5.8949,-5.9099,-5.9099,-5.9099,-5.9099,-5.9099,-6.0086,-6.1104,-6.1104,-6.2091,-6.3079,-6.3079,-6.3079,-6.3079,-6.3079,-6.3079,-6.3079,-6.3079,-6.3079,-6.3079,-6.3079,-6.3079,-6.3079,-6.3079,-6.3079,-6.3079,-6.3079,-6.3079,-6.3079,-6.3079,-6.3079,-6.3079,-6.3079,-6.3079,-6.3079,-6.3079,-6.263,-6.2361,-6.2361,-6.2361,-6.2361,-6.2361,-6.2839,-6.3079,-6.3079,-6.3079,-6.3079,-6.3079,-6.3079,-6.3079,-4.8416,-5.0152,-5.1349,-4.8117,-4.8731,-4.9687,-4.7758,-4.8297,-4.888,-4.7549,-4.8297,-4.882,-4.7489,-4.7249,-4.704,-4.6369,-4.5723,0.0,0.0,-4.3738,0.0,-4.329,-4.329,-4.329,-4.329,-4.2761,-4.244,-4.244,-4.244,-4.244,-4.247,-4.3629,-4.3977,-4.3379,-4.4616,-4.5005,-4.4377,-4.5005,-4.5334,-4.5334,-4.6022,-4.6309,-4.6309,-4.701,-4.7309,-4.7309,-4.7309,-4.7668,-4.8327,-4.903,-4.9643,-5.0315,-5.1648,-5.2576,-5.3174,-5.3204,-5.4042,-5.5299,-5.6008,-5.7004,-5.8112,-5.8141,-5.859,-5.9099,-5.9099,-5.9099,-5.9099,-5.9099,-6.0086,-6.1104,-6.1104,-6.2091,-6.3079,-6.3079,-6.3079,-6.3079,-6.3079,-6.3079,-6.3079,-6.3079,-6.3079,-6.3079,-6.3079,-6.3079,-6.3079,-6.3079,-6.3079,-6.3079,-6.3079,-6.3079,-6.3079,-6.3079,-6.3079,-6.3079,-6.3079,-6.3079,-6.3079,-6.3079,-6.3049,-6.3049,-6.3049,-6.3049,-6.3049,-6.3049,-6.3079,-6.3079,-6.3079,-6.3079,-6.3079,-6.3079,-6.3079,-6.3079,-4.8927,-5.1375,-5.3109,-4.8763,-4.9958,-5.1319,-4.8057,-4.8327,-4.894,-4.7578,-4.8356,-4.891,-4.7549,-4.7309,-4.7249,-4.701,-4.6411,-4.5753,0.0,-4.4018,-4.329,-4.329,-4.294,-4.2671,-4.2671,-4.2141,-4.1752,-4.1752,-4.1752,-4.1931,-4.2381,-4.283,-4.312,-4.329,-4.3738,-4.4107,-4.4317,-4.4526,-4.4646,-4.4646,-4.5783,-4.6082,-4.5693,-4.68,-4.7309,-4.7309,-4.7309,-4.7668,-4.8327,-4.903,-4.9643,-5.0315,-5.1678,-5.2606,-5.3234,-5.3683,-5.4431,-5.5329,-5.6406,-5.7363,-5.8201,-5.862,-5.8919,-5.9099,-5.9099,-5.9099,-5.9099,-5.9099,-6.0086,-6.1104,-6.1104,-6.2091,-6.3079,-6.3079,-6.3079,-6.3079,-6.3079,-6.3079,-6.3079,-6.3079,-6.3079,-6.3079,-6.3079,-6.3079,-6.3079,-6.3079,-6.3079,-6.3079,-6.3079,-6.3079,-6.3079,-6.3079,-6.3079,-6.3079,-6.3079,-6.3079,-6.3079,-6.3079,-6.3079,-6.3079,-6.3079,-6.3079,-6.3079,-6.3079,-6.3079,-6.3079,-6.3079,-6.3079,-6.3079,-6.3079,-6.3079,-6.3079,-4.9854,-5.2427,-5.4291,-5.0408,-5.1335,-5.2336,-4.9075,-4.9194,-4.9523,-4.7967,-4.8506,-4.906,-4.8147,-4.7608,-4.7369,-4.7608,-4.6711,-4.5633,0.0,-4.3828,-4.329,-4.329,-4.297,-4.2611,-4.241,-4.1811,-4.1294,-4.1055,-4.1025,-4.1205,-4.1692,-4.2141,-4.259,-4.297,-4.317,-4.3499,-4.3958,-4.3917,-4.3917,-4.3947,-4.5304,-4.5723,-4.5334,-4.6681,-4.7309,-4.7309,-4.7309,-4.7668,-4.8327,-4.903,-4.9793,-5.0674,-5.2037,-5.2965,-5.3593,-5.4042,-5.479,-5.5628,-5.6226,-5.7154,-5.8141,-5.8321,-5.871,-5.9099,-5.9099,-5.9099,-5.9159,-5.9398,-6.0266,-6.1164,-6.1403,-6.2271,-6.3079,-6.3079,-6.3079,-6.3079,-6.3079,-6.3079,-6.3079,-6.3079,-6.3079,-6.3079,-6.3079,-6.3079,-6.3079,-6.3079,-6.3079,-6.3079,-6.3079,-6.3079,-6.3079,-6.3079,-6.3079,-6.3079,-6.3079,-6.3079,-6.3079,-6.3079,-6.3079,-6.3079,-6.3079,-6.3079,-6.3408,-6.4096,-6.3438,-6.3408,-6.4126,-6.3408,-6.3079,-6.3079,-6.3079,-6.3079]}]]